[[[{"header":{"parameterUnit":"kt","parameterCategory":2,"dx":1,"dy":1,"la1":29.587661999999998,"la2":31.0,"lo1":-88.76705300000003,"lo2":-86.6583820000003,"nx":115,"ny":88,"refTime":"2022-10-12T06:00:00:Z","depth":0,"parameterNumber":1,"parameterNumberName":"U-component_of_WINDS"},"data":[10.8241,10.8241,10.8241,10.8241,10.8241,10.8241,10.8241,10.8241,10.8241,10.8241,10.8694,11.004,11.1723,11.3438,11.4964,11.6571,11.7962,11.8186,11.8186,11.8186,11.8186,11.8186,11.8186,11.8186,11.8186,11.8186,11.8186,11.8186,11.8186,11.8186,11.8186,11.8186,11.8186,11.8186,11.8149,11.7888,11.7888,11.8047,11.8094,11.7962,11.7962,11.8747,12.0168,12.1701,12.3084,12.5215,12.7085,12.7982,12.8057,12.8057,12.8057,12.8057,12.8057,12.8057,12.7548,12.6797,12.5863,12.4864,12.3904,12.2733,12.224,12.2119,12.2119,12.2119,12.2119,12.2119,12.2119,12.2119,12.2119,12.2119,12.2119,12.2119,12.2119,12.2119,12.2119,12.2119,12.2119,12.2119,12.2119,12.2119,12.2119,12.2119,12.2119,12.2119,12.2119,12.2119,12.2119,12.2119,12.2119,12.2119,12.2119,12.2119,12.2119,12.2119,12.2119,12.2119,12.2119,12.2119,12.2119,12.2119,12.2119,12.2119,12.2119,12.2119,12.2119,12.2119,12.2119,12.2119,12.2119,12.2119,12.2119,12.1986,12.1986,12.152,12.0247,10.8241,10.8241,10.8241,10.8241,10.8241,10.8241,10.8241,10.8241,10.8241,10.8241,10.8502,10.9965,11.1765,11.3406,11.4926,11.6616,11.7737,11.8074,11.8186,11.8186,11.8186,11.8186,11.8186,11.8186,11.8186,11.8186,11.8186,11.8186,11.8186,11.8186,11.8186,11.8186,11.8186,11.8149,11.7925,11.7618,11.7221,11.7515,11.7629,11.7563,11.7829,11.8298,12.0243,12.1888,12.3308,12.4841,12.6935,12.8057,12.8057,12.8057,12.8057,12.8057,12.8057,12.7907,12.7345,12.6419,12.5413,12.4479,12.3567,12.2583,12.224,12.2119,12.2119,12.2119,12.2119,12.2119,12.2119,12.2119,12.2119,12.2119,12.2119,12.2119,12.2119,12.2119,12.2119,12.2119,12.2119,12.2119,12.2119,12.2119,12.2119,12.2119,12.2119,12.2119,12.2119,12.2119,12.2119,12.2119,12.2119,12.2119,12.2119,12.2119,12.2119,12.2119,12.2119,12.2119,12.2119,12.2119,12.2119,12.2119,12.2119,12.2119,12.2119,12.2119,12.2119,12.2119,12.2119,12.2119,12.2119,12.2119,12.1986,12.1986,12.1754,12.0805,11.964,10.8241,10.8241,10.8241,10.8241,10.8241,10.8241,10.8241,10.8241,10.8241,10.8241,10.8428,10.918,11.0863,11.3369,11.4036,11.5487,11.7887,11.8149,11.8186,11.8186,11.8186,11.8186,11.8186,11.8186,11.8186,11.8186,11.8186,11.8186,11.8186,11.8186,11.8186,11.8186,11.8103,11.7925,11.734,11.7109,11.6815,11.6758,11.6852,11.7032,11.731,11.8224,11.9869,12.2037,12.3533,12.5103,12.686,12.8057,12.8057,12.8057,12.8057,12.8057,12.8019,12.7608,12.6771,12.5812,12.4903,12.3868,12.3025,12.2336,12.2083,12.2119,12.2119,12.2119,12.2119,12.2119,12.2119,12.2119,12.2119,12.2119,12.2119,12.2119,12.2119,12.2119,12.2119,12.2119,12.2119,12.2119,12.2119,12.2119,12.2119,12.2119,12.2119,12.2119,12.2119,12.2119,12.2119,12.2119,12.2119,12.2119,12.2119,12.2119,12.2119,12.2119,12.2119,12.2119,12.2119,12.2119,12.2119,12.2119,12.2119,12.2119,12.2119,12.2119,12.2119,12.2119,12.2119,12.2119,12.2119,12.1986,12.1986,12.1719,12.0908,12.007,11.8419,10.8241,10.8241,10.8241,10.8241,10.8241,10.8241,10.8241,10.8278,10.8652,10.8914,10.8802,10.8727,10.9965,11.2434,11.3176,11.4851,11.7214,11.7775,11.8111,11.8186,11.8186,11.8186,11.8186,11.8186,11.8186,11.8186,11.8186,11.8186,11.8186,11.8186,11.8186,11.8186,11.8149,11.7973,11.7429,11.6468,11.6362,11.6382,11.6574,11.69,11.7076,11.8074,11.9607,12.1962,12.3383,12.4879,12.6935,12.8057,12.8057,12.8057,12.8057,12.8057,12.8019,12.7085,12.604,12.4905,12.4079,12.3255,12.2547,12.218,12.2119,12.2119,12.2119,12.2119,12.2119,12.2119,12.2119,12.2119,12.2119,12.2119,12.2119,12.2119,12.2119,12.2119,12.2119,12.2119,12.2119,12.2119,12.2119,12.2119,12.2119,12.2119,12.2119,12.2119,12.2119,12.2119,12.2119,12.2119,12.2119,12.2119,12.2119,12.2119,12.2119,12.2119,12.2119,12.2119,12.2119,12.2119,12.2119,12.2119,12.2119,12.2119,12.2119,12.2119,12.2119,12.2119,12.2119,12.2119,12.1986,12.1986,12.1754,12.0943,12.0212,11.8647,11.6817,10.8241,10.8241,10.8241,10.8241,10.8241,10.8353,10.839,10.8428,10.9848,11.0559,11.0297,10.8951,10.9442,11.169,11.284,11.4478,11.6047,11.7625,11.8186,11.8186,11.8186,11.8186,11.8186,11.8186,11.8186,11.8186,11.8186,11.8186,11.8186,11.8186,11.8186,11.8186,11.8186,11.7973,11.748,11.6527,11.6105,11.6125,11.6307,11.6516,11.6873,11.8066,11.9644,12.2448,12.3608,12.458,12.7122,12.8057,12.8057,12.8057,12.8057,12.8057,12.7746,12.7098,12.5526,12.4459,12.37,12.2844,12.23,12.2119,12.2119,12.2119,12.2119,12.2119,12.2119,12.2119,12.2119,12.2119,12.2119,12.2119,12.2119,12.2119,12.2119,12.2119,12.2119,12.2119,12.2119,12.2119,12.2119,12.2119,12.2119,12.2119,12.2119,12.2119,12.2119,12.2119,12.2119,12.2119,12.2119,12.2119,12.2119,12.2119,12.2119,12.2119,12.2119,12.2119,12.2119,12.2119,12.2119,12.2119,12.2119,12.2119,12.2119,12.2119,12.2119,12.2119,12.2119,12.2119,12.2119,12.1888,12.1284,12.0353,11.8682,11.6851,11.5291,10.8241,10.8241,10.8241,10.8241,10.8428,10.9362,10.9811,10.9886,11.0484,11.1461,11.1948,10.9475,10.9741,11.2065,11.307,11.4216,11.5793,11.7326,11.8186,11.8186,11.8186,11.8186,11.8186,11.8186,11.8186,11.8186,11.8186,11.8186,11.8186,11.8186,11.8186,11.8186,11.8186,11.784,11.734,11.6737,11.63,11.6013,11.5709,11.5597,11.6548,11.7941,12.024,12.2689,12.4281,12.5776,12.7758,12.8057,12.8057,12.8057,12.8057,12.8057,12.7945,12.7067,12.5605,12.3934,12.3203,12.2453,12.224,12.2119,12.2119,12.2119,12.2119,12.2119,12.2119,12.2119,12.2119,12.2119,12.2119,12.2119,12.2119,12.2119,12.2119,12.2119,12.2119,12.2119,12.2119,12.2119,12.2119,12.2119,12.2119,12.2119,12.2119,12.2119,12.2119,12.2119,12.2119,12.2119,12.2119,12.2119,12.2119,12.2119,12.2119,12.2119,12.2119,12.2119,12.2119,12.2119,12.2119,12.2119,12.2119,12.2119,12.2119,12.2119,12.2119,12.2119,12.2119,12.2119,12.1754,12.152,12.101,11.913,11.7093,11.5291,11.3974,10.8241,10.8241,10.8241,10.8241,10.8428,10.9549,11.0372,11.0746,11.0821,11.1723,11.315,11.0264,11.0718,11.3229,11.3818,11.4672,11.598,11.7214,11.7924,11.8186,11.8186,11.8186,11.8186,11.8186,11.8186,11.8186,11.8186,11.8186,11.8186,11.8186,11.8186,11.8186,11.8186,11.7888,11.7429,11.698,11.6511,11.598,11.5307,11.5517,11.6399,11.8139,12.0481,12.279,12.4505,12.6225,12.7608,12.8057,12.8057,12.8057,12.8057,12.7795,12.7733,12.6686,12.5562,12.3683,12.2748,12.2119,12.2119,12.2119,12.2119,12.2119,12.2119,12.2119,12.2119,12.2119,12.2119,12.2119,12.2119,12.2119,12.2119,12.2119,12.2119,12.2119,12.2119,12.2119,12.2119,12.2119,12.2119,12.2119,12.2119,12.2119,12.2119,12.2119,12.2119,12.2119,12.2119,12.2119,12.2119,12.2119,12.2119,12.2119,12.2119,12.2119,12.2119,12.2119,12.2119,12.2119,12.2119,12.2119,12.2119,12.2119,12.2119,12.2119,12.2119,12.2119,12.2083,12.1385,12.0908,12.077,11.9605,11.7536,11.5514,11.4076,11.2762,10.8241,10.8241,10.8241,10.8241,10.8278,10.8428,10.9362,11.0783,11.0821,11.1803,11.3229,11.1461,11.1686,11.3454,11.4902,11.5532,11.601,11.7476,11.7999,11.8186,11.8186,11.8186,11.8186,11.8186,11.8186,11.8186,11.8186,11.8186,11.8186,11.8186,11.8186,11.8186,11.8186,11.8019,11.7655,11.7164,11.6556,11.6076,11.5458,11.5611,11.6972,11.8712,12.1043,12.3226,12.5066,12.6711,12.7533,12.8057,12.8057,12.8057,12.8057,12.7496,12.6695,12.5785,12.4758,12.3671,12.2729,12.2226,12.2119,12.2119,12.2119,12.2119,12.2119,12.2119,12.2119,12.2119,12.2119,12.2119,12.2119,12.2119,12.2119,12.2119,12.2119,12.2119,12.2119,12.2119,12.2119,12.2119,12.2119,12.2119,12.2119,12.2119,12.2119,12.2119,12.2119,12.2119,12.2119,12.2119,12.2119,12.2119,12.2119,12.2119,12.2119,12.2119,12.2119,12.2119,12.2119,12.2119,12.2119,12.2119,12.2119,12.2119,12.2119,12.2119,12.2119,12.1986,12.1754,12.1249,12.0317,11.8647,11.7452,11.5641,11.4542,11.3115,11.2513,10.8241,10.8241,10.8241,10.8241,10.8241,10.8241,10.9213,11.0596,11.0858,11.2359,11.378,11.2022,11.2284,11.4379,11.5426,11.5681,11.5868,11.7364,11.8186,11.8186,11.8186,11.8186,11.8186,11.8186,11.8186,11.8186,11.8186,11.8186,11.8186,11.8186,11.8186,11.8186,11.8186,11.8186,11.7705,11.6811,11.5995,11.5783,11.5286,11.547,11.7517,11.9697,12.1955,12.4221,12.6113,12.7421,12.787,12.8057,12.8057,12.8057,12.7945,12.7608,12.6677,12.5709,12.4703,12.3666,12.2751,12.219,12.2119,12.2119,12.2119,12.2119,12.2119,12.2119,12.2119,12.2119,12.2119,12.2119,12.2119,12.2119,12.2119,12.2119,12.2119,12.2119,12.2119,12.2119,12.2119,12.2119,12.2119,12.2119,12.2119,12.2119,12.2119,12.2119,12.2119,12.2119,12.2119,12.2119,12.2119,12.2119,12.2119,12.2119,12.2119,12.2119,12.2119,12.2119,12.2119,12.2119,12.2119,12.2119,12.2119,12.2119,12.2119,12.2119,12.2119,12.1986,12.162,12.101,11.9964,11.8419,11.602,11.4443,11.3463,11.3009,11.2513,10.8241,10.8241,10.8241,10.8241,10.8241,10.8241,10.8839,10.9811,11.0148,11.1798,11.3855,11.2802,11.3438,11.5644,11.6578,11.6653,11.6728,11.7924,11.8186,11.8186,11.8186,11.8186,11.8186,11.8186,11.8186,11.8186,11.8186,11.8186,11.8186,11.8186,11.8186,11.8186,11.8186,11.8186,11.7705,11.6505,11.5425,11.5286,11.4642,11.4943,11.7419,11.9852,12.2317,12.4758,12.6911,12.7945,12.8057,12.8057,12.8057,12.8057,12.8057,12.7384,12.6146,12.5659,12.4534,12.3134,12.2583,12.2119,12.2119,12.2119,12.2119,12.2119,12.2119,12.2119,12.2119,12.2119,12.2119,12.2119,12.2119,12.2119,12.2119,12.2119,12.2119,12.2119,12.2119,12.2119,12.2119,12.2119,12.2119,12.2119,12.2119,12.2119,12.2119,12.2119,12.2119,12.2119,12.2119,12.2119,12.2119,12.2119,12.2119,12.2119,12.2119,12.2119,12.2119,12.2119,12.2119,12.2119,12.2119,12.2119,12.2119,12.2119,12.2119,12.2083,12.2083,12.1986,12.152,12.0908,11.9856,11.7958,11.5066,11.3115,11.2869,11.2762,11.2513,10.8241,10.8241,10.8241,10.8241,10.8241,10.8241,10.8315,10.8502,10.854,11.0372,11.3294,11.34,11.4933,11.7364,11.7737,11.7737,11.785,11.7999,11.8186,11.8186,11.8186,11.8186,11.8186,11.8186,11.8186,11.8186,11.8186,11.8186,11.8186,11.8186,11.8186,11.8186,11.8186,11.8186,11.8019,11.6408,11.5531,11.5211,11.4071,11.4939,11.7036,11.9624,12.2167,12.4549,12.6786,12.792,12.8007,12.8057,12.8057,12.8057,12.8057,12.7309,12.5833,12.5413,12.4312,12.2669,12.2262,12.2119,12.2119,12.2119,12.2119,12.2119,12.2119,12.2119,12.2119,12.2119,12.2119,12.2119,12.2119,12.2119,12.2119,12.2119,12.2119,12.2119,12.2119,12.2119,12.2119,12.2119,12.2119,12.2119,12.2119,12.2119,12.2119,12.2119,12.2119,12.2119,12.2119,12.2119,12.2119,12.2119,12.2119,12.2119,12.2119,12.2119,12.2119,12.2119,12.2119,12.2119,12.2119,12.2119,12.2119,12.2119,12.2083,12.2083,12.1754,12.1284,12.1046,12.0562,11.8647,11.6484,11.3839,11.2513,11.2513,11.2513,11.2513,10.8241,10.8241,10.8241,10.8241,10.8241,10.8241,10.8241,10.8241,10.8241,11.0185,11.3251,11.3431,11.5113,11.7438,11.8186,11.8186,11.8186,11.8186,11.8186,11.8186,11.8186,11.8186,11.8186,11.8186,11.8186,11.8186,11.8186,11.8186,11.8186,11.8186,11.8103,11.8103,11.8186,11.8186,11.7888,11.7035,11.6039,11.5925,11.5798,11.7112,11.817,12.0545,12.3051,12.5419,12.6448,12.7365,12.792,12.8057,12.8057,12.8057,12.7945,12.7384,12.6389,12.5381,12.4465,12.3409,12.2547,12.2119,12.2119,12.2119,12.2119,12.2119,12.2119,12.2119,12.2119,12.2119,12.2119,12.2119,12.2119,12.2119,12.2119,12.2119,12.2119,12.2119,12.2119,12.2119,12.2119,12.2119,12.2119,12.2119,12.2119,12.2119,12.2119,12.2119,12.2119,12.2119,12.2119,12.2119,12.2119,12.2119,12.2119,12.2119,12.2119,12.2119,12.2119,12.2119,12.2119,12.2119,12.2119,12.2119,12.2119,12.2119,12.2083,12.162,12.1147,12.0562,11.9713,11.8568,11.6851,11.5162,11.3974,11.2513,11.2513,11.2513,11.2513,10.8241,10.8241,10.8241,10.8241,10.8241,10.8241,10.8241,10.8241,10.8278,10.9886,11.2391,11.3768,11.5674,11.7551,11.8186,11.8186,11.8186,11.8186,11.8186,11.8186,11.8186,11.8186,11.8186,11.8186,11.8186,11.8186,11.8186,11.8186,11.8149,11.8186,11.8057,11.7925,11.8057,11.8103,11.8103,11.7618,11.7015,11.6852,11.7529,11.8485,11.954,12.1329,12.3365,12.5812,12.6256,12.7067,12.792,12.8057,12.8057,12.8057,12.8057,12.7421,12.6525,12.5601,12.4659,12.3683,12.2608,12.219,12.2119,12.2119,12.2119,12.2119,12.2119,12.2119,12.2119,12.2119,12.2119,12.2119,12.2119,12.2119,12.2119,12.2119,12.2119,12.2119,12.2119,12.2119,12.2119,12.2119,12.2119,12.2119,12.2119,12.2119,12.2119,12.2119,12.2119,12.2119,12.2119,12.2119,12.2119,12.2119,12.2119,12.2119,12.2119,12.2119,12.2119,12.2119,12.2119,12.2119,12.2119,12.2119,12.2119,12.2083,12.1754,12.1046,12.0458,11.9605,11.8419,11.6885,11.5454,11.4076,11.3115,11.2513,11.2513,11.2513,11.2513,10.8241,10.8241,10.8241,10.8241,10.8241,10.8241,10.8241,10.8241,10.8241,10.9175,11.097,11.3842,11.6085,11.7812,11.8186,11.8186,11.8186,11.8186,11.8186,11.8186,11.8186,11.8186,11.8186,11.8186,11.8186,11.8186,11.8186,11.8103,11.8019,11.7973,11.7618,11.709,11.784,11.8103,11.8178,11.8393,11.8325,11.8381,11.9133,11.9741,11.9968,12.106,12.2778,12.4905,12.6062,12.6973,12.8007,12.8057,12.8057,12.8057,12.8057,12.7608,12.66,12.5693,12.4669,12.3651,12.2716,12.2155,12.2119,12.2119,12.2119,12.2119,12.2119,12.2119,12.2119,12.2119,12.2119,12.2119,12.2119,12.2119,12.2119,12.2119,12.2119,12.2119,12.2119,12.2119,12.2119,12.2119,12.2119,12.2119,12.2119,12.2119,12.2119,12.2119,12.2119,12.2119,12.2119,12.2119,12.2119,12.2119,12.2119,12.2119,12.2119,12.2119,12.2119,12.2119,12.2119,12.2119,12.2119,12.2119,12.2119,12.1754,12.152,12.0702,11.9496,11.8568,11.7402,11.5582,11.3974,11.3009,11.2513,11.2513,11.2513,11.2513,11.2513,10.8241,10.8241,10.8241,10.8241,10.8241,10.8241,10.8241,10.8241,10.8241,10.854,10.9736,11.2466,11.5569,11.7625,11.8149,11.8186,11.8186,11.8186,11.8186,11.8186,11.8186,11.8186,11.8186,11.8186,11.8186,11.8186,11.8186,11.7791,11.7618,11.7618,11.7568,11.6943,11.7618,11.8178,11.8523,11.9196,12.0093,12.0112,12.1032,12.082,12.0333,12.1156,12.306,12.4529,12.559,12.633,12.778,12.8057,12.8057,12.8057,12.8057,12.7601,12.6597,12.5653,12.4685,12.3671,12.2618,12.2119,12.2119,12.2119,12.2119,12.2119,12.2119,12.2119,12.2119,12.2119,12.2119,12.2119,12.2119,12.2119,12.2119,12.2119,12.2119,12.2119,12.2119,12.2119,12.2119,12.2119,12.2119,12.2119,12.2119,12.2119,12.2119,12.2119,12.2119,12.2119,12.2119,12.2119,12.2119,12.2119,12.2119,12.2119,12.2119,12.2119,12.2119,12.2119,12.2119,12.2119,12.2119,12.2119,12.1986,12.1754,12.1046,11.9856,11.8682,11.7487,11.5929,11.4109,11.2513,11.2513,11.2513,11.2513,11.2513,11.2513,11.2513,10.8241,10.8241,10.8241,10.8241,10.8241,10.8241,10.8241,10.8241,10.8278,10.8689,10.9848,11.2241,11.4678,11.681,11.7962,11.8149,11.8186,11.8186,11.8186,11.8186,11.8186,11.8186,11.8186,11.8186,11.8186,11.8186,11.8057,11.7517,11.6689,11.6652,11.6831,11.6348,11.7127,11.7978,11.9532,12.028,12.1327,12.2405,12.2529,12.201,12.1297,12.168,12.3078,12.5088,12.5161,12.633,12.7548,12.8057,12.8057,12.8057,12.8057,12.7606,12.6629,12.5667,12.4718,12.3705,12.2583,12.2119,12.2119,12.2119,12.2119,12.2119,12.2119,12.2119,12.2119,12.2119,12.2119,12.2119,12.2119,12.2119,12.2119,12.2119,12.2119,12.2119,12.2119,12.2119,12.2119,12.2119,12.2119,12.2119,12.2119,12.2119,12.2119,12.2119,12.2119,12.2119,12.2119,12.2119,12.2119,12.2119,12.2119,12.2119,12.2119,12.2119,12.2119,12.2119,12.2119,12.2119,12.2119,12.2119,12.1986,12.1284,11.9999,11.8795,11.7605,11.602,11.421,11.3115,11.2621,11.2513,11.2513,11.2513,11.2513,11.2513,11.2513,10.8241,10.8241,10.8241,10.8241,10.8241,10.8241,10.8241,10.8241,10.8241,10.9175,11.0185,11.2434,11.408,11.5613,11.7214,11.8111,11.8186,11.8186,11.8186,11.8186,11.8186,11.8186,11.8186,11.8186,11.8186,11.8186,11.8037,11.6997,11.5791,11.5564,11.5511,11.5577,11.6459,11.7978,11.9892,12.0896,12.2561,12.4617,12.3798,12.2859,12.2518,12.2169,12.3219,12.4598,12.5307,12.6099,12.778,12.8057,12.8057,12.8057,12.7982,12.7403,12.6416,12.5585,12.4518,12.3562,12.2751,12.2119,12.2119,12.2119,12.2119,12.2119,12.2119,12.2119,12.2119,12.2119,12.2119,12.2119,12.2119,12.2119,12.2119,12.2119,12.2119,12.2119,12.2119,12.2119,12.2119,12.2119,12.2119,12.2119,12.2119,12.2119,12.2119,12.2119,12.2119,12.2119,12.2119,12.2119,12.2119,12.2119,12.2119,12.2119,12.2119,12.2119,12.2119,12.2119,12.2119,12.2119,12.2119,12.2119,12.1888,12.142,11.9856,11.8027,11.627,11.4805,11.36,11.3009,11.2621,11.2513,11.2513,11.2513,11.2513,11.2513,11.2513,10.8241,10.8241,10.8241,10.8241,10.8241,10.8241,10.8241,10.8241,10.8241,10.8502,10.9175,11.1873,11.3519,11.4485,11.6504,11.8186,11.8186,11.8186,11.8186,11.8186,11.8186,11.8186,11.8186,11.8186,11.8103,11.7898,11.7381,11.6149,11.4896,11.5102,11.496,11.5284,11.6176,11.7852,11.9873,12.1569,12.356,12.483,12.4894,12.4703,12.4164,12.3078,12.3078,12.4939,12.5234,12.6099,12.7832,12.8057,12.8057,12.787,12.7359,12.6455,12.5523,12.4514,12.3455,12.2511,12.2226,12.2119,12.2119,12.2119,12.2119,12.2119,12.2119,12.2119,12.2119,12.2119,12.2119,12.2119,12.2119,12.2119,12.2119,12.2119,12.2119,12.2119,12.2119,12.2119,12.2119,12.2119,12.2119,12.2119,12.2119,12.2119,12.2119,12.2119,12.2119,12.2119,12.2119,12.2119,12.2119,12.2119,12.2119,12.2119,12.2119,12.2119,12.2119,12.2119,12.2119,12.2119,12.2119,12.2119,12.1853,12.152,11.9959,11.8186,11.6452,11.5276,11.3563,11.2513,11.2513,11.2513,11.2513,11.2621,11.2762,11.2729,11.2869,10.8241,10.8241,10.8241,10.8241,10.8241,10.8241,10.8241,10.8241,10.8241,10.8241,10.9292,11.169,11.3294,11.4186,11.6728,11.8149,11.8186,11.8186,11.8186,11.8186,11.8186,11.8186,11.8186,11.77,11.7579,11.7181,11.6176,11.4911,11.4303,11.493,11.5317,11.5554,11.6966,11.887,12.0875,12.2234,12.3636,12.4814,12.4726,12.4321,12.4192,12.2953,12.3307,12.4598,12.5307,12.6201,12.7638,12.8057,12.8057,12.787,12.7122,12.6114,12.5014,12.3914,12.2547,12.2226,12.2119,12.2119,12.2119,12.2119,12.2119,12.2119,12.2119,12.2119,12.2119,12.2119,12.2119,12.2119,12.2119,12.2119,12.2119,12.2119,12.2119,12.2119,12.2119,12.2119,12.2119,12.2119,12.2119,12.2119,12.2119,12.2119,12.2119,12.2119,12.2119,12.2119,12.2119,12.2119,12.2119,12.2119,12.2119,12.2119,12.2119,12.2119,12.2119,12.2119,12.2119,12.2119,12.2119,12.2119,12.1853,12.0943,11.9596,11.8822,11.7735,11.6773,11.5011,11.2852,11.2578,11.2513,11.2976,11.3496,11.3221,11.3254,11.3496,10.8241,10.8241,10.8241,10.8241,10.8241,10.8241,10.8241,10.8241,10.8241,10.8241,10.8768,11.177,11.3299,11.4192,11.6728,11.8111,11.8186,11.8186,11.8186,11.8186,11.7888,11.8019,11.786,11.7183,11.6479,11.5974,11.4865,11.4261,11.4361,11.4896,11.5625,11.6725,11.7967,11.9789,12.1534,12.2632,12.3529,12.4849,12.4318,12.3795,12.3661,12.3025,12.3455,12.5233,12.5307,12.6266,12.7638,12.8057,12.797,12.772,12.6874,12.5921,12.4712,12.3114,12.2251,12.2119,12.2119,12.2119,12.2119,12.2119,12.2119,12.2119,12.2119,12.2119,12.2119,12.2119,12.2119,12.2119,12.2119,12.2119,12.2119,12.2119,12.2119,12.2119,12.2119,12.2119,12.2119,12.2119,12.2119,12.2119,12.2119,12.2119,12.2119,12.2119,12.2119,12.2119,12.2119,12.2119,12.2119,12.2119,12.2119,12.2119,12.2119,12.2119,12.2119,12.2119,12.2119,12.2119,12.2119,12.2119,12.1825,12.0772,12.0555,12.0595,11.9932,11.8163,11.5985,11.367,11.3125,11.2654,11.3463,11.4443,11.4575,11.4839,11.4872,10.8241,10.8241,10.8241,10.8241,10.8241,10.8241,10.8241,10.8241,10.8241,10.8241,10.8918,11.1844,11.3304,11.4042,11.6728,11.8074,11.8186,11.8186,11.8186,11.8019,11.7568,11.7531,11.7531,11.6437,11.5266,11.4442,11.3543,11.3897,11.4591,11.5127,11.6094,11.7277,11.8394,12.0021,12.1418,12.2221,12.3326,12.4546,12.3914,12.3438,12.3349,12.3347,12.4073,12.538,12.5413,12.6164,12.7494,12.792,12.7601,12.6804,12.587,12.4897,12.3833,12.2716,12.2119,12.2119,12.2119,12.2119,12.2119,12.2119,12.2119,12.2119,12.2119,12.2119,12.2119,12.2119,12.2119,12.2119,12.2119,12.2119,12.2119,12.2119,12.2119,12.2119,12.2119,12.2119,12.2119,12.2119,12.2119,12.2119,12.2119,12.2119,12.2119,12.2119,12.2119,12.2119,12.2119,12.2119,12.2119,12.2119,12.2119,12.2119,12.2119,12.2119,12.2119,12.2119,12.2119,12.2119,12.2119,12.219,12.2236,12.2384,12.3033,12.2787,12.1362,11.924,11.712,11.4393,11.3059,11.3001,11.36,11.4936,11.5675,11.6304,11.5836,10.8241,10.8241,10.8241,10.8241,10.8241,10.8241,10.8241,10.8241,10.8241,10.8241,10.903,11.1882,11.3304,11.3593,11.6578,11.8186,11.8186,11.8186,11.8186,11.7973,11.7287,11.7053,11.7035,11.5275,11.4171,11.405,11.3156,11.3628,11.4984,11.5983,11.7017,11.861,11.991,12.0938,12.1747,12.2121,12.2888,12.3385,12.2967,12.2824,12.2736,12.2789,12.3402,12.3904,12.4903,12.5759,12.7161,12.731,12.676,12.5856,12.4904,12.3915,12.2896,12.2333,12.2119,12.2119,12.2119,12.2119,12.2119,12.2119,12.2119,12.2119,12.2119,12.2119,12.2119,12.2119,12.2119,12.2119,12.2119,12.2119,12.2119,12.2119,12.2119,12.2119,12.2119,12.2119,12.2119,12.2119,12.2119,12.2119,12.2119,12.2119,12.2119,12.2119,12.2119,12.2119,12.2119,12.2119,12.2119,12.2119,12.2119,12.2119,12.2119,12.2119,12.2119,12.2119,12.2119,12.2119,12.2119,12.2226,12.3154,12.4382,12.546,12.3934,12.2516,12.0334,11.8197,11.4739,11.2654,11.3736,11.4839,11.5675,11.6764,11.8305,11.819,10.8241,10.8241,10.8241,10.8241,10.8241,10.8241,10.8241,10.8241,10.8241,10.8241,10.9068,11.1844,11.3225,11.3513,11.6578,11.8186,11.8186,11.8186,11.8186,11.8019,11.709,11.6468,11.5709,11.405,11.3206,11.3425,11.3018,11.3806,11.5448,11.691,11.8302,12.005,12.1252,12.2083,12.2073,12.2121,12.2083,12.2119,12.2119,12.2119,12.218,12.2439,12.2628,12.2935,12.4521,12.5826,12.6382,12.6542,12.5893,12.4703,12.376,12.2977,12.2359,12.2155,12.2119,12.2119,12.2119,12.2119,12.2119,12.2119,12.2119,12.2119,12.2119,12.2119,12.2119,12.2119,12.2119,12.2119,12.2119,12.2119,12.2119,12.2119,12.2119,12.2119,12.2119,12.2119,12.2119,12.2119,12.2119,12.2119,12.2119,12.2119,12.2119,12.2119,12.2119,12.2119,12.2119,12.2119,12.2119,12.2119,12.2119,12.2119,12.2119,12.2119,12.2119,12.2119,12.2119,12.2119,12.2119,12.2262,12.4402,12.5907,12.6452,12.5503,12.3599,12.1674,11.9742,11.6536,11.4277,11.5454,11.6641,11.7368,11.8419,12.0317,12.0873,10.8241,10.8241,10.8241,10.8241,10.8241,10.8241,10.8241,10.8241,10.8241,10.8241,10.903,11.1844,11.3262,11.3543,11.6653,11.8186,11.8186,11.8186,11.8149,11.7618,11.668,11.5238,11.4593,11.3206,11.2931,11.2931,11.2914,11.4342,11.6197,11.7124,11.8944,12.0906,12.1798,12.2119,12.2119,12.2119,12.2119,12.2119,12.2119,12.2119,12.2133,12.2765,12.3121,12.3458,12.5161,12.6192,12.6481,12.6319,12.5305,12.2511,12.2348,12.2262,12.219,12.2119,12.2119,12.2119,12.2119,12.2119,12.2119,12.2119,12.2119,12.2119,12.2119,12.2119,12.2119,12.2119,12.2119,12.2119,12.2119,12.2119,12.2119,12.2119,12.2119,12.2119,12.2119,12.2119,12.2119,12.2119,12.2119,12.2119,12.2119,12.2119,12.2119,12.2119,12.2119,12.2119,12.2119,12.2119,12.2119,12.2119,12.2119,12.2119,12.2119,12.2119,12.2119,12.2119,12.2119,12.2119,12.2119,12.2583,12.4652,12.6086,12.7053,12.6889,12.4728,12.2659,12.0743,11.9157,11.7365,11.7351,11.7958,11.8795,11.964,12.1385,12.195,10.7979,10.7642,10.8054,10.8241,10.8241,10.8241,10.8241,10.8241,10.8241,10.8241,10.903,11.1844,11.3299,11.3662,11.6691,11.8149,11.8186,11.8186,11.7888,11.7377,11.6564,11.5136,11.3638,11.3018,11.2701,11.2701,11.2701,11.4056,11.5876,11.7053,11.8587,12.0478,12.1655,12.2083,12.2048,12.2119,12.2119,12.2119,12.2119,12.2119,12.2083,12.2539,12.3018,12.3852,12.4903,12.6062,12.6419,12.6062,12.4977,12.343,12.2431,12.2119,12.2119,12.2119,12.2119,12.2119,12.2119,12.2119,12.2119,12.2119,12.2119,12.2119,12.2119,12.2119,12.2119,12.2119,12.2119,12.2119,12.2119,12.2119,12.2119,12.2119,12.2119,12.2119,12.2119,12.2119,12.2119,12.2119,12.2119,12.2119,12.2119,12.2119,12.2119,12.2119,12.2119,12.2119,12.2119,12.2119,12.2119,12.2119,12.2119,12.2119,12.2119,12.2119,12.2119,12.2119,12.2119,12.2119,12.2119,12.219,12.3903,12.5437,12.6834,12.7703,12.5632,12.3526,12.133,11.9536,11.8704,11.8786,11.9165,11.9856,12.0702,12.1986,12.195,10.7665,10.719,10.7734,10.8076,10.8278,10.8241,10.8241,10.8241,10.8241,10.8241,10.8881,11.1391,11.2813,11.3587,11.6242,11.7812,11.8028,11.7925,11.7429,11.6831,11.6408,11.4778,11.3156,11.2701,11.2701,11.2701,11.2736,11.3557,11.5127,11.6696,11.7981,11.9158,12.1013,12.1941,12.1655,12.1869,12.2083,12.2119,12.2119,12.2119,12.2083,12.2144,12.2547,12.3567,12.4635,12.5622,12.6382,12.5893,12.5051,12.4115,12.2789,12.2119,12.2119,12.2119,12.2119,12.2119,12.2119,12.2119,12.2119,12.2119,12.2119,12.2119,12.2119,12.2119,12.2119,12.2119,12.2119,12.2119,12.2119,12.2119,12.2119,12.2119,12.2119,12.2119,12.2119,12.2119,12.2119,12.2119,12.2119,12.2119,12.2119,12.2119,12.2119,12.2119,12.2119,12.2119,12.2119,12.2119,12.2119,12.2119,12.2119,12.2119,12.2119,12.2119,12.2119,12.2119,12.2119,12.2119,12.2155,12.219,12.3189,12.4688,12.6579,12.822,12.5884,12.4848,12.2666,12.0316,12.0394,12.0282,12.0562,12.0805,12.1754,12.1754,12.162,10.7146,10.7142,10.7161,10.764,10.8199,10.8241,10.8241,10.8241,10.8241,10.8241,10.8615,11.0343,11.1915,11.3444,11.5188,11.687,11.7833,11.7466,11.6887,11.6287,11.5029,11.3891,11.2878,11.2701,11.2701,11.2701,11.2701,11.3521,11.4877,11.6554,11.7481,11.7909,12.0442,12.1405,12.0585,12.1441,12.2119,12.2119,12.2119,12.2119,12.2119,12.2119,12.2547,12.3567,12.4635,12.5622,12.6382,12.6356,12.5826,12.4939,12.3167,12.218,12.2119,12.2119,12.2119,12.2119,12.2119,12.2119,12.2119,12.2119,12.2119,12.2119,12.2119,12.2119,12.2119,12.2119,12.2119,12.2119,12.2119,12.2119,12.2119,12.2119,12.2119,12.2119,12.2119,12.2119,12.2119,12.2119,12.2119,12.2119,12.2119,12.2119,12.2119,12.2119,12.2119,12.2119,12.2119,12.2119,12.2119,12.2119,12.2119,12.2119,12.2119,12.2119,12.2119,12.2119,12.2119,12.2119,12.2119,12.2155,12.2618,12.3974,12.5615,12.6442,12.6107,12.5638,12.4228,12.1972,12.0951,12.0529,12.0841,12.179,12.179,12.1284,12.1046,10.6522,10.5667,10.665,10.7273,10.7555,10.8076,10.8241,10.8241,10.8241,10.8241,10.8577,11.004,11.1728,11.3406,11.4926,11.6571,11.7945,11.7197,11.6226,11.5029,11.3766,11.3156,11.279,11.2701,11.2701,11.2701,11.2701,11.3057,11.3771,11.6054,11.6875,11.6839,12.0085,12.1227,12.0014,12.1263,12.2119,12.2119,12.2119,12.2119,12.2119,12.2119,12.2547,12.3567,12.4635,12.5659,12.6382,12.5996,12.5161,12.4241,12.3481,12.2697,12.2083,12.2119,12.2119,12.2119,12.2119,12.2119,12.2119,12.2119,12.2119,12.2119,12.2119,12.2119,12.2119,12.2119,12.2119,12.2119,12.2119,12.2119,12.2119,12.2119,12.2119,12.2119,12.2119,12.2119,12.2119,12.2119,12.2119,12.2119,12.2119,12.2119,12.2119,12.2119,12.2119,12.2119,12.2119,12.2119,12.2119,12.2119,12.2119,12.2119,12.2119,12.2119,12.2119,12.2119,12.2119,12.2119,12.2119,12.2119,12.219,12.3439,12.4474,12.5373,12.5713,12.5176,12.4637,12.2675,12.0845,11.9955,11.9421,12.0141,12.0458,12.0212,12.0106,10.5627,10.4766,10.5848,10.6615,10.7171,10.7687,10.8076,10.8278,10.8241,10.8241,10.8465,10.9479,11.0938,11.2621,11.4216,11.5648,11.6798,11.5728,11.4831,11.4062,11.3206,11.2701,11.2701,11.2701,11.2701,11.2701,11.2701,11.2736,11.3236,11.5376,11.5911,11.5412,11.8551,11.9907,11.9087,12.0549,12.1691,12.2012,12.2119,12.2119,12.2119,12.2119,12.2431,12.3167,12.416,12.4977,12.5516,12.5051,12.4557,12.4196,12.3481,12.2789,12.2276,12.2119,12.2119,12.2119,12.2119,12.2119,12.2119,12.2119,12.2119,12.2119,12.2119,12.2119,12.2119,12.2119,12.2119,12.2119,12.2119,12.2119,12.2119,12.2119,12.2119,12.2119,12.2119,12.2119,12.2119,12.2119,12.2119,12.2119,12.2119,12.2119,12.2119,12.2119,12.2119,12.2119,12.2119,12.2119,12.2119,12.2119,12.2119,12.2119,12.2119,12.2119,12.2119,12.2119,12.2119,12.2119,12.2119,12.2119,12.2262,12.2975,12.3796,12.4417,12.4583,12.4304,12.4012,12.2677,12.0772,11.9556,11.8524,11.8339,11.8795,11.8795,11.8717,10.4638,10.4527,10.4604,10.5647,10.6925,10.7171,10.7555,10.8199,10.8241,10.8241,10.8278,10.8353,10.9512,11.1007,11.2527,11.3607,11.3826,11.2905,11.2835,11.3638,11.3084,11.2701,11.2701,11.2701,11.2701,11.2701,11.2701,11.2701,11.2808,11.4413,11.452,11.3699,11.6268,11.7838,11.7445,11.898,12.0478,12.1441,12.1798,12.1905,12.2083,12.2083,12.218,12.224,12.3114,12.3652,12.37,12.3652,12.4033,12.4557,12.3255,12.218,12.1941,12.1665,12.1941,12.1727,12.1905,12.1941,12.1869,12.1834,12.1834,12.162,12.1941,12.1762,12.1548,12.162,12.1727,12.1798,12.1869,12.2048,12.2048,12.2119,12.2119,12.2119,12.2119,12.2119,12.2119,12.2119,12.2119,12.2119,12.2119,12.2119,12.2119,12.2119,12.2119,12.2119,12.2119,12.2119,12.2119,12.2119,12.2119,12.2119,12.2119,12.2119,12.2119,12.2119,12.2119,12.2119,12.2119,12.2119,12.2262,12.2369,12.3189,12.3617,12.3657,12.3657,12.332,12.1409,11.9806,11.8282,11.7624,11.692,11.692,11.6885,11.692,10.4854,10.3974,10.4314,10.5228,10.633,10.6872,10.7592,10.8241,10.8241,10.8241,10.8241,10.8241,10.9213,11.0671,11.0809,11.0651,11.0297,11.1391,11.1673,11.1651,11.2414,11.2701,11.2701,11.2701,11.2701,11.2701,11.2701,11.2701,11.2915,11.4342,11.4235,11.3022,11.584,11.6946,11.6268,11.741,11.8337,11.9015,11.9978,12.0489,12.0642,12.1487,12.2119,12.2083,12.2395,12.2583,12.2547,12.2547,12.2789,12.3025,12.3203,12.2357,12.056,11.9548,11.8907,11.898,11.8944,11.8944,11.9015,11.9943,12.005,11.9122,11.98,11.9978,11.9015,11.8908,11.9491,12.0179,12.0489,12.1013,12.1762,12.2048,12.2119,12.2119,12.2119,12.2119,12.2119,12.2083,12.2048,12.2083,12.2119,12.2119,12.2119,12.2119,12.2119,12.2119,12.2119,12.2119,12.2119,12.2119,12.2119,12.2119,12.2119,12.2119,12.2119,12.2119,12.2119,12.2119,12.2119,12.2119,12.2155,12.2155,12.244,12.2725,12.2904,12.2868,12.1887,11.9955,11.8212,11.6518,11.5802,11.5325,11.5196,11.497,11.5066,10.4676,10.3507,10.3964,10.4642,10.5528,10.633,10.7171,10.7862,10.8156,10.8241,10.8241,10.8241,10.8839,10.9806,10.8786,10.8399,10.8692,10.9826,11.042,11.0683,11.2058,11.2451,11.2058,11.2486,11.2701,11.2701,11.2701,11.2701,11.2879,11.3735,11.3699,11.3271,11.4805,11.559,11.5376,11.609,11.6931,11.7452,11.836,11.917,11.9797,12.0703,12.1227,12.1263,12.1227,12.1513,12.2083,12.1513,12.1383,12.1779,12.1442,12.0756,11.9481,11.8167,11.7377,11.7352,11.741,11.741,11.7517,11.8373,11.8444,11.7624,11.8373,11.8502,11.7574,11.7467,11.7744,11.8813,11.9277,11.9729,12.0407,12.0407,12.0621,12.1013,12.0763,12.0692,12.1655,12.1584,12.1513,12.1976,12.2119,12.2119,12.2119,12.2119,12.2119,12.2119,12.2119,12.2119,12.2119,12.2119,12.2119,12.2119,12.2119,12.2119,12.2119,12.2119,12.2119,12.2119,12.2119,12.2119,12.2119,12.2119,12.2119,12.244,12.2369,12.2369,12.211,12.0176,11.7992,11.6236,11.4076,11.3872,11.3839,11.3736,11.36,10.4149,10.346,10.3425,10.3887,10.4678,10.5528,10.633,10.7222,10.7862,10.8241,10.8278,10.8241,10.8236,10.8182,10.6823,10.7143,10.8772,10.834,10.8791,11.0275,11.1809,11.1844,11.056,11.1951,11.2665,11.2451,11.2594,11.2665,11.2522,11.2736,11.2701,11.2736,11.2915,11.3592,11.4698,11.4948,11.5737,11.674,11.7186,11.7945,11.9252,11.9384,11.9443,11.9622,11.9622,12.0264,12.1405,12.0407,12.011,12.1106,11.9052,11.802,11.8608,11.7867,11.7217,11.7053,11.7089,11.7089,11.7017,11.7196,11.716,11.7089,11.7124,11.7181,11.6812,11.6773,11.6946,11.7338,11.8444,11.8658,11.7731,11.7838,11.8373,11.9372,11.8373,11.9015,12.1405,12.03,12.0442,12.1477,12.1798,12.1834,12.2083,12.2119,12.2119,12.2119,12.2119,12.2119,12.2119,12.2119,12.2119,12.2119,12.2119,12.2119,12.2119,12.2119,12.2119,12.2119,12.2119,12.2119,12.2119,12.2119,12.2119,12.2119,12.2119,12.1986,12.162,12.0282,11.7923,11.5861,11.3703,11.2762,11.3115,11.2621,11.2762,10.4149,10.3496,10.3425,10.3922,10.4606,10.4854,10.581,10.7031,10.7323,10.7733,10.8241,10.8241,10.7948,10.7336,10.6381,10.6509,10.7421,10.6756,10.7206,10.8741,11.0346,11.0845,11.0631,11.2023,11.2112,11.1345,11.2112,11.2112,11.1238,11.2076,11.2701,11.2701,11.2701,11.295,11.3343,11.3378,11.3647,11.4165,11.5182,11.589,11.6238,11.6389,11.6946,11.7945,11.8088,11.823,11.8694,11.8266,11.8203,11.8497,11.856,11.7843,11.6352,11.6616,11.5991,11.4343,11.4021,11.4021,11.4021,11.5091,11.5269,11.427,11.5162,11.5198,11.4254,11.4039,11.4464,11.5477,11.6069,11.6304,11.5911,11.6768,11.7517,11.7945,11.7731,11.766,11.8587,11.8409,11.8658,12.0085,12.0371,12.0763,12.1762,12.1976,12.1941,12.1976,12.2048,12.2119,12.2119,12.2119,12.2119,12.2119,12.2119,12.2119,12.2119,12.2119,12.2119,12.2119,12.2119,12.2119,12.2119,12.2119,12.2119,12.2119,12.2119,12.1853,12.0908,11.9276,11.7128,11.5291,11.3703,11.2654,11.2513,11.2513,11.2513,10.3817,10.3425,10.3425,10.3642,10.4123,10.4497,10.5397,10.6652,10.7015,10.7555,10.8156,10.7555,10.6856,10.6032,10.5609,10.5801,10.6422,10.597,10.6243,10.7206,10.8741,10.9454,10.9632,11.1024,11.1327,11.0543,11.1327,11.0953,10.9974,11.1042,11.213,11.2665,11.2701,11.2701,11.2701,11.2701,11.2701,11.2772,11.3664,11.4108,11.4088,11.4108,11.4877,11.6268,11.6482,11.6732,11.7267,11.6803,11.6482,11.6447,11.6451,11.5676,11.4165,11.4706,11.4095,11.2058,11.1809,11.1773,11.1809,11.3236,11.3771,11.2843,11.3592,11.3771,11.2808,11.2701,11.2753,11.3304,11.3787,11.4128,11.4199,11.4912,11.5769,11.6304,11.584,11.6054,11.716,11.6875,11.7089,11.8516,11.8765,11.9158,11.9943,12.0157,12.0442,12.1049,12.1762,12.2083,12.2119,12.2119,12.2119,12.2119,12.2119,12.2119,12.2119,12.2119,12.2119,12.2119,12.2119,12.2119,12.2119,12.2119,12.2119,12.2119,12.2119,12.152,11.9964,11.8454,11.692,11.5196,11.3736,11.2513,11.2513,11.2513,11.2513,10.3425,10.3425,10.3425,10.3425,10.3471,10.3982,10.4669,10.5553,10.6338,10.7013,10.7193,10.6097,10.5044,10.4418,10.4352,10.4919,10.5708,10.5601,10.5601,10.5958,10.7206,10.7849,10.7956,10.949,11.0115,10.9867,11.0115,10.9493,10.8302,10.9528,11.0988,11.2379,11.2379,11.2272,11.2486,11.2486,11.2558,11.2701,11.2594,11.2594,11.2701,11.2701,11.3414,11.4877,11.4912,11.5555,11.6696,11.5575,11.4718,11.4556,11.3272,11.2414,11.2272,11.2272,11.1684,11.033,11.0222,11.0203,11.031,11.1523,11.2237,11.2308,11.2201,11.2201,11.2165,11.2201,11.1648,11.0793,11.1541,11.213,11.2308,11.2272,11.2915,11.4199,11.32,11.3557,11.5911,11.5626,11.5376,11.6982,11.7196,11.7303,11.7695,11.7802,11.8195,11.9372,12.0692,12.1691,12.2012,12.2119,12.2119,12.2119,12.2119,12.2119,12.2119,12.2119,12.2119,12.2119,12.2119,12.2119,12.2119,12.2119,12.2119,12.1986,12.1986,12.1046,11.964,11.819,11.6552,11.4707,11.3496,11.2513,11.2513,11.2513,11.2513,10.3425,10.3425,10.3425,10.3425,10.3318,10.231,10.2397,10.3071,10.32,10.3066,10.2748,10.2328,10.2369,10.2768,10.2798,10.3874,10.5399,10.4495,10.4602,10.5708,10.61,10.6279,10.6422,10.7849,10.7941,10.6984,10.8048,10.8455,10.8155,10.8455,10.9383,11.0667,10.9704,10.9739,11.0881,11.0952,11.1559,11.2594,11.1576,11.154,11.2665,11.2701,11.2879,11.3236,11.3271,11.3414,11.3789,11.2873,11.2131,11.1433,11.0594,10.9739,10.9148,10.9117,10.8942,10.8622,10.8602,10.8562,10.8633,10.8919,10.9097,10.9097,10.9097,10.9133,10.9097,10.9133,10.8975,10.8711,10.8923,10.9169,10.9276,10.9204,10.9775,11.1166,11.0061,11.056,11.3057,11.2415,11.2486,11.5055,11.5626,11.6054,11.7089,11.741,11.7481,11.7981,11.9265,12.0763,12.1834,12.2119,12.2119,12.2119,12.2119,12.2119,12.2119,12.2119,12.2119,12.2119,12.2119,12.2119,12.2119,12.2119,12.2119,12.1986,12.1147,11.9856,11.8259,11.6675,11.5066,11.36,11.2869,11.2513,11.2513,11.2513,11.2513,10.2333,10.2262,10.1575,10.13,10.1249,10.0392,10.0476,10.1094,10.0055,9.9513,9.9405,9.9863,10.0199,10.0642,10.0652,10.1722,10.3532,10.2747,10.3211,10.4602,10.4709,10.5066,10.5779,10.6636,10.6515,10.5824,10.6671,10.6636,10.6065,10.6707,10.742,10.8205,10.817,10.8491,10.9276,10.9311,11.0096,11.1612,10.9224,10.8337,10.912,10.912,10.9084,10.9084,10.9759,11.0259,11.0647,11.0157,10.9892,10.9906,10.9502,10.9008,10.8356,10.7674,10.6857,10.5988,10.5303,10.4852,10.4852,10.4852,10.5458,10.6885,10.767,10.6957,10.4067,10.4424,10.5147,10.5834,10.6643,10.7242,10.7991,10.8063,10.8384,10.924,10.8598,10.8776,11.0168,10.9775,11.031,11.2486,11.295,11.3557,11.5091,11.5305,11.5483,11.6304,11.6982,11.848,12.0621,12.0977,12.1013,12.1084,12.1655,12.2012,12.2119,12.2119,12.2119,12.2119,12.2119,12.2119,12.2119,12.2119,12.2119,12.1986,12.0805,11.9276,11.7674,11.6054,11.4443,11.2976,11.2513,11.2513,11.2513,11.2513,11.2513,10.0745,10.0603,9.9348,9.8754,9.8787,9.8787,9.9037,9.9221,9.7063,9.6346,9.6949,9.7708,9.8187,9.843,9.838,9.9314,10.0713,10.0749,10.157,10.3104,10.3104,10.3924,10.5387,10.5423,10.5458,10.5374,10.5423,10.4816,10.3996,10.4887,10.553,10.5886,10.685,10.7385,10.742,10.7599,10.8384,10.9474,10.6526,10.5091,10.541,10.5268,10.4985,10.4631,10.6278,10.7307,10.7434,10.7758,10.7943,10.7687,10.7477,10.7167,10.6707,10.4956,10.3758,10.2818,10.1382,10.0633,10.0669,10.0669,10.181,10.4531,10.5993,10.4388,9.8965,9.9821,10.1346,10.2617,10.3865,10.5351,10.6529,10.6529,10.6493,10.6885,10.7028,10.7278,10.7742,10.7742,10.8384,11.0025,11.0096,11.0738,11.2237,11.2522,11.3093,11.4413,11.5305,11.6125,11.8302,11.9087,11.9158,11.9515,12.0585,12.1441,12.1513,12.1727,12.1762,12.2048,12.2119,12.2119,12.2119,12.2119,12.2119,12.2119,12.0493,11.8942,11.764,11.5929,11.4076,11.2869,11.2513,11.2513,11.2513,11.1987,11.1756,9.9135,9.9119,9.8843,9.878,9.8787,9.8787,9.808,9.6914,9.5116,0.0,0.0,9.4652,9.554,9.6819,9.6855,9.7639,9.9144,9.9179,10.0,10.1463,10.1498,10.2319,10.3817,10.3853,10.3853,10.3889,10.3853,10.4352,10.5232,10.4317,10.4495,10.5565,10.4709,10.4245,10.4352,10.553,10.6095,10.5888,10.5304,10.5818,10.7468,10.7554,10.613,10.3264,10.659,10.684,10.3393,10.652,10.5872,10.0629,9.9118,9.8144,9.7271,9.5191,9.5598,9.8985,9.8546,9.8204,9.8521,9.8521,9.9003,9.9964,10.025,9.9294,9.6767,9.8115,9.9286,9.9528,9.9778,10.0107,10.0392,10.0392,10.0892,10.2176,10.2283,10.3389,10.5708,10.6172,10.66,10.8134,10.8384,10.9062,11.056,11.0845,11.1416,11.2915,11.4199,11.5412,11.5804,11.6125,11.6482,11.7624,11.8302,11.8837,11.9764,12.0157,12.0656,12.1655,12.1941,12.2119,12.2119,12.2119,12.2119,12.1834,11.964,11.7888,11.7248,11.4898,11.3009,11.2654,11.2513,11.2513,11.2315,11.0704,10.9225,9.7532,9.7544,9.6646,9.629,0.0,9.629,9.5826,9.5152,9.4625,9.4479,9.4479,9.4085,9.4399,9.5108,9.5108,9.604,9.7538,9.7574,9.8394,9.9857,9.9893,10.0285,10.1034,10.107,10.1498,10.2212,10.2247,10.3068,10.4412,10.3817,10.3651,10.4195,10.3412,10.2497,10.1618,10.3,10.3676,10.3344,10.2863,10.3071,10.4063,10.4095,10.3243,10.1568,10.4102,0.0,0.0,0.0,0.0,0.0,0.0,0.0,0.0,9.2543,0.0,9.1754,8.672,8.4109,8.5135,8.5136,8.6912,9.1078,9.136,8.9901,8.659,9.1757,9.438,9.2962,9.5773,9.7895,9.8644,9.8787,9.9072,9.9786,9.9893,10.0428,10.1891,10.2212,10.3139,10.5209,10.5708,10.6636,10.8919,10.9882,11.0774,11.1523,11.2915,11.4163,11.4841,11.4449,11.4484,11.5983,11.6839,11.7695,11.8409,11.8551,11.8872,11.9479,11.9729,11.9729,11.9764,11.9729,11.9729,11.9502,11.722,11.5165,11.493,11.2557,11.0375,11.0375,11.0375,11.0375,11.031,10.929,10.8304,9.5945,9.5837,9.4473,9.3935,9.3864,9.3578,9.3471,9.3545,9.4474,9.4818,9.4751,9.4195,9.3935,9.3935,9.3935,9.4613,9.5897,9.5897,9.6753,9.8323,9.8287,9.8466,9.8751,9.8751,9.9358,10.0535,10.0642,10.1356,10.2487,10.2569,10.2333,10.188,10.188,10.1128,9.9725,0.0,0.0,0.0,10.064,10.0767,10.0909,10.0789,10.0385,9.9819,10.1618,0.0,10.3376,10.3917,10.4448,10.475,10.3227,0.0,0.0,0.0,0.0,0.0,0.0,0.0,0.0,0.0,0.0,0.0,8.0068,7.8867,7.6658,8.3789,8.7537,8.5192,9.1552,9.6111,9.6504,9.7288,9.7824,9.7859,9.8145,9.8323,9.8323,9.8644,9.9679,10.2247,10.2818,10.4067,10.6707,10.8562,10.9597,10.9989,11.1345,11.2736,11.3985,11.3022,11.295,11.4377,11.5555,11.6518,11.691,11.7017,11.7089,11.741,11.741,11.7481,11.7588,11.7552,11.7481,11.7423,11.4944,11.3032,11.3032,11.0407,10.8468,10.8337,10.837,10.7975,10.689,10.6825,10.7055,9.4185,9.4185,9.4006,9.3935,9.3792,9.2472,9.1828,9.1973,9.344,9.4012,9.4012,9.3974,9.3935,9.3935,9.3935,9.4042,9.422,9.422,9.5112,9.6646,9.6682,9.7431,9.8751,9.8722,9.8836,9.905,9.9029,9.9128,9.9341,9.9314,9.9358,9.9243,9.9243,9.922,9.8913,9.6034,9.5129,9.624,10.027,10.2568,10.2975,10.2975,10.1539,9.8687,10.2032,10.2167,9.8676,10.1782,10.1519,9.6785,9.4925,9.4065,9.3884,8.8239,8.3856,0.0,7.7299,0.0,0.0,0.0,0.0,0.0,0.0,0.0,0.0,7.6661,7.8355,7.6818,8.7321,9.2615,8.8762,9.2115,9.4506,9.4541,9.579,9.6682,9.6718,9.7931,9.893,9.9322,10.0535,10.1998,10.3853,10.5387,10.6921,10.8205,10.9597,11.0489,11.0917,11.081,11.1238,11.2808,11.3236,11.3985,11.5091,11.5412,11.5804,11.7017,11.7053,11.741,11.7089,11.7124,11.7231,11.6973,11.4559,11.2837,11.2929,11.0272,10.8309,10.7975,10.7844,10.6364,10.2484,10.2024,10.2452,9.3935,9.3864,9.293,9.2113,9.1188,8.9654,8.9475,9.0296,9.101,9.1295,9.1295,9.1331,9.1295,9.1295,9.1294,9.1757,9.2579,9.2615,9.3507,9.497,9.5005,9.5398,9.604,9.608,9.658,9.7431,9.7461,9.7917,9.8772,9.878,9.8558,9.8318,9.7565,9.4357,8.9028,9.1336,9.3935,9.6332,9.8938,10.131,10.3307,10.3425,10.2701,10.1183,10.2882,10.2774,10.0812,10.2094,10.1852,9.9712,9.7635,9.5996,9.4768,8.327,7.7283,0.0,0.0,0.0,0.0,0.0,0.0,0.0,0.0,0.0,0.0,0.0,6.7878,7.3273,8.5172,8.9297,8.1199,8.5408,8.8369,8.7513,8.6514,8.7977,9.3186,9.2795,9.3547,9.7003,9.8073,9.9429,10.1819,10.3496,10.503,10.6564,10.6636,10.6444,10.6257,10.789,10.9545,11.0738,11.1238,11.1987,11.3557,11.3806,11.3771,11.3592,11.3521,11.3236,11.2379,11.1621,11.14,11.1967,11.0498,10.9109,10.8964,10.7215,10.556,10.4883,10.403,10.255,10.0117,10.0051,10.0512,9.2755,9.2467,8.8686,8.6841,8.6336,8.5194,8.5765,8.7549,8.7941,8.8084,8.812,8.812,8.7511,8.6401,8.5593,8.6554,8.8833,8.9119,9.0545,9.2758,9.3186,9.3328,9.3364,9.3757,9.4613,9.5714,9.5103,9.5744,9.7489,9.6427,9.5311,9.4139,9.2747,8.7957,8.0461,8.5732,9.108,9.6097,9.6698,9.8888,10.2701,10.3246,10.3425,10.3425,10.3068,10.2851,10.2866,10.1731,10.1486,10.2123,9.8737,9.5787,9.3547,7.811,0.0,0.0,0.0,0.0,0.0,0.0,0.0,0.0,0.0,5.468,4.4511,0.0,5.9279,0.0,8.1027,8.5159,7.7667,8.0842,0.0,0.0,7.7988,7.8737,8.5765,8.5758,8.7398,9.301,9.4894,9.6812,9.9643,10.1356,10.2747,10.3889,10.3068,10.2405,10.2852,10.5205,10.7305,10.8726,10.9278,10.992,11.0987,11.1362,11.1114,11.0061,10.9882,10.9454,10.8277,10.7037,10.6448,10.7324,10.6252,10.5178,10.5022,10.3932,10.2263,10.013,9.8473,9.7585,9.798,9.8276,9.8605,8.9581,8.8681,7.8605,7.5951,7.8452,7.8345,7.9986,8.2875,8.4267,8.4909,8.4909,8.4909,8.2499,7.8315,7.5216,0.0,8.0913,8.204,8.5096,8.9654,9.1117,9.1794,9.1866,9.3221,9.3971,9.4042,9.1176,9.1318,9.3931,8.9865,8.613,8.3181,8.1457,7.9897,7.8435,7.8748,8.3637,9.2928,9.3178,9.5872,10.1097,10.2676,10.3425,10.3425,10.2033,10.1257,10.1244,9.901,9.8085,9.8668,9.2081,8.7037,8.4152,0.0,0.0,0.0,0.0,0.0,0.0,0.0,0.0,0.0,0.0,0.0,0.0,0.0,0.0,6.1376,7.2137,0.0,8.1484,8.0842,0.0,0.0,0.0,7.1388,7.2137,7.711,8.1756,8.5087,0.0,0.0,9.6575,9.8145,9.9179,9.9322,9.9179,10.0178,10.295,10.3115,10.4134,10.697,10.7229,10.7058,10.7597,10.7624,10.7805,10.8175,10.8241,10.8063,10.762,10.6593,10.6119,10.5838,10.4019,10.2113,10.2181,10.0728,9.8597,9.4692,9.2851,9.2193,9.3607,9.4758,9.5941,8.1613,7.5878,6.9754,6.8939,7.1673,7.0817,7.2743,7.6668,7.8238,7.7274,7.461,7.5692,7.2438,6.6136,6.5713,0.0,0.0,0.0,7.699,8.3625,8.5058,8.7302,9.0118,9.0795,9.1081,9.1045,8.9826,8.9828,9.1043,8.9119,8.0298,6.5173,0.0,6.7526,6.464,7.2566,8.0231,8.7205,9.0862,9.5438,10.0898,10.1692,10.1942,10.2033,10.1391,10.0421,9.8866,9.6528,9.4186,9.1759,8.5687,7.9097,0.0,0.0,0.0,0.0,0.0,0.0,0.0,0.0,0.0,0.0,0.0,4.0207,3.4356,0.0,0.0,0.0,5.3769,5.8379,6.3346,6.9318,0.0,0.0,0.0,0.0,0.0,0.0,0.0,7.5479,8.2409,8.7784,9.0402,9.2865,9.4791,9.5719,9.6682,9.7674,9.8566,0.0,10.0909,10.4028,10.417,10.4625,10.6699,10.4773,10.3924,10.6774,10.5924,10.4044,10.1486,10.002,9.9421,9.9333,9.8621,9.7881,9.7805,9.5962,9.3706,9.216,9.1338,9.1141,9.1667,9.2259,9.2785,7.1024,0.0,0.0,0.0,0.0,6.2183,6.4145,6.8213,6.8909,6.7267,6.4161,6.4917,0.0,0.0,0.0,0.0,0.0,0.0,6.9501,7.65,8.0256,8.3566,8.6481,8.6942,8.7335,8.7622,8.6343,8.5455,8.4877,8.149,7.0012,5.1596,0.0,0.0,0.0,0.0,7.6218,8.3167,8.9057,9.4462,9.9688,9.9739,9.9927,10.0392,9.9964,9.8667,9.6416,9.3049,8.9274,8.4992,7.7052,0.0,0.0,0.0,0.0,0.0,0.0,0.0,0.0,0.0,0.0,0.0,0.0,0.0,0.0,0.0,0.0,0.0,0.0,0.0,5.1261,6.0007,6.3218,0.0,0.0,0.0,0.0,0.0,0.0,0.0,0.0,0.0,8.2061,8.6086,8.9975,0.0,0.0,9.525,9.5752,9.6701,9.8251,10.0909,10.0991,0.0,10.3411,10.129,10.0304,10.3038,10.228,9.9663,9.493,9.4096,9.3668,9.2327,9.3164,9.3425,9.1743,8.8659,8.6228,8.6195,8.6195,8.6393,8.7381,8.8853,8.9957,0.0,0.0,0.0,0.0,5.2188,0.0,0.0,0.0,5.5615,5.4983,0.0,5.3403,0.0,0.0,0.0,0.0,5.0303,5.7278,0.0,0.0,7.7498,8.1419,8.0107,8.1441,8.287,8.3815,7.9243,7.6238,7.4125,6.2964,0.0,0.0,0.0,0.0,0.0,0.0,7.0715,8.1396,8.7398,9.2352,9.6414,9.6665,9.7339,9.8787,9.7396,9.5759,9.3867,8.8047,8.3056,7.9203,6.5445,0.0,0.0,0.0,0.0,0.0,0.0,0.0,0.0,0.0,0.0,0.0,0.0,0.0,0.0,0.0,0.0,0.0,0.0,0.0,0.0,5.6118,0.0,0.0,0.0,0.0,0.0,0.0,0.0,0.0,0.0,7.4217,7.1536,7.7809,8.4766,9.0795,0.0,0.0,0.0,0.0,9.6256,9.7932,9.7692,9.6893,9.5627,9.6521,9.7043,9.6174,0.0,0.0,9.0036,9.0732,9.0576,8.6138,8.8391,8.9313,8.3624,7.8247,7.4962,7.4953,7.5053,7.5723,7.8473,8.2474,8.6811,0.0,0.0,0.0,0.0,0.0,0.0,0.0,0.0,0.0,4.7776,4.502,4.5484,0.0,0.0,0.0,0.0,0.0,0.0,0.0,0.0,6.314,6.7491,7.0597,7.2712,7.2609,7.0449,6.7798,6.1832,0.0,0.0,0.0,0.0,0.0,0.0,0.0,0.0,6.764,7.5924,8.5352,9.223,9.6193,9.6399,9.7154,9.868,9.7217,9.2758,8.5052,7.979,7.4948,0.0,0.0,0.0,0.0,0.0,0.0,0.0,0.0,0.0,0.0,0.0,0.0,0.0,0.0,0.0,0.0,0.0,0.0,0.0,0.0,0.0,0.0,0.0,5.3057,0.0,0.0,0.0,0.0,0.0,0.0,0.0,0.0,0.0,6.2982,7.2351,8.1127,8.6336,8.9618,9.2365,9.447,0.0,0.0,0.0,0.0,0.0,0.0,0.0,8.862,8.9653,8.4743,8.0539,8.047,8.1901,8.2347,7.9899,0.0,0.0,7.0913,6.7364,6.6074,6.5996,6.6875,6.7811,6.8683,7.179,7.4697,0.0,0.0,0.0,0.0,0.0,0.0,0.0,0.0,0.0,4.0588,3.7678,0.0,0.0,0.0,0.0,0.0,0.0,0.0,0.0,0.0,0.0,0.0,6.098,6.3053,0.0,0.0,0.0,0.0,0.0,0.0,0.0,0.0,0.0,0.0,0.0,0.0,6.4746,7.2982,8.3841,9.1497,9.5453,9.5601,9.6029,9.711,9.6111,9.0902,8.102,0.0,0.0,0.0,0.0,0.0,0.0,0.0,0.0,0.0,0.0,0.0,0.0,0.0,0.0,0.0,0.0,0.0,0.0,0.0,0.0,0.0,0.0,0.0,0.0,0.0,4.8983,0.0,0.0,0.0,0.0,0.0,0.0,0.0,0.0,0.0,0.0,6.6143,7.4527,8.1306,8.5801,8.9582,9.2722,9.3318,9.3953,0.0,0.0,0.0,0.0,0.0,0.0,0.0,0.0,0.0,0.0,0.0,0.0,0.0,0.0,7.1093,6.2053,5.8899,5.7446,5.6845,0.0,0.0,0.0,0.0,0.0,0.0,0.0,0.0,0.0,0.0,0.0,0.0,0.0,0.0,0.0,3.2906,0.0,0.0,2.8528,0.0,0.0,0.0,0.0,0.0,0.0,0.0,0.0,0.0,0.0,0.0,0.0,0.0,0.0,0.0,0.0,0.0,0.0,0.0,0.0,0.0,0.0,6.2127,7.2749,8.2961,9.0016,9.3789,9.3935,9.3971,9.4042,9.3935,9.0189,8.2198,0.0,0.0,0.0,0.0,0.0,0.0,0.0,0.0,0.0,0.0,0.0,0.0,0.0,0.0,0.0,0.0,0.0,0.0,0.0,0.0,0.0,0.0,0.0,0.0,0.0,0.0,4.7413,5.1302,5.2281,0.0,0.0,0.0,0.0,0.0,0.0,0.0,0.0,0.0,7.5919,8.02,8.4552,9.0653,9.2793,9.3721,9.3828,9.3792,9.3218,9.1864,9.2277,9.0564,0.0,0.0,0.0,0.0,0.0,0.0,0.0,0.0,0.0,0.0,0.0,0.0,0.0,0.0,0.0,0.0,0.0,0.0,0.0,0.0,0.0,0.0,0.0,0.0,0.0,0.0,0.0,0.0,0.0,0.0,0.0,0.0,0.0,0.0,0.0,0.0,0.0,0.0,0.0,0.0,0.0,0.0,0.0,0.0,0.0,0.0,0.0,0.0,0.0,0.0,0.0,0.0,0.0,0.0,6.3606,7.1735,8.3334,9.0817,9.3864,9.3935,9.3935,9.3935,9.3935,8.9225,0.0,0.0,0.0,0.0,0.0,0.0,0.0,0.0,0.0,0.0,0.0,0.0,0.0,0.0,0.0,0.0,0.0,0.0,0.0,0.0,0.0,0.0,0.0,0.0,0.0,0.0,0.0,0.0,5.3193,5.2664,4.9208,0.0,0.0,0.0,0.0,0.0,0.0,0.0,0.0,0.0,0.0,8.4088,8.919,9.0296,9.0901,9.1709,9.1185,9.0686,9.069,8.8648,8.5314,8.0363,0.0,0.0,0.0,0.0,0.0,0.0,0.0,0.0,0.0,0.0,0.0,0.0,0.0,0.0,0.0,0.0,0.0,0.0,0.0,0.0,0.0,0.0,0.0,0.0,0.0,0.0,0.0,0.0,0.0,0.0,0.0,0.0,0.0,0.0,0.0,0.0,0.0,0.0,0.0,0.0,0.0,0.0,0.0,0.0,0.0,0.0,0.0,0.0,0.0,0.0,0.0,0.0,0.0,6.3324,7.1507,8.3012,9.0572,9.3757,9.3935,9.3935,9.3935,9.3513,8.7318,0.0,0.0,0.0,0.0,0.0,0.0,0.0,0.0,0.0,0.0,0.0,0.0,0.0,0.0,0.0,0.0,0.0,0.0,0.0,0.0,0.0,0.0,0.0,0.0,0.0,0.0,0.0,0.0,4.8489,4.9099,4.7811,0.0,0.0,0.0,0.0,0.0,0.0,0.0,0.0,0.0,0.0,8.0342,8.498,8.6657,0.0,0.0,8.83,8.773,8.8779,8.7408,8.3747,7.6446,7.0506,0.0,0.0,0.0,0.0,0.0,0.0,0.0,0.0,0.0,0.0,0.0,0.0,0.0,0.0,0.0,0.0,0.0,0.0,0.0,0.0,0.0,0.0,0.0,0.0,0.0,0.0,0.0,0.0,0.0,0.0,0.0,0.0,0.0,0.0,0.0,0.0,0.0,0.0,0.0,0.0,0.0,0.0,0.0,0.0,0.0,0.0,0.0,0.0,0.0,0.0,0.0,0.0,6.1903,7.1434,8.2198,8.9751,9.3575,9.3864,9.3935,9.3899,9.276,8.4664,0.0,0.0,0.0,0.0,0.0,0.0,0.0,0.0,0.0,0.0,0.0,0.0,0.0,0.0,0.0,0.0,0.0,0.0,0.0,0.0,0.0,0.0,0.0,0.0,0.0,0.0,0.0,0.0,0.0,0.0,0.0,0.0,0.0,0.0,0.0,0.0,0.0,0.0,0.0,0.0,0.0,7.4456,7.9272,8.2305,8.4556,0.0,8.502,8.4556,8.5986,8.748,8.4485,7.2379,0.0,0.0,0.0,0.0,0.0,0.0,0.0,0.0,0.0,0.0,0.0,0.0,0.0,0.0,0.0,0.0,0.0,0.0,0.0,0.0,0.0,0.0,0.0,0.0,0.0,0.0,0.0,0.0,0.0,0.0,0.0,0.0,0.0,0.0,0.0,0.0,0.0,0.0,0.0,0.0,0.0,0.0,0.0,0.0,0.0,0.0,0.0,0.0,0.0,0.0,0.0,0.0,0.0,0.0,6.8926,8.1989,8.9937,9.2072,9.3325,9.3935,9.3864,9.1717,0.0,0.0,0.0,0.0,0.0,0.0,0.0,0.0,0.0,0.0,0.0,0.0,0.0,0.0,0.0,0.0,0.0,0.0,0.0,0.0,0.0,0.0,0.0,0.0,0.0,0.0,0.0,3.1359,0.0,0.0,0.0,0.0,0.0,0.0,0.0,0.0,0.0,0.0,0.0,0.0,0.0,0.0,7.3243,7.9094,7.9558,7.9715,0.0,0.0,7.9715,8.0947,8.1786,7.9886,0.0,0.0,0.0,0.0,0.0,0.0,0.0,0.0,0.0,0.0,0.0,0.0,0.0,0.0,0.0,0.0,0.0,0.0,0.0,0.0,0.0,0.0,0.0,0.0,0.0,0.0,0.0,0.0,0.0,0.0,0.0,0.0,0.0,0.0,0.0,0.0,0.0,0.0,0.0,0.0,0.0,0.0,0.0,0.0,0.0,0.0,0.0,0.0,0.0,0.0,0.0,0.0,0.0,0.0,6.0602,6.8014,7.8662,8.6583,9.1322,9.2392,9.3218,9.3864,9.0945,8.2152,0.0,0.0,0.0,0.0,0.0,0.0,0.0,0.0,0.0,0.0,0.0,0.0,0.0,0.0,0.0,0.0,0.0,0.0,0.0,0.0,0.0,0.0,0.0,0.0,0.0,0.0,0.0,0.0,0.0,0.0,0.0,0.0,0.0,0.0,0.0,0.0,0.0,0.0,0.0,0.0,0.0,0.0,7.5348,7.5098,0.0,0.0,0.0,7.4942,7.6189,0.0,0.0,0.0,0.0,0.0,0.0,0.0,0.0,0.0,0.0,0.0,0.0,0.0,0.0,0.0,0.0,0.0,0.0,0.0,0.0,0.0,0.0,0.0,0.0,0.0,0.0,0.0,0.0,0.0,0.0,0.0,0.0,0.0,0.0,0.0,0.0,0.0,0.0,0.0,0.0,0.0,0.0,0.0,0.0,0.0,0.0,0.0,0.0,0.0,0.0,0.0,0.0,0.0,0.0,0.0,0.0,0.0,6.7573,7.4768,8.2548,9.0791,9.1393,9.2253,9.3654,9.0323,8.1509,0.0,0.0,0.0,0.0,0.0,0.0,0.0,0.0,0.0,0.0,0.0,0.0,0.0,0.0,0.0,0.0,0.0,0.0,0.0,0.0,0.0,0.0,0.0,0.0,0.0,0.0,0.0,0.0,0.0,0.0,0.0,0.0,0.0,0.0,0.0,0.0,0.0,0.0,0.0,0.0,0.0,6.9711,7.046,7.021,6.9834,0.0,0.0,6.9976,7.1478,7.2413,0.0,0.0,0.0,0.0,0.0,0.0,0.0,0.0,0.0,0.0,0.0,0.0,0.0,0.0,0.0,0.0,0.0,0.0,0.0,0.0,0.0,0.0,0.0,0.0,0.0,0.0,0.0,0.0,0.0,0.0,0.0,0.0,0.0,0.0,0.0,0.0,0.0,0.0,0.0,0.0,0.0,0.0,0.0,0.0,0.0,0.0,0.0,0.0,0.0,0.0,0.0,0.0,0.0,0.0,0.0,0.0,6.628,7.7351,8.5266,8.9475,9.0937,9.2011,9.2911,9.016,8.1288,0.0,0.0,0.0,0.0,0.0,0.0,0.0,0.0,0.0,0.0,0.0,0.0,0.0,0.0,0.0,0.0,0.0,0.0,0.0,0.0,0.0,0.0,0.0,0.0,0.0,0.0,0.0,0.0,0.0,0.0,0.0,0.0,0.0,0.0,0.0,0.0,0.0,0.0,0.0,0.0,0.0,6.4788,6.9782,6.8355,0.0,0.0,0.0,0.0,6.6625,6.3168,0.0,0.0,0.0,0.0,0.0,0.0,0.0,0.0,0.0,0.0,0.0,0.0,0.0,0.0,0.0,0.0,0.0,0.0,0.0,0.0,0.0,0.0,0.0,0.0,0.0,0.0,0.0,0.0,0.0,0.0,0.0,0.0,0.0,0.0,0.0,0.0,0.0,0.0,0.0,0.0,0.0,0.0,0.0,0.0,0.0,0.0,0.0,0.0,0.0,0.0,0.0,0.0,0.0,0.0,0.0,0.0,6.7782,7.449,8.1112,8.7837,8.8869,8.9868,9.092,8.803,7.9486,0.0,0.0,0.0,0.0,0.0,0.0,0.0,0.0,0.0,0.0,0.0,0.0,0.0,0.0,0.0,0.0,0.0,0.0,0.0,0.0,0.0,0.0,0.0,0.0,0.0,0.0,0.0,0.0,0.0,0.0,0.0,0.0,0.0,0.0,0.0,0.0,0.0,0.0,0.0,0.0,5.9436,6.1398,6.5394,0.0,0.0,0.0,0.0,0.0,0.0,5.9508,5.6939,0.0,0.0,0.0,0.0,0.0,0.0,0.0,0.0,0.0,0.0,0.0,0.0,0.0,0.0,0.0,0.0,0.0,0.0,0.0,0.0,0.0,0.0,0.0,0.0,0.0,0.0,0.0,0.0,0.0,0.0,0.0,0.0,0.0,0.0,0.0,0.0,0.0,0.0,0.0,0.0,0.0,0.0,0.0,0.0,0.0,0.0,0.0,0.0,0.0,0.0,0.0,0.0,0.0,0.0,0.0,6.8356,7.0396,7.6134,8.5846,8.6628,8.7623,8.8998,8.5808,7.7477,6.4024,0.0,0.0,0.0,0.0,0.0,0.0,0.0,0.0,0.0,0.0,0.0,0.0,0.0,0.0,0.0,0.0,0.0,0.0,0.0,0.0,0.0,0.0,0.0,0.0,0.0,0.0,0.0,0.0,0.0,0.0,0.0,0.0,0.0,0.0,0.0,0.0,0.0,0.0,0.0,5.6261,5.8188,0.0,0.0,0.0,0.0,0.0,0.0,0.0,0.0,5.5432,0.0,0.0,0.0,0.0,0.0,0.0,0.0,0.0,0.0,0.0,0.0,0.0,0.0,0.0,0.0,0.0,0.0,0.0,0.0,0.0,0.0,0.0,0.0,0.0,0.0,0.0,0.0,0.0,0.0,0.0,0.0,0.0,0.0,0.0,0.0,0.0,0.0,0.0,0.0,0.0,0.0,0.0,0.0,0.0,0.0,0.0,0.0,0.0,0.0,0.0,0.0,0.0,0.0,0.0,0.0,0.0,6.9769,7.7266,8.2764,8.5561,8.7576,8.8938,8.5743,7.6745,6.1426,0.0,0.0,0.0,0.0,0.0,0.0,0.0,0.0,0.0,0.0,0.0,0.0,0.0,0.0,0.0,0.0,0.0,0.0,0.0,0.0,0.0,0.0,0.0,0.0,0.0,0.0,0.0,0.0,0.0,0.0,0.0,0.0,0.0,0.0,0.0,0.0,0.0,0.0,4.6022,5.0085,0.0,0.0,0.0,0.0,0.0,0.0,0.0,0.0,5.1373,0.0,0.0,0.0,0.0,0.0,0.0,0.0,0.0,0.0,0.0,0.0,0.0,0.0,0.0,0.0,0.0,0.0,0.0,0.0,0.0,0.0,0.0,0.0,0.0,0.0,0.0,0.0,0.0,0.0,0.0,0.0,0.0,0.0,0.0,0.0,0.0,0.0,0.0,0.0,0.0,0.0,0.0,0.0,0.0,0.0,0.0,0.0,0.0,0.0,0.0,0.0,0.0,0.0,0.0,0.0,0.0,0.0,0.0,7.6306,8.0888,8.4064,8.5751,8.5744,8.0706,7.2966,0.0,0.0,0.0,0.0,0.0,0.0,0.0,0.0,0.0,0.0,0.0,0.0,0.0,0.0,0.0,0.0,0.0,0.0,0.0,0.0,0.0,0.0,0.0,0.0,0.0,0.0,0.0,0.0,0.0,0.0,0.0,0.0,0.0,0.0,0.0,0.0,0.0,0.0,0.0,0.0,0.0,0.0,0.0,0.0,0.0,0.0,0.0,0.0,0.0,0.0,0.0,0.0,0.0,0.0,0.0,0.0,0.0,0.0,0.0,0.0,0.0,0.0,0.0,0.0,0.0,0.0,0.0,0.0,0.0,0.0,0.0,0.0,0.0,0.0,0.0,0.0,0.0,0.0,0.0,0.0,0.0,0.0,0.0,0.0,0.0,0.0,0.0,0.0,0.0,0.0,0.0,0.0,0.0,0.0,0.0,0.0,0.0,0.0,0.0,0.0,0.0,0.0,0.0,0.0,0.0,0.0,0.0,0.0,7.4194,7.8756,8.2376,8.3981,8.3393,7.5575,6.8076,0.0,0.0,0.0,0.0,0.0,0.0,0.0,0.0,0.0,0.0,0.0,0.0,0.0,0.0,0.0,0.0,0.0,0.0,0.0,0.0,0.0,0.0,0.0,0.0,0.0,0.0,0.0,0.0,0.0,0.0,0.0,0.0,0.0,0.0,0.0,0.0,0.0,0.0,0.0,0.0,0.0,0.0,0.0,0.0,0.0,0.0,0.0,0.0,5.041,0.0,0.0,0.0,0.0,0.0,0.0,0.0,0.0,0.0,0.0,0.0,0.0,0.0,0.0,0.0,0.0,0.0,0.0,0.0,0.0,0.0,0.0,0.0,0.0,0.0,0.0,0.0,0.0,0.0,0.0,0.0,0.0,0.0,0.0,0.0,0.0,0.0,0.0,0.0,0.0,0.0,0.0,0.0,0.0,0.0,0.0,0.0,0.0,0.0,0.0,0.0,0.0,0.0,0.0,0.0,0.0,0.0,0.0,0.0,7.086,7.5657,8.0674,8.3542,8.3743,7.3236,6.2817,0.0,0.0,0.0,0.0,0.0,0.0,0.0,0.0,0.0,0.0,0.0,0.0,0.0,0.0,0.0,0.0,0.0,0.0,0.0,0.0,0.0,0.0,0.0,0.0,0.0,0.0,0.0,0.0,0.0,0.0,0.0,0.0,0.0,0.0,0.0,0.0,0.0,0.0,0.0,0.0,0.0,0.0,0.0,0.0,0.0,0.0,0.0,0.0,0.0,0.0,0.0,0.0,0.0,0.0,0.0,0.0,0.0,0.0,0.0,0.0,0.0,0.0,0.0,0.0,0.0,0.0,0.0,0.0,0.0,0.0,0.0,0.0,0.0,0.0,0.0,0.0,0.0,0.0,0.0,0.0,0.0,0.0,0.0,0.0,0.0,0.0,0.0,0.0,0.0,0.0,0.0,0.0,0.0,0.0,0.0,0.0,0.0,0.0,0.0,0.0,0.0,0.0,0.0,0.0,0.0,0.0,0.0,0.0,6.7689,7.243,7.7432,7.9023,7.71,6.8016,5.9398,0.0,0.0,0.0,0.0,0.0,0.0,0.0,0.0,0.0,0.0,0.0,0.0,0.0,0.0,0.0,0.0,0.0,0.0,0.0,0.0,0.0,0.0,0.0,0.0,0.0,0.0,0.0,0.0,0.0,0.0,0.0,0.0,0.0,0.0,0.0,0.0,0.0,0.0,0.0,0.0,0.0,0.0,0.0,0.0,0.0,0.0,0.0,0.0,0.0,0.0,0.0,0.0,0.0,0.0,0.0,0.0,0.0,0.0,0.0,0.0,0.0,0.0,0.0,0.0,0.0,0.0,0.0,0.0,0.0,0.0,0.0,0.0,0.0,0.0,0.0,0.0,0.0,0.0,0.0,0.0,0.0,0.0,0.0,0.0,0.0,0.0,0.0,0.0,0.0,0.0,0.0,0.0,0.0,0.0,0.0,0.0,0.0,0.0,0.0,0.0,0.0,0.0,0.0,0.0,0.0,0.0,0.0,0.0,0.0,6.86,7.2863,7.3034,6.8691,6.1938,5.5086,0.0,0.0,0.0,0.0,0.0,0.0,0.0,0.0,0.0,0.0,0.0,0.0,0.0,0.0,0.0,0.0,0.0,0.0,0.0,0.0,0.0,0.0,0.0,0.0,0.0,0.0,0.0,0.0,0.0,0.0,0.0,0.0,0.0,0.0,0.0,0.0,0.0,0.0,0.0,0.0,0.0,0.0,0.0,0.0,0.0,0.0,0.0,0.0,0.0,0.0,0.0,0.0,0.0,0.0,0.0,0.0,0.0,0.0,0.0,0.0,0.0,0.0,0.0,0.0,0.0,0.0,0.0,0.0,0.0,0.0,0.0,0.0,0.0,0.0,0.0,0.0,0.0,0.0,0.0,0.0,0.0,0.0,0.0,0.0,0.0,0.0,0.0,0.0,0.0,0.0,0.0,0.0,0.0,0.0,0.0,0.0,0.0,0.0,0.0,0.0,0.0,0.0,0.0,0.0,0.0,0.0,0.0,0.0,0.0,6.3697,6.6903,6.5843,6.0369,5.5364,4.8597,0.0,0.0,0.0,0.0,0.0,0.0,0.0,0.0,0.0,0.0,0.0,0.0,0.0,0.0,0.0,0.0,0.0,0.0,0.0,0.0,0.0,0.0,0.0,0.0,0.0,0.0,0.0,0.0,0.0,0.0,0.0,0.0,0.0,0.0,0.0,0.0,0.0,0.0,0.0,0.0,0.0,0.0,0.0,0.0,0.0,0.0,0.0,0.0,0.0,0.0,0.0,0.0,0.0,0.0,0.0,0.0,0.0,0.0,0.0,0.0,0.0,0.0,0.0,0.0,0.0,0.0,0.0,0.0,0.0,0.0,0.0,0.0,0.0,0.0,0.0,0.0,0.0,0.0,0.0,0.0,0.0,0.0,0.0,0.0,0.0,0.0,0.0,0.0,0.0,0.0,0.0,0.0,0.0,0.0,0.0,0.0,0.0,0.0,0.0,0.0,0.0,0.0,0.0,0.0,0.0,0.0,0.0,0.0,0.0,5.1954,5.5702,5.6926,5.5112,4.9456,4.4512,4.0448,0.0,0.0,0.0,0.0,0.0,0.0,0.0,0.0,0.0,0.0,0.0,0.0,0.0,0.0,0.0,0.0,0.0,0.0,0.0,0.0,0.0,0.0,0.0,0.0,0.0,0.0,0.0,0.0,0.0,0.0,0.0,0.0,0.0,0.0,0.0,0.0,0.0,0.0,0.0,0.0,0.0,0.0,0.0,0.0,0.0,0.0,0.0,0.0,0.0,0.0,0.0,0.0,0.0,0.0,0.0,0.0,0.0,0.0,0.0,0.0,0.0,0.0,0.0,0.0,0.0,0.0,0.0,0.0,0.0,0.0,0.0,0.0,0.0,0.0,0.0,0.0,0.0,0.0,0.0,0.0,0.0,0.0,0.0,0.0,0.0,0.0,0.0,0.0,0.0,0.0,0.0,0.0,0.0,0.0,0.0,0.0,0.0,0.0,0.0,0.0,0.0,0.0,0.0,0.0,0.0,0.0,0.0,0.0,4.6349,5.1227,5.3195,5.1702,4.7489,4.3246,0.0,0.0,0.0,0.0,0.0,0.0,0.0,0.0,0.0,0.0,0.0,0.0,0.0,0.0,0.0,0.0,0.0,0.0,0.0,0.0,0.0,0.0,0.0,0.0,0.0,0.0,0.0,0.0,0.0,0.0,0.0,0.0,0.0,0.0,0.0,0.0,0.0,0.0,0.0,0.0,0.0,0.0,0.0,0.0,0.0,0.0,0.0,0.0,0.0,0.0,0.0,0.0,0.0,0.0,0.0,0.0,0.0,0.0,0.0,0.0,0.0,0.0,0.0,0.0,0.0,0.0,0.0,0.0,0.0,0.0,0.0,0.0,0.0,0.0,0.0,0.0,0.0,0.0,0.0,0.0,0.0,0.0,0.0,0.0,0.0,0.0,0.0,0.0,0.0,0.0,0.0,0.0,0.0,0.0,0.0,0.0,0.0,0.0,0.0,0.0,0.0,0.0,0.0,0.0,0.0,0.0,0.0,0.0,4.4752,4.9196,5.5023,5.5384,5.0469,4.981,4.4953,0.0,0.0,0.0,0.0,0.0,0.0,0.0,0.0,0.0,0.0,0.0,0.0,0.0,0.0,0.0,0.0,0.0,0.0,0.0,0.0,0.0,0.0,0.0,0.0,0.0,0.0,0.0,0.0,0.0,0.0,0.0,0.0,0.0,0.0,0.0,0.0,0.0,0.0,0.0,0.0,0.0,0.0,0.0,0.0,0.0,0.0,0.0,0.0,0.0,0.0,0.0,0.0,0.0,0.0,0.0,0.0,0.0,0.0,0.0,0.0,0.0,0.0,0.0,0.0,0.0,0.0,0.0,0.0,0.0,0.0,0.0,0.0,0.0,0.0,0.0,0.0,0.0,0.0,0.0,0.0,0.0,0.0,0.0,0.0,0.0,0.0,0.0,0.0,0.0,0.0,0.0,0.0,0.0,0.0,0.0,0.0,0.0,0.0,0.0,0.0,0.0,0.0,0.0,0.0,0.0,0.0,0.0,0.0,0.0,4.4702,0.0,4.9539,0.0,4.6042,4.1578,0.0,0.0,0.0,0.0,0.0,0.0,0.0,0.0,0.0,0.0,0.0,0.0,0.0,0.0,0.0,0.0,0.0,0.0,0.0,0.0,0.0,0.0,0.0,0.0,0.0,0.0,0.0,0.0,0.0,0.0,0.0,0.0,0.0,0.0,0.0,0.0,0.0,0.0,0.0,0.0,0.0,0.0,0.0,0.0,0.0,0.0,0.0,0.0,0.0,0.0,0.0,0.0,0.0,0.0,0.0,0.0,0.0,0.0,0.0,0.0,0.0,0.0,0.0,0.0,0.0,0.0,0.0,0.0,0.0,0.0,0.0,0.0,0.0,0.0,0.0,0.0,0.0,0.0,0.0,0.0,0.0,0.0,0.0,0.0,0.0,0.0,0.0,0.0,0.0,0.0,0.0,0.0,0.0,0.0,0.0,0.0,0.0,0.0,0.0,0.0,0.0,0.0,0.0,0.0,0.0,0.0,0.0,0.0,0.0,4.563,4.4631,4.6736,5.1949,4.6031,4.2324,0.0,0.0,0.0,0.0,0.0,0.0,0.0,0.0,0.0,0.0,0.0,0.0,0.0,0.0,0.0,0.0,0.0,0.0,0.0,0.0,0.0,0.0,0.0,0.0,0.0,0.0,0.0,0.0,0.0,0.0,0.0,0.0,0.0,0.0,0.0,0.0,0.0,0.0,0.0,0.0,0.0,0.0,0.0,0.0,0.0,0.0,0.0,0.0,0.0,0.0,0.0,0.0,0.0,0.0,0.0,0.0,0.0,0.0,0.0,0.0,0.0,0.0,0.0,0.0,0.0,0.0,0.0,0.0,0.0,0.0,0.0,0.0,0.0,0.0,0.0,0.0,0.0,0.0,0.0,0.0,0.0,0.0,0.0,0.0,0.0,0.0,0.0,0.0,0.0,0.0,0.0,0.0,0.0,0.0,0.0,0.0,0.0,0.0,0.0,0.0,0.0,0.0,0.0,0.0,0.0,0.0,0.0,0.0,0.0,5.0945,4.8623,4.7456,4.7929,4.9206,4.6583,0.0,0.0,0.0,0.0,0.0,0.0,0.0,0.0,0.0,0.0,0.0,0.0,0.0,0.0,0.0,0.0,0.0,0.0,0.0,0.0,0.0,0.0,0.0,0.0,0.0,0.0,0.0,0.0,0.0,0.0,0.0,0.0,0.0,0.0,0.0,0.0,0.0,0.0,0.0,0.0,0.0,0.0,0.0,0.0,0.0,0.0,0.0,0.0,0.0,0.0,0.0,0.0,0.0,0.0,0.0,0.0,0.0,0.0,0.0,0.0,0.0,0.0,0.0,0.0,0.0,0.0,0.0,0.0,0.0,0.0,0.0,0.0,0.0,0.0,0.0,0.0,0.0,0.0,0.0,0.0,0.0,0.0,0.0,0.0,0.0,0.0,0.0,0.0,0.0,0.0,0.0,0.0,0.0,0.0,0.0,0.0,0.0,0.0,0.0,0.0,0.0,0.0,0.0,0.0,0.0,0.0,0.0,0.0,0.0,0.0,4.9136,4.948,4.7623,4.6035,4.4438,4.2588,0.0,0.0,0.0,0.0,0.0,0.0,0.0,0.0,0.0,0.0,0.0,0.0,0.0,0.0,0.0,0.0,0.0,0.0,0.0,0.0,0.0,0.0,0.0,0.0,0.0,0.0,0.0,0.0,0.0,0.0,0.0,0.0,0.0,0.0,0.0,0.0,0.0,0.0,0.0,0.0,0.0,0.0,0.0,0.0,0.0,0.0,0.0,0.0,0.0,0.0,0.0,0.0,0.0,0.0,0.0,0.0,0.0,0.0,0.0,0.0,0.0,0.0,0.0,0.0,0.0,0.0,0.0,0.0,0.0,0.0,0.0,0.0,0.0,0.0,0.0,0.0,0.0,0.0,0.0,0.0,0.0,0.0,0.0,0.0,0.0,0.0,0.0,0.0,0.0,0.0,0.0,0.0,0.0,0.0,0.0,0.0,0.0,0.0,0.0,0.0,0.0,0.0,0.0,0.0,0.0,0.0,0.0,0.0,0.0,0.0,4.8984,4.7312,4.5268,4.38,0.0,0.0,0.0,0.0,0.0,0.0,0.0,0.0,0.0,0.0,0.0,0.0,0.0,0.0,0.0,0.0,0.0,0.0,0.0,0.0,0.0,0.0,0.0,0.0,0.0,0.0,0.0,0.0,0.0,0.0,0.0,0.0,0.0,0.0,0.0,0.0,0.0,0.0,0.0,0.0,0.0,0.0,0.0,0.0,0.0,0.0,0.0,0.0,0.0,0.0,0.0,0.0,0.0,0.0,0.0,0.0,0.0,0.0,0.0,0.0,0.0,0.0,0.0,0.0,0.0,0.0,0.0,0.0,0.0,0.0,0.0,0.0,0.0,0.0,0.0,0.0,0.0,0.0,0.0,0.0,0.0,0.0,0.0,0.0,0.0,0.0,0.0,0.0,0.0,0.0,0.0,0.0,0.0,0.0,0.0,0.0,0.0,0.0,0.0,0.0,0.0,0.0,0.0,0.0,0.0,0.0,0.0,0.0,0.0,0.0,0.0,4.7201,4.7059,4.6286,0.0,4.1891,0.0,0.0,0.0,0.0,0.0,0.0,0.0,0.0,0.0,0.0,0.0,0.0,0.0,0.0,0.0,0.0,0.0,0.0,0.0,0.0,0.0,0.0,0.0,0.0,0.0,0.0,0.0,0.0,0.0,0.0,0.0,0.0,0.0,0.0,0.0,0.0,0.0,0.0,0.0,0.0,0.0,0.0,0.0,0.0,0.0,0.0,0.0,0.0,0.0,0.0,0.0,0.0,0.0,0.0,0.0,0.0,0.0,0.0,0.0,0.0,0.0,0.0,0.0,0.0,0.0,0.0,0.0,0.0,0.0,0.0,0.0,0.0,0.0,0.0,0.0,0.0,0.0,0.0,0.0,0.0,0.0,0.0,0.0,0.0,0.0,0.0,0.0,0.0,0.0,0.0,0.0,0.0,0.0,0.0,0.0,0.0,0.0,0.0,0.0,0.0,0.0,0.0,0.0,0.0,0.0,0.0,0.0,0.0,0.0,0.0,0.0,0.0,4.8313,4.6976,4.3224,0.0,0.0,0.0,0.0,0.0,0.0,0.0,0.0,0.0,0.0,0.0,0.0,0.0,0.0,0.0,0.0,0.0,0.0,0.0,0.0,0.0,0.0,0.0,0.0,0.0,0.0,0.0,0.0,0.0,0.0,0.0,0.0,0.0,0.0,0.0,0.0,0.0,0.0,0.0,0.0,0.0,0.0,0.0,0.0,0.0,0.0,0.0,0.0,0.0,0.0,0.0,0.0,0.0,0.0,0.0,0.0,0.0,0.0,0.0,0.0,0.0,0.0,0.0,0.0,0.0,0.0,0.0,0.0,0.0,0.0,0.0,0.0,0.0,0.0,0.0,0.0,0.0,0.0,0.0,0.0,0.0,0.0,0.0,0.0,0.0,0.0,0.0,0.0,0.0,0.0,0.0,0.0,0.0,0.0,0.0,0.0,0.0,0.0,0.0,0.0,0.0,0.0,0.0,0.0,0.0,0.0,0.0,0.0,0.0,0.0,4.8677,4.7312,4.7592,4.6394,4.3405,0.0,0.0,0.0,0.0,0.0,0.0,0.0,0.0,0.0,0.0,0.0,0.0,0.0,0.0,0.0,0.0,0.0,0.0,0.0,0.0,0.0,0.0,0.0,0.0,0.0,0.0,0.0,0.0,0.0,0.0,0.0,0.0,0.0,0.0,0.0,0.0,0.0,0.0,0.0,0.0,0.0,0.0,0.0,0.0,0.0,0.0,0.0,0.0,0.0,0.0,0.0,0.0,0.0,0.0,0.0,0.0,0.0,0.0,0.0,0.0,0.0,0.0,0.0,0.0,0.0,0.0,0.0,0.0,0.0,0.0,0.0,0.0,0.0,0.0,0.0,0.0,0.0,0.0,0.0,0.0,0.0,0.0,0.0,0.0,0.0,0.0,0.0,0.0,0.0,0.0,0.0,0.0,0.0,0.0,0.0,0.0,0.0,0.0,0.0,0.0,0.0,0.0,0.0,0.0,0.0,0.0,0.0,0.0,0.0,0.0,0.0,0.0,0.0,0.0,4.3055,0.0,0.0,0.0,0.0,0.0,0.0,0.0,0.0,0.0,0.0,0.0,0.0,0.0,0.0,0.0,0.0,0.0,0.0,0.0,0.0,0.0,0.0,0.0,0.0,0.0,0.0,0.0,0.0,0.0,0.0,0.0,0.0,0.0,0.0,0.0,0.0,0.0,0.0,0.0,0.0,0.0,0.0,0.0,0.0,0.0,0.0,0.0,0.0,0.0,0.0,0.0,0.0,0.0,0.0,0.0,0.0,0.0,0.0,0.0,0.0,0.0,0.0,0.0,0.0,0.0,0.0,0.0,0.0,0.0,0.0,0.0,0.0,0.0,0.0,0.0,0.0,0.0,0.0,0.0,0.0,0.0,0.0,0.0,0.0,0.0,0.0,0.0,0.0,0.0,0.0,0.0,0.0,0.0,0.0,0.0,0.0,0.0,0.0,0.0,0.0,0.0,0.0,0.0,0.0,0.0,0.0,0.0,0.0,0.0,0.0,0.0,0.0,0.0,0.0,0.0,0.0,0.0,0.0,0.0,0.0,0.0,0.0,0.0,0.0,0.0,0.0,0.0,0.0,0.0,0.0,0.0,0.0,0.0,0.0,0.0,0.0,0.0,0.0,0.0,0.0,0.0,0.0,0.0,0.0,0.0,0.0,0.0,0.0,0.0,0.0,0.0,0.0,0.0,0.0,0.0,0.0,0.0,0.0,0.0,0.0,0.0,0.0,0.0,0.0,0.0,0.0,0.0,0.0,0.0,0.0,0.0,0.0,0.0,0.0,0.0,0.0,0.0,0.0,0.0,0.0,0.0,0.0,0.0,0.0,0.0,0.0,0.0,0.0,0.0,0.0,0.0,0.0,0.0,0.0,0.0,0.0,0.0,0.0,0.0,0.0,0.0,0.0,0.0,0.0,0.0,0.0,0.0,0.0,0.0,0.0,0.0,0.0,0.0,0.0,0.0,0.0,0.0,0.0,0.0,0.0,0.0,0.0,0.0,0.0,0.0,0.0,0.0,0.0,0.0,0.0,0.0,0.0,0.0,0.0,0.0,0.0,0.0,0.0,0.0,0.0,0.0,0.0,0.0,0.0,0.0,0.0,0.0,0.0,0.0,0.0,0.0,0.0,0.0,0.0,0.0,0.0,0.0,0.0,0.0,0.0,0.0,0.0,0.0,0.0,0.0,0.0,0.0,0.0,0.0,0.0,0.0,0.0,0.0,0.0,0.0,0.0,0.0,0.0,0.0,0.0,0.0,0.0,0.0,0.0,0.0,0.0,0.0,0.0,0.0,0.0,0.0,0.0,0.0,0.0,0.0,0.0,0.0,0.0,0.0,0.0,0.0,0.0,0.0,0.0,0.0,0.0,0.0,0.0,0.0,0.0,0.0,0.0,0.0,0.0,0.0,0.0,0.0,0.0,0.0,0.0,0.0,0.0,0.0,0.0,0.0,0.0,0.0,0.0,0.0,0.0,0.0,0.0,0.0,0.0,0.0,0.0,0.0,0.0,0.0,0.0,0.0,0.0,0.0,0.0,0.0,0.0,0.0,0.0,0.0,0.0,0.0,0.0,0.0,0.0,0.0,0.0,0.0,0.0,0.0,0.0,0.0,0.0,0.0,0.0,0.0,0.0,0.0,0.0,0.0,0.0,0.0,0.0,0.0,0.0,0.0,0.0,0.0,0.0,0.0,0.0,0.0,0.0,0.0,0.0,0.0,0.0,0.0,0.0,0.0,0.0,0.0,0.0,0.0,0.0,0.0,0.0,0.0,0.0,0.0,0.0,0.0,0.0,0.0,0.0,0.0,0.0,0.0,0.0,0.0,0.0,0.0,0.0,0.0,0.0,0.0,0.0,0.0,0.0,0.0,0.0,0.0,0.0,0.0,0.0,0.0,0.0,0.0,0.0,0.0,0.0,0.0,0.0,0.0,0.0,0.0,0.0,0.0,0.0,0.0,0.0,0.0,0.0,0.0,0.0,0.0,0.0,0.0,0.0,0.0,0.0,0.0,0.0,0.0,0.0,0.0,0.0,0.0,0.0,0.0,0.0,0.0,0.0,0.0,0.0,0.0,0.0,0.0,0.0,0.0,0.0,0.0,0.0,0.0,0.0,0.0,0.0,0.0,0.0,0.0,0.0,0.0,0.0,0.0,0.0,0.0,0.0,0.0,0.0,0.0,0.0,0.0,0.0,0.0,0.0,0.0,0.0,0.0,0.0,0.0,0.0,0.0,0.0,0.0,0.0,0.0,0.0,0.0,0.0,0.0,0.0,0.0,0.0,0.0,0.0,0.0,0.0,0.0,0.0,0.0,0.0,0.0,0.0,0.0,0.0,0.0,0.0,0.0,0.0,0.0,0.0,0.0,0.0,0.0,0.0,0.0,0.0,0.0,0.0,0.0,0.0,0.0,0.0,0.0,0.0,0.0,0.0,0.0,0.0,0.0,0.0,0.0,0.0,0.0,0.0,0.0,0.0,0.0,0.0,0.0,0.0,0.0,0.0,0.0,0.0,0.0,0.0,0.0,0.0,0.0,0.0,0.0,0.0,0.0,0.0,0.0,0.0,0.0,0.0,0.0,0.0,0.0,0.0,0.0,0.0,0.0,0.0,0.0,0.0,0.0,0.0,0.0,0.0,0.0,0.0,0.0,0.0,0.0,0.0,0.0,0.0,0.0,0.0,0.0,0.0,0.0,0.0,0.0,0.0,0.0,0.0,0.0,0.0,0.0,0.0,0.0,0.0,0.0,0.0,0.0,0.0,0.0,0.0,0.0,0.0,0.0,0.0,0.0,0.0,0.0,0.0,0.0,0.0,0.0,0.0,0.0,0.0,0.0,0.0,0.0,0.0,0.0,0.0,0.0,0.0,0.0,0.0,0.0,0.0,0.0,0.0,0.0,0.0,0.0,0.0,0.0,0.0,0.0,0.0,0.0,0.0,0.0,0.0,0.0,0.0,0.0,0.0,0.0,0.0,0.0,0.0,0.0,0.0,0.0,0.0,0.0,0.0,0.0,0.0,0.0,0.0,0.0,0.0,0.0,0.0,0.0,0.0,0.0,0.0,0.0,0.0,0.0,0.0,0.0,0.0,0.0,0.0,0.0,0.0,0.0,0.0,0.0,0.0,0.0,0.0,0.0,0.0,0.0,0.0,0.0,0.0,0.0,0.0,0.0,0.0,0.0,0.0,0.0,0.0,0.0,0.0,0.0,0.0,0.0,0.0,0.0,0.0,0.0,0.0,0.0,0.0,0.0,0.0,0.0,0.0,0.0,0.0,0.0,0.0,0.0,0.0,0.0,0.0,0.0,0.0,0.0,0.0,0.0,0.0,0.0,0.0,0.0,0.0,0.0,0.0,0.0,0.0,0.0,0.0,0.0,0.0,0.0,0.0,0.0,0.0,0.0,0.0,0.0,0.0,0.0,0.0,0.0,0.0,0.0,0.0,0.0,0.0,0.0,0.0,0.0,0.0,0.0,0.0,0.0,0.0,0.0,0.0,0.0,0.0,0.0,0.0,0.0,0.0,0.0,0.0,0.0,0.0,0.0,0.0,0.0,0.0,0.0,0.0,0.0,0.0,0.0,0.0,0.0,0.0,0.0,0.0,0.0,0.0,0.0,0.0,0.0,0.0,0.0,0.0,0.0,0.0,0.0,0.0,0.0,0.0,0.0,0.0,0.0,0.0,0.0,0.0,0.0,0.0,0.0,0.0,0.0,0.0,0.0,0.0,0.0,0.0,0.0,0.0,0.0,0.0,0.0,0.0,0.0,0.0,0.0,0.0,0.0,0.0,0.0,0.0,0.0,0.0,0.0,0.0,0.0,0.0,0.0,0.0,0.0,0.0,0.0,0.0,0.0,0.0,0.0,0.0,0.0,0.0,0.0,0.0,0.0,0.0,0.0,0.0,0.0,0.0,0.0,0.0,0.0,0.0,0.0,0.0,0.0,0.0,0.0,0.0,0.0,0.0,0.0,0.0,0.0,0.0,0.0,0.0,0.0,0.0,0.0,0.0,0.0,0.0,0.0,0.0,0.0,0.0,0.0,0.0,0.0,0.0,0.0,0.0,0.0,0.0,0.0,0.0,0.0,0.0,0.0,0.0,0.0,0.0,0.0,0.0,0.0,0.0,0.0,0.0,0.0,0.0,0.0,0.0,0.0,0.0,0.0,0.0,0.0,0.0,0.0,0.0,0.0,0.0,0.0,0.0,0.0,0.0,0.0,0.0,0.0,0.0,0.0,0.0,0.0,0.0,0.0,0.0,0.0,0.0,0.0,0.0,0.0,0.0,0.0,0.0,0.0,0.0,0.0,0.0,0.0,0.0,0.0,0.0,0.0,0.0,0.0,0.0,0.0,0.0,0.0,0.0,0.0,0.0,0.0,0.0,0.0,0.0]}],[{"header":{"parameterUnit":"kt","parameterCategory":2,"dx":1,"dy":1,"la1":29.587661999999998,"la2":31.0,"lo1":-88.76705300000003,"lo2":-86.6583820000003,"nx":115,"ny":88,"refTime":"2022-10-12T06:00:00:Z","depth":0,"parameterNumber":2,"parameterNumberName":"V-component_of_WINDS"},"data":[-1.9086,-1.9086,-1.9086,-1.9086,-1.9086,-1.9086,-1.9086,-1.9086,-1.9086,-1.9086,-1.8921,-1.9156,-1.9449,-2.0002,-2.053,-2.0817,-2.08,-2.0839,-2.0839,-2.0839,-2.0839,-2.0839,-2.0839,-2.0839,-2.0839,-2.0839,-2.0839,-2.0839,-2.0839,-2.0839,-2.0839,-2.0839,-2.0839,-2.0839,-2.0833,-2.1849,-2.1849,-2.1612,-2.1355,-2.1863,-2.1863,-2.0938,-2.1189,-2.1459,-2.1703,-2.2079,-2.2408,-2.2567,-2.258,-2.258,-2.258,-2.258,-2.258,-2.258,-2.4504,-2.7241,-3.0799,-3.4628,-3.8177,-4.226,-4.3889,-4.4448,-4.4448,-4.4448,-4.4448,-4.4448,-4.4448,-4.4448,-4.4448,-4.4448,-4.4448,-4.4448,-4.4448,-4.4448,-4.4448,-4.4448,-4.4448,-4.4448,-4.4448,-4.4448,-4.4448,-4.4448,-4.4448,-4.4448,-4.4448,-4.4448,-4.4448,-4.4448,-4.4448,-4.4448,-4.4448,-4.4448,-4.4448,-4.4448,-4.4448,-4.4448,-4.4448,-4.4448,-4.4448,-4.4448,-4.4448,-4.4448,-4.4448,-4.4448,-4.4448,-4.4448,-4.4448,-4.4448,-4.4448,-4.4448,-4.4448,-4.4701,-4.4701,-4.5737,-4.8583,-1.9086,-1.9086,-1.9086,-1.9086,-1.9086,-1.9086,-1.9086,-1.9086,-1.9086,-1.9086,-1.9132,-1.9143,-1.9205,-1.9742,-2.0523,-2.0563,-2.076,-2.082,-2.0839,-2.0839,-2.0839,-2.0839,-2.0839,-2.0839,-2.0839,-2.0839,-2.0839,-2.0839,-2.0839,-2.0839,-2.0839,-2.0839,-2.0839,-2.0833,-2.1856,-2.2863,-2.5183,-2.4711,-2.3398,-2.3918,-2.237,-2.0859,-2.1202,-2.1492,-2.1743,-2.2013,-2.2382,-2.258,-2.258,-2.258,-2.258,-2.258,-2.258,-2.2553,-2.4753,-2.8606,-3.2434,-3.5988,-3.9257,-4.2808,-4.3889,-4.4448,-4.4448,-4.4448,-4.4448,-4.4448,-4.4448,-4.4448,-4.4448,-4.4448,-4.4448,-4.4448,-4.4448,-4.4448,-4.4448,-4.4448,-4.4448,-4.4448,-4.4448,-4.4448,-4.4448,-4.4448,-4.4448,-4.4448,-4.4448,-4.4448,-4.4448,-4.4448,-4.4448,-4.4448,-4.4448,-4.4448,-4.4448,-4.4448,-4.4448,-4.4448,-4.4448,-4.4448,-4.4448,-4.4448,-4.4448,-4.4448,-4.4448,-4.4448,-4.4448,-4.4448,-4.4448,-4.4448,-4.4448,-4.4448,-4.4701,-4.4701,-4.522,-4.7282,-4.9863,-1.9086,-1.9086,-1.9086,-1.9086,-1.9086,-1.9086,-1.9086,-1.9086,-1.9086,-1.9086,-1.9119,-1.9006,-1.9299,-1.9735,-2.0108,-2.0623,-2.0787,-2.0833,-2.0839,-2.0839,-2.0839,-2.0839,-2.0839,-2.0839,-2.0839,-2.0839,-2.0839,-2.0839,-2.0839,-2.0839,-2.0839,-2.0839,-2.1091,-2.1856,-2.3873,-2.516,-2.7506,-3.1012,-2.7515,-2.4609,-2.1213,-2.0846,-2.1136,-2.1518,-2.1782,-2.2059,-2.2369,-2.258,-2.258,-2.258,-2.258,-2.258,-2.2573,-2.2501,-2.5504,-3.0205,-3.4345,-3.8166,-4.1163,-4.3622,-4.4435,-4.4448,-4.4448,-4.4448,-4.4448,-4.4448,-4.4448,-4.4448,-4.4448,-4.4448,-4.4448,-4.4448,-4.4448,-4.4448,-4.4448,-4.4448,-4.4448,-4.4448,-4.4448,-4.4448,-4.4448,-4.4448,-4.4448,-4.4448,-4.4448,-4.4448,-4.4448,-4.4448,-4.4448,-4.4448,-4.4448,-4.4448,-4.4448,-4.4448,-4.4448,-4.4448,-4.4448,-4.4448,-4.4448,-4.4448,-4.4448,-4.4448,-4.4448,-4.4448,-4.4448,-4.4448,-4.4448,-4.4448,-4.4448,-4.4701,-4.4701,-4.5206,-4.7019,-4.8817,-5.2414,-1.9086,-1.9086,-1.9086,-1.9086,-1.9086,-1.9086,-1.9086,-1.9092,-1.9158,-1.9204,-1.9185,-1.9171,-1.9143,-1.9572,-1.9956,-2.051,-2.0668,-2.0767,-2.0826,-2.0839,-2.0839,-2.0839,-2.0839,-2.0839,-2.0839,-2.0839,-2.0839,-2.0839,-2.0839,-2.0839,-2.0839,-2.0839,-2.0833,-2.1599,-2.3624,-2.7156,-2.9823,-3.3647,-2.9606,-2.4315,-2.1435,-2.082,-2.109,-2.1505,-2.1756,-2.2019,-2.2382,-2.258,-2.258,-2.258,-2.258,-2.258,-2.2573,-2.2408,-2.6791,-3.3468,-3.7344,-4.0346,-4.2795,-4.4168,-4.4448,-4.4448,-4.4448,-4.4448,-4.4448,-4.4448,-4.4448,-4.4448,-4.4448,-4.4448,-4.4448,-4.4448,-4.4448,-4.4448,-4.4448,-4.4448,-4.4448,-4.4448,-4.4448,-4.4448,-4.4448,-4.4448,-4.4448,-4.4448,-4.4448,-4.4448,-4.4448,-4.4448,-4.4448,-4.4448,-4.4448,-4.4448,-4.4448,-4.4448,-4.4448,-4.4448,-4.4448,-4.4448,-4.4448,-4.4448,-4.4448,-4.4448,-4.4448,-4.4448,-4.4448,-4.4448,-4.4448,-4.4448,-4.4701,-4.4701,-4.522,-4.7032,-4.8569,-5.1897,-5.5719,-1.9086,-1.9086,-1.9086,-1.9086,-1.9086,-1.9106,-1.9112,-1.9119,-1.9369,-1.9495,-1.9448,-1.9211,-1.9051,-1.9192,-1.9897,-2.0443,-2.0723,-2.0741,-2.0839,-2.0839,-2.0839,-2.0839,-2.0839,-2.0839,-2.0839,-2.0839,-2.0839,-2.0839,-2.0839,-2.0839,-2.0839,-2.0839,-2.0839,-2.1599,-2.3368,-2.6902,-2.9757,-3.2751,-2.9268,-2.5565,-2.2718,-2.1084,-2.1097,-2.1591,-2.1795,-2.1967,-2.2415,-2.258,-2.258,-2.258,-2.258,-2.258,-2.2812,-2.2983,-2.9269,-3.4808,-3.8706,-4.17,-4.3609,-4.4448,-4.4448,-4.4448,-4.4448,-4.4448,-4.4448,-4.4448,-4.4448,-4.4448,-4.4448,-4.4448,-4.4448,-4.4448,-4.4448,-4.4448,-4.4448,-4.4448,-4.4448,-4.4448,-4.4448,-4.4448,-4.4448,-4.4448,-4.4448,-4.4448,-4.4448,-4.4448,-4.4448,-4.4448,-4.4448,-4.4448,-4.4448,-4.4448,-4.4448,-4.4448,-4.4448,-4.4448,-4.4448,-4.4448,-4.4448,-4.4448,-4.4448,-4.4448,-4.4448,-4.4448,-4.4448,-4.4448,-4.4448,-4.4448,-4.4448,-4.4967,-4.6253,-4.832,-5.1912,-5.5735,-5.9061,-1.9086,-1.9086,-1.9086,-1.9086,-1.9119,-1.9284,-1.9363,-1.9376,-1.9481,-1.9403,-1.9488,-1.9303,-1.9103,-1.9256,-1.9683,-2.0396,-2.0417,-2.0688,-2.0839,-2.0839,-2.0839,-2.0839,-2.0839,-2.0839,-2.0839,-2.0839,-2.0839,-2.0839,-2.0839,-2.0839,-2.0839,-2.0839,-2.0839,-2.2106,-2.3873,-2.6147,-2.819,-2.9194,-2.9924,-2.8822,-2.664,-2.4532,-2.31,-2.2186,-2.1914,-2.2178,-2.2527,-2.258,-2.258,-2.258,-2.258,-2.258,-2.256,-2.4987,-3.0735,-3.73,-4.0626,-4.3063,-4.3889,-4.4448,-4.4448,-4.4448,-4.4448,-4.4448,-4.4448,-4.4448,-4.4448,-4.4448,-4.4448,-4.4448,-4.4448,-4.4448,-4.4448,-4.4448,-4.4448,-4.4448,-4.4448,-4.4448,-4.4448,-4.4448,-4.4448,-4.4448,-4.4448,-4.4448,-4.4448,-4.4448,-4.4448,-4.4448,-4.4448,-4.4448,-4.4448,-4.4448,-4.4448,-4.4448,-4.4448,-4.4448,-4.4448,-4.4448,-4.4448,-4.4448,-4.4448,-4.4448,-4.4448,-4.4448,-4.4448,-4.4448,-4.4448,-4.4448,-4.522,-4.5737,-4.6755,-5.0875,-5.5225,-5.9061,-6.1883,-1.9086,-1.9086,-1.9086,-1.9086,-1.9119,-1.9316,-1.9462,-1.9527,-1.9541,-1.9449,-1.9443,-1.9195,-1.9025,-1.9202,-1.9813,-2.022,-2.045,-2.0668,-2.0793,-2.0839,-2.0839,-2.0839,-2.0839,-2.0839,-2.0839,-2.0839,-2.0839,-2.0839,-2.0839,-2.0839,-2.0839,-2.0839,-2.0839,-2.1849,-2.3624,-2.5399,-2.6631,-2.838,-3.1436,-3.0953,-2.9832,-2.7003,-2.4238,-2.2481,-2.1954,-2.2257,-2.2501,-2.258,-2.258,-2.258,-2.258,-2.2534,-2.3098,-2.7217,-3.2765,-3.9889,-4.2565,-4.4448,-4.4448,-4.4448,-4.4448,-4.4448,-4.4448,-4.4448,-4.4448,-4.4448,-4.4448,-4.4448,-4.4448,-4.4448,-4.4448,-4.4448,-4.4448,-4.4448,-4.4448,-4.4448,-4.4448,-4.4448,-4.4448,-4.4448,-4.4448,-4.4448,-4.4448,-4.4448,-4.4448,-4.4448,-4.4448,-4.4448,-4.4448,-4.4448,-4.4448,-4.4448,-4.4448,-4.4448,-4.4448,-4.4448,-4.4448,-4.4448,-4.4448,-4.4448,-4.4448,-4.4448,-4.4448,-4.4448,-4.4448,-4.4448,-4.4435,-4.5989,-4.7019,-4.7268,-4.9848,-5.4185,-5.854,-6.1616,-6.4449,-1.9086,-1.9086,-1.9086,-1.9086,-1.9092,-1.9119,-1.9284,-1.9534,-1.9541,-1.9211,-1.9202,-1.9403,-1.9442,-1.924,-2.0002,-2.0371,-2.0717,-2.0714,-2.0806,-2.0839,-2.0839,-2.0839,-2.0839,-2.0839,-2.0839,-2.0839,-2.0839,-2.0839,-2.0839,-2.0839,-2.0839,-2.0839,-2.0839,-2.1341,-2.287,-2.4904,-2.7445,-2.8941,-3.1748,-3.2334,-3.0796,-2.8226,-2.4902,-2.2839,-2.2052,-2.2343,-2.2488,-2.258,-2.258,-2.258,-2.258,-2.2481,-2.4914,-2.9329,-3.6659,-4.1981,-4.3762,-4.4487,-4.4448,-4.4448,-4.4448,-4.4448,-4.4448,-4.4448,-4.4448,-4.4448,-4.4448,-4.4448,-4.4448,-4.4448,-4.4448,-4.4448,-4.4448,-4.4448,-4.4448,-4.4448,-4.4448,-4.4448,-4.4448,-4.4448,-4.4448,-4.4448,-4.4448,-4.4448,-4.4448,-4.4448,-4.4448,-4.4448,-4.4448,-4.4448,-4.4448,-4.4448,-4.4448,-4.4448,-4.4448,-4.4448,-4.4448,-4.4448,-4.4448,-4.4448,-4.4448,-4.4448,-4.4448,-4.4448,-4.4448,-4.4701,-4.522,-4.624,-4.8306,-5.1897,-5.4457,-5.8288,-6.0583,-6.3672,-6.4959,-1.9086,-1.9086,-1.9086,-1.9086,-1.9086,-1.9086,-1.9257,-1.9501,-1.9547,-1.9559,-1.9807,-1.9501,-1.9546,-1.9911,-2.0093,-2.0398,-2.0431,-2.0694,-2.0839,-2.0839,-2.0839,-2.0839,-2.0839,-2.0839,-2.0839,-2.0839,-2.0839,-2.0839,-2.0839,-2.0839,-2.0839,-2.0839,-2.0839,-2.0839,-2.2613,-2.6164,-2.9728,-3.1566,-3.2786,-3.3383,-3.0666,-2.8185,-2.5367,-2.3303,-2.2237,-2.2468,-2.2547,-2.258,-2.258,-2.258,-2.256,-2.2501,-2.5198,-3.047,-3.8423,-4.2582,-4.4375,-4.4474,-4.4448,-4.4448,-4.4448,-4.4448,-4.4448,-4.4448,-4.4448,-4.4448,-4.4448,-4.4448,-4.4448,-4.4448,-4.4448,-4.4448,-4.4448,-4.4448,-4.4448,-4.4448,-4.4448,-4.4448,-4.4448,-4.4448,-4.4448,-4.4448,-4.4448,-4.4448,-4.4448,-4.4448,-4.4448,-4.4448,-4.4448,-4.4448,-4.4448,-4.4448,-4.4448,-4.4448,-4.4448,-4.4448,-4.4448,-4.4448,-4.4448,-4.4448,-4.4448,-4.4448,-4.4448,-4.4448,-4.4448,-4.4701,-4.5472,-4.6755,-4.9078,-5.2414,-5.753,-6.085,-6.2894,-6.3937,-6.4959,-1.9086,-1.9086,-1.9086,-1.9086,-1.9086,-1.9086,-1.9191,-1.9363,-1.9422,-1.9462,-1.982,-1.989,-2.0002,-2.0391,-2.0556,-2.0569,-2.0582,-2.0793,-2.0839,-2.0839,-2.0839,-2.0839,-2.0839,-2.0839,-2.0839,-2.0839,-2.0839,-2.0839,-2.0839,-2.0839,-2.0839,-2.0839,-2.0839,-2.0839,-2.2613,-2.7165,-3.201,-3.4149,-3.5872,-3.5416,-3.1188,-2.9328,-2.7117,-2.4533,-2.2949,-2.256,-2.258,-2.258,-2.258,-2.258,-2.258,-2.2461,-2.395,-3.1622,-3.8967,-4.3302,-4.4616,-4.4448,-4.4448,-4.4448,-4.4448,-4.4448,-4.4448,-4.4448,-4.4448,-4.4448,-4.4448,-4.4448,-4.4448,-4.4448,-4.4448,-4.4448,-4.4448,-4.4448,-4.4448,-4.4448,-4.4448,-4.4448,-4.4448,-4.4448,-4.4448,-4.4448,-4.4448,-4.4448,-4.4448,-4.4448,-4.4448,-4.4448,-4.4448,-4.4448,-4.4448,-4.4448,-4.4448,-4.4448,-4.4448,-4.4448,-4.4448,-4.4448,-4.4448,-4.4448,-4.4448,-4.4448,-4.4448,-4.4435,-4.4435,-4.4701,-4.5737,-4.7019,-4.934,-5.3446,-5.9581,-6.3672,-6.4184,-6.4449,-6.4959,-1.9086,-1.9086,-1.9086,-1.9086,-1.9086,-1.9086,-1.9099,-1.9132,-1.9138,-1.9462,-1.9722,-1.9996,-2.0266,-2.0694,-2.076,-2.076,-2.078,-2.0806,-2.0839,-2.0839,-2.0839,-2.0839,-2.0839,-2.0839,-2.0839,-2.0839,-2.0839,-2.0839,-2.0839,-2.0839,-2.0839,-2.0839,-2.0839,-2.0839,-2.1341,-2.741,-3.1768,-3.4401,-3.7891,-3.7069,-3.439,-3.2053,-2.9612,-2.7042,-2.4645,-2.3132,-2.2859,-2.258,-2.258,-2.258,-2.258,-2.2448,-2.4175,-3.2434,-3.9793,-4.4043,-4.45,-4.4448,-4.4448,-4.4448,-4.4448,-4.4448,-4.4448,-4.4448,-4.4448,-4.4448,-4.4448,-4.4448,-4.4448,-4.4448,-4.4448,-4.4448,-4.4448,-4.4448,-4.4448,-4.4448,-4.4448,-4.4448,-4.4448,-4.4448,-4.4448,-4.4448,-4.4448,-4.4448,-4.4448,-4.4448,-4.4448,-4.4448,-4.4448,-4.4448,-4.4448,-4.4448,-4.4448,-4.4448,-4.4448,-4.4448,-4.4448,-4.4448,-4.4448,-4.4448,-4.4448,-4.4448,-4.4435,-4.4435,-4.522,-4.6253,-4.6768,-4.7795,-5.1897,-5.6499,-6.2131,-6.4959,-6.4959,-6.4959,-6.4959,-1.9086,-1.9086,-1.9086,-1.9086,-1.9086,-1.9086,-1.9086,-1.9086,-1.9086,-1.9429,-1.9969,-2.0256,-2.0557,-2.0708,-2.0839,-2.0839,-2.0839,-2.0839,-2.0839,-2.0839,-2.0839,-2.0839,-2.0839,-2.0839,-2.0839,-2.0839,-2.0839,-2.0839,-2.0839,-2.0839,-2.1091,-2.1091,-2.0839,-2.0839,-2.1849,-2.5144,-2.8932,-3.1333,-3.3752,-3.3581,-3.3885,-3.2864,-3.1251,-2.8379,-2.6877,-2.5046,-2.3132,-2.258,-2.258,-2.258,-2.256,-2.2461,-2.7153,-3.3596,-4.1645,-4.4005,-4.4604,-4.4448,-4.4448,-4.4448,-4.4448,-4.4448,-4.4448,-4.4448,-4.4448,-4.4448,-4.4448,-4.4448,-4.4448,-4.4448,-4.4448,-4.4448,-4.4448,-4.4448,-4.4448,-4.4448,-4.4448,-4.4448,-4.4448,-4.4448,-4.4448,-4.4448,-4.4448,-4.4448,-4.4448,-4.4448,-4.4448,-4.4448,-4.4448,-4.4448,-4.4448,-4.4448,-4.4448,-4.4448,-4.4448,-4.4448,-4.4448,-4.4448,-4.4448,-4.4448,-4.4448,-4.4448,-4.4435,-4.5472,-4.6504,-4.7795,-4.9587,-5.2171,-5.5735,-5.9312,-6.1883,-6.4959,-6.4959,-6.4959,-6.4959,-1.9086,-1.9086,-1.9086,-1.9086,-1.9086,-1.9086,-1.9086,-1.9086,-1.9092,-1.9376,-1.9818,-2.0316,-2.0657,-2.0727,-2.0839,-2.0839,-2.0839,-2.0839,-2.0839,-2.0839,-2.0839,-2.0839,-2.0839,-2.0839,-2.0839,-2.0839,-2.0839,-2.0839,-2.0833,-2.0839,-2.1348,-2.1856,-2.1348,-2.1091,-2.1091,-2.2863,-2.4872,-2.7515,-3.1217,-3.5378,-3.5693,-3.5939,-3.3344,-3.0205,-2.9148,-2.6141,-2.3132,-2.258,-2.258,-2.258,-2.258,-2.2468,-2.4594,-3.3361,-4.0204,-4.3799,-4.4323,-4.4474,-4.4448,-4.4448,-4.4448,-4.4448,-4.4448,-4.4448,-4.4448,-4.4448,-4.4448,-4.4448,-4.4448,-4.4448,-4.4448,-4.4448,-4.4448,-4.4448,-4.4448,-4.4448,-4.4448,-4.4448,-4.4448,-4.4448,-4.4448,-4.4448,-4.4448,-4.4448,-4.4448,-4.4448,-4.4448,-4.4448,-4.4448,-4.4448,-4.4448,-4.4448,-4.4448,-4.4448,-4.4448,-4.4448,-4.4448,-4.4448,-4.4448,-4.4448,-4.4448,-4.4435,-4.522,-4.6768,-4.8058,-4.9848,-5.2414,-5.5752,-5.8827,-6.1616,-6.3672,-6.4959,-6.4959,-6.4959,-6.4959,-1.9086,-1.9086,-1.9086,-1.9086,-1.9086,-1.9086,-1.9086,-1.9086,-1.9086,-1.9251,-1.9567,-2.033,-2.073,-2.0773,-2.0839,-2.0839,-2.0839,-2.0839,-2.0839,-2.0839,-2.0839,-2.0839,-2.0839,-2.0839,-2.0839,-2.0839,-2.0839,-2.1091,-2.1341,-2.1599,-2.2863,-2.4888,-2.2106,-2.1091,-2.1104,-2.1409,-2.2197,-2.4085,-3.1087,-3.7754,-4.0724,-4.0213,-3.666,-3.3468,-2.9974,-2.641,-2.2859,-2.258,-2.258,-2.258,-2.258,-2.2501,-2.4608,-2.9886,-3.7225,-4.2275,-4.4362,-4.4461,-4.4448,-4.4448,-4.4448,-4.4448,-4.4448,-4.4448,-4.4448,-4.4448,-4.4448,-4.4448,-4.4448,-4.4448,-4.4448,-4.4448,-4.4448,-4.4448,-4.4448,-4.4448,-4.4448,-4.4448,-4.4448,-4.4448,-4.4448,-4.4448,-4.4448,-4.4448,-4.4448,-4.4448,-4.4448,-4.4448,-4.4448,-4.4448,-4.4448,-4.4448,-4.4448,-4.4448,-4.4448,-4.4448,-4.4448,-4.4448,-4.4448,-4.4448,-4.4448,-4.522,-4.5737,-4.7546,-5.0109,-5.2171,-5.4745,-5.8575,-6.1883,-6.3937,-6.4959,-6.4959,-6.4959,-6.4959,-6.4959,-1.9086,-1.9086,-1.9086,-1.9086,-1.9086,-1.9086,-1.9086,-1.9086,-1.9086,-1.9138,-1.9349,-1.9831,-2.0378,-2.0741,-2.0833,-2.0839,-2.0839,-2.0839,-2.0839,-2.0839,-2.0839,-2.0839,-2.0839,-2.0839,-2.0839,-2.0839,-2.0839,-2.2363,-2.2863,-2.2863,-2.3119,-2.5391,-2.2863,-2.1104,-2.0899,-2.1017,-2.1176,-2.172,-2.9616,-3.7227,-4.2908,-4.3201,-3.9096,-3.5121,-3.1896,-2.9165,-2.3683,-2.258,-2.258,-2.258,-2.258,-2.4226,-2.6909,-2.8721,-3.3701,-4.1981,-4.4629,-4.4448,-4.4448,-4.4448,-4.4448,-4.4448,-4.4448,-4.4448,-4.4448,-4.4448,-4.4448,-4.4448,-4.4448,-4.4448,-4.4448,-4.4448,-4.4448,-4.4448,-4.4448,-4.4448,-4.4448,-4.4448,-4.4448,-4.4448,-4.4448,-4.4448,-4.4448,-4.4448,-4.4448,-4.4448,-4.4448,-4.4448,-4.4448,-4.4448,-4.4448,-4.4448,-4.4448,-4.4448,-4.4448,-4.4448,-4.4448,-4.4448,-4.4448,-4.4448,-4.4701,-4.522,-4.6768,-4.934,-5.1912,-5.4473,-5.78,-6.1634,-6.4959,-6.4959,-6.4959,-6.4959,-6.4959,-6.4959,-6.4959,-1.9086,-1.9086,-1.9086,-1.9086,-1.9086,-1.9086,-1.9086,-1.9086,-1.9092,-1.9165,-1.9369,-1.9791,-1.9963,-2.0334,-2.08,-2.0833,-2.0839,-2.0839,-2.0839,-2.0839,-2.0839,-2.0839,-2.0839,-2.0839,-2.0839,-2.0839,-2.1348,-2.3376,-2.7208,-2.72,-2.5901,-2.7664,-2.4896,-2.2399,-2.1077,-2.1209,-2.1393,-2.2686,-2.6324,-3.3836,-4.1766,-4.3988,-4.0883,-3.381,-3.3537,-2.9165,-2.4504,-2.258,-2.258,-2.258,-2.258,-2.4804,-2.8363,-3.2207,-3.4587,-4.4415,-4.4616,-4.4448,-4.4448,-4.4448,-4.4448,-4.4448,-4.4448,-4.4448,-4.4448,-4.4448,-4.4448,-4.4448,-4.4448,-4.4448,-4.4448,-4.4448,-4.4448,-4.4448,-4.4448,-4.4448,-4.4448,-4.4448,-4.4448,-4.4448,-4.4448,-4.4448,-4.4448,-4.4448,-4.4448,-4.4448,-4.4448,-4.4448,-4.4448,-4.4448,-4.4448,-4.4448,-4.4448,-4.4448,-4.4448,-4.4448,-4.4448,-4.4448,-4.4448,-4.4448,-4.4701,-4.6253,-4.9093,-5.1653,-5.4217,-5.753,-6.1367,-6.3672,-6.4695,-6.4959,-6.4959,-6.4959,-6.4959,-6.4959,-6.4959,-1.9086,-1.9086,-1.9086,-1.9086,-1.9086,-1.9086,-1.9086,-1.9086,-1.9086,-1.9251,-1.9429,-1.9572,-1.9859,-2.0126,-2.0668,-2.0826,-2.0839,-2.0839,-2.0839,-2.0839,-2.0839,-2.0839,-2.0839,-2.0839,-2.0839,-2.0839,-2.0813,-2.6205,-3.2112,-3.1506,-3.0681,-3.0429,-2.7691,-2.4539,-2.2491,-2.1862,-2.1611,-2.1973,-2.2665,-2.9496,-4.04,-4.3863,-4.0334,-3.5434,-3.299,-2.9983,-2.3683,-2.258,-2.258,-2.258,-2.2567,-2.5053,-3.0934,-3.9296,-4.3484,-4.4363,-4.4375,-4.4448,-4.4448,-4.4448,-4.4448,-4.4448,-4.4448,-4.4448,-4.4448,-4.4448,-4.4448,-4.4448,-4.4448,-4.4448,-4.4448,-4.4448,-4.4448,-4.4448,-4.4448,-4.4448,-4.4448,-4.4448,-4.4448,-4.4448,-4.4448,-4.4448,-4.4448,-4.4448,-4.4448,-4.4448,-4.4448,-4.4448,-4.4448,-4.4448,-4.4448,-4.4448,-4.4448,-4.4448,-4.4448,-4.4448,-4.4448,-4.4448,-4.4448,-4.4448,-4.4967,-4.6002,-4.934,-5.3477,-5.7023,-6.0082,-6.2646,-6.3937,-6.4695,-6.4959,-6.4959,-6.4959,-6.4959,-6.4959,-6.4959,-1.9086,-1.9086,-1.9086,-1.9086,-1.9086,-1.9086,-1.9086,-1.9086,-1.9086,-1.9132,-1.9251,-1.9475,-1.9761,-2.0187,-2.0543,-2.0839,-2.0839,-2.0839,-2.0839,-2.0839,-2.0839,-2.0839,-2.0839,-2.0839,-2.1091,-2.1585,-2.2285,-2.735,-3.5951,-3.4368,-3.3236,-3.2514,-2.8697,-2.5319,-2.4934,-2.3631,-2.2065,-2.2292,-2.2584,-2.6506,-3.5018,-4.0883,-4.0883,-3.4355,-3.3264,-2.9983,-2.3404,-2.258,-2.258,-2.2547,-2.303,-2.5727,-3.2462,-4.0157,-4.4325,-4.4591,-4.4487,-4.4448,-4.4448,-4.4448,-4.4448,-4.4448,-4.4448,-4.4448,-4.4448,-4.4448,-4.4448,-4.4448,-4.4448,-4.4448,-4.4448,-4.4448,-4.4448,-4.4448,-4.4448,-4.4448,-4.4448,-4.4448,-4.4448,-4.4448,-4.4448,-4.4448,-4.4448,-4.4448,-4.4448,-4.4448,-4.4448,-4.4448,-4.4448,-4.4448,-4.4448,-4.4448,-4.4448,-4.4448,-4.4448,-4.4448,-4.4448,-4.4448,-4.4448,-4.4448,-4.4954,-4.5737,-4.9689,-5.3861,-5.7428,-6.0329,-6.2949,-6.4959,-6.4959,-6.4959,-6.4959,-6.4695,-6.4449,-6.443,-6.4184,-1.9086,-1.9086,-1.9086,-1.9086,-1.9086,-1.9086,-1.9086,-1.9086,-1.9086,-1.9086,-1.9025,-1.9192,-1.9722,-2.0134,-2.0582,-2.0833,-2.0839,-2.0839,-2.0839,-2.0839,-2.0839,-2.0839,-2.0839,-2.0754,-2.2057,-2.4641,-2.8697,-3.5132,-3.9916,-3.7343,-3.6636,-3.588,-3.354,-3.0742,-2.9299,-2.7659,-2.7127,-2.653,-2.7651,-3.0709,-3.5612,-4.1139,-4.0065,-3.5434,-3.299,-2.9716,-2.4233,-2.258,-2.258,-2.2547,-2.2415,-2.6806,-3.3205,-3.9665,-4.4604,-4.4487,-4.4448,-4.4448,-4.4448,-4.4448,-4.4448,-4.4448,-4.4448,-4.4448,-4.4448,-4.4448,-4.4448,-4.4448,-4.4448,-4.4448,-4.4448,-4.4448,-4.4448,-4.4448,-4.4448,-4.4448,-4.4448,-4.4448,-4.4448,-4.4448,-4.4448,-4.4448,-4.4448,-4.4448,-4.4448,-4.4448,-4.4448,-4.4448,-4.4448,-4.4448,-4.4448,-4.4448,-4.4448,-4.4448,-4.4448,-4.4448,-4.4448,-4.4448,-4.4448,-4.4448,-4.4954,-4.7032,-5.0458,-5.3838,-5.6789,-5.9499,-6.2121,-6.4827,-6.4997,-6.4959,-6.3919,-6.2912,-6.3407,-6.3425,-6.2912,-1.9086,-1.9086,-1.9086,-1.9086,-1.9086,-1.9086,-1.9086,-1.9086,-1.9086,-1.9086,-1.8934,-1.8955,-1.9468,-1.9878,-2.0582,-2.0826,-2.0839,-2.0839,-2.0839,-2.0839,-2.1849,-2.1341,-2.1578,-2.2513,-2.5556,-3.0263,-3.5667,-3.9343,-4.1342,-4.1535,-3.9813,-3.8208,-3.7195,-3.6052,-3.399,-3.3146,-3.1372,-3.1418,-3.3893,-3.5205,-3.7807,-4.1163,-4.071,-3.2971,-3.299,-2.9441,-2.4233,-2.258,-2.2853,-2.3383,-2.2942,-2.734,-3.5172,-4.1492,-4.4194,-4.4448,-4.4448,-4.4448,-4.4448,-4.4448,-4.4448,-4.4448,-4.4448,-4.4448,-4.4448,-4.4448,-4.4448,-4.4448,-4.4448,-4.4448,-4.4448,-4.4448,-4.4448,-4.4448,-4.4448,-4.4448,-4.4448,-4.4448,-4.4448,-4.4448,-4.4448,-4.4448,-4.4448,-4.4448,-4.4448,-4.4448,-4.4448,-4.4448,-4.4448,-4.4448,-4.4448,-4.4448,-4.4448,-4.4448,-4.4448,-4.4448,-4.4448,-4.4448,-4.4448,-4.4448,-4.5246,-4.7573,-4.9936,-5.2749,-5.5607,-5.8593,-6.1346,-6.4311,-6.4656,-6.4714,-6.2894,-6.085,-6.0601,-6.01,-6.0118,-1.9086,-1.9086,-1.9086,-1.9086,-1.9086,-1.9086,-1.9086,-1.9086,-1.9086,-1.9086,-1.896,-1.8967,-1.9215,-1.9852,-2.0582,-2.082,-2.0839,-2.0839,-2.0839,-2.1341,-2.3119,-2.3112,-2.3112,-2.6614,-3.1155,-3.4716,-3.9096,-4.1174,-4.1708,-4.1903,-4.1682,-4.153,-3.9327,-3.813,-3.6832,-3.5046,-3.4491,-3.6302,-3.9665,-4.1003,-3.9188,-4.1871,-3.9418,-3.301,-3.2434,-2.9708,-2.4782,-2.3132,-2.4226,-2.6664,-2.4182,-3.0273,-3.9044,-4.4362,-4.4448,-4.4448,-4.4448,-4.4448,-4.4448,-4.4448,-4.4448,-4.4448,-4.4448,-4.4448,-4.4448,-4.4448,-4.4448,-4.4448,-4.4448,-4.4448,-4.4448,-4.4448,-4.4448,-4.4448,-4.4448,-4.4448,-4.4448,-4.4448,-4.4448,-4.4448,-4.4448,-4.4448,-4.4448,-4.4448,-4.4448,-4.4448,-4.4448,-4.4448,-4.4448,-4.4448,-4.4448,-4.4448,-4.4448,-4.4448,-4.4448,-4.4448,-4.4448,-4.4448,-4.4448,-4.4474,-4.4792,-4.6673,-4.8464,-5.1489,-5.467,-5.7515,-6.0321,-6.3409,-6.4618,-6.4259,-6.2646,-5.9832,-5.8305,-5.704,-5.807,-1.9086,-1.9086,-1.9086,-1.9086,-1.9086,-1.9086,-1.9086,-1.9086,-1.9086,-1.9086,-1.898,-1.8974,-1.9215,-1.9774,-2.0556,-2.0839,-2.0839,-2.0839,-2.0839,-2.1599,-2.4129,-2.488,-2.5144,-3.1698,-3.5724,-3.6234,-3.9516,-4.1357,-4.1851,-4.2214,-4.2591,-4.2878,-4.2168,-4.1053,-4.1032,-4.027,-3.9633,-4.1284,-4.3545,-4.3494,-4.1663,-4.3482,-4.0991,-3.8177,-3.4345,-3.1064,-2.5871,-2.5324,-2.7233,-3.0506,-3.3176,-3.7885,-4.352,-4.4526,-4.4448,-4.4448,-4.4448,-4.4448,-4.4448,-4.4448,-4.4448,-4.4448,-4.4448,-4.4448,-4.4448,-4.4448,-4.4448,-4.4448,-4.4448,-4.4448,-4.4448,-4.4448,-4.4448,-4.4448,-4.4448,-4.4448,-4.4448,-4.4448,-4.4448,-4.4448,-4.4448,-4.4448,-4.4448,-4.4448,-4.4448,-4.4448,-4.4448,-4.4448,-4.4448,-4.4448,-4.4448,-4.4448,-4.4448,-4.4448,-4.4448,-4.4448,-4.4448,-4.4448,-4.4448,-4.4487,-4.4824,-4.5887,-4.6908,-5.0703,-5.4228,-5.7075,-5.8609,-6.2623,-6.4714,-6.2398,-6.01,-5.8305,-5.6006,-5.2673,-5.2931,-1.9086,-1.9086,-1.9086,-1.9086,-1.9086,-1.9086,-1.9086,-1.9086,-1.9086,-1.9086,-1.8986,-1.8967,-1.9456,-2.0015,-2.0556,-2.0839,-2.0839,-2.0839,-2.0839,-2.1341,-2.4888,-2.7156,-2.9924,-3.6234,-3.9256,-3.8503,-4.0022,-4.1422,-4.2019,-4.2552,-4.3058,-4.3695,-4.3833,-4.4435,-4.413,-4.3545,-4.4435,-4.4448,-4.4448,-4.4448,-4.4168,-4.2758,-4.1627,-4.1432,-3.5706,-3.079,-2.8597,-2.8054,-3.0515,-3.5758,-4.0511,-4.2946,-4.4233,-4.4461,-4.4448,-4.4448,-4.4448,-4.4448,-4.4448,-4.4448,-4.4448,-4.4448,-4.4448,-4.4448,-4.4448,-4.4448,-4.4448,-4.4448,-4.4448,-4.4448,-4.4448,-4.4448,-4.4448,-4.4448,-4.4448,-4.4448,-4.4448,-4.4448,-4.4448,-4.4448,-4.4448,-4.4448,-4.4448,-4.4448,-4.4448,-4.4448,-4.4448,-4.4448,-4.4448,-4.4448,-4.4448,-4.4448,-4.4448,-4.4448,-4.4448,-4.4448,-4.4448,-4.4448,-4.4448,-4.45,-4.5279,-4.6138,-4.6964,-4.9754,-5.3743,-5.481,-5.5836,-5.9378,-6.1403,-5.8827,-5.6261,-5.4729,-5.2414,-4.8306,-4.7005,-1.9086,-1.9086,-1.9086,-1.9086,-1.9086,-1.9086,-1.9086,-1.9086,-1.9086,-1.9086,-1.898,-1.8967,-1.9462,-2.0276,-2.0569,-2.0839,-2.0839,-2.0839,-2.0833,-2.2863,-2.6402,-3.1688,-3.4216,-3.9256,-4.0268,-4.0268,-4.054,-4.1617,-4.2292,-4.263,-4.3292,-4.4006,-4.4331,-4.4448,-4.4448,-4.4448,-4.4448,-4.4448,-4.4448,-4.4448,-4.385,-3.9889,-3.8525,-3.9222,-3.3244,-2.9424,-2.833,-2.8873,-3.2698,-4.2783,-4.3927,-4.45,-4.4474,-4.4448,-4.4448,-4.4448,-4.4448,-4.4448,-4.4448,-4.4448,-4.4448,-4.4448,-4.4448,-4.4448,-4.4448,-4.4448,-4.4448,-4.4448,-4.4448,-4.4448,-4.4448,-4.4448,-4.4448,-4.4448,-4.4448,-4.4448,-4.4448,-4.4448,-4.4448,-4.4448,-4.4448,-4.4448,-4.4448,-4.4448,-4.4448,-4.4448,-4.4448,-4.4448,-4.4448,-4.4448,-4.4448,-4.4448,-4.4448,-4.4448,-4.4448,-4.4448,-4.4448,-4.4448,-4.4448,-4.4616,-4.537,-4.6203,-4.6872,-4.9026,-5.2944,-5.4932,-5.5026,-5.4932,-5.598,-5.5034,-5.3446,-5.1653,-4.9863,-4.5989,-4.4688,-1.904,-1.898,-1.9053,-1.9086,-1.9086,-1.9086,-1.9086,-1.9086,-1.9086,-1.9086,-1.898,-1.8967,-1.9468,-2.0042,-2.0576,-2.0833,-2.0839,-2.0839,-2.1849,-2.3881,-2.6911,-3.2201,-3.7747,-4.0022,-4.102,-4.102,-4.102,-4.1513,-4.2175,-4.2604,-4.3162,-4.385,-4.4279,-4.4435,-4.4422,-4.4448,-4.4448,-4.4448,-4.4448,-4.4448,-4.4435,-4.1298,-3.9971,-3.757,-3.4345,-2.9974,-2.8606,-2.9974,-3.4073,-3.9807,-4.3355,-4.4448,-4.4448,-4.4448,-4.4448,-4.4448,-4.4448,-4.4448,-4.4448,-4.4448,-4.4448,-4.4448,-4.4448,-4.4448,-4.4448,-4.4448,-4.4448,-4.4448,-4.4448,-4.4448,-4.4448,-4.4448,-4.4448,-4.4448,-4.4448,-4.4448,-4.4448,-4.4448,-4.4448,-4.4448,-4.4448,-4.4448,-4.4448,-4.4448,-4.4448,-4.4448,-4.4448,-4.4448,-4.4448,-4.4448,-4.4448,-4.4448,-4.4448,-4.4448,-4.4448,-4.4448,-4.4448,-4.4448,-4.4448,-4.4474,-4.5097,-4.5655,-4.6477,-4.8064,-5.236,-5.532,-5.5293,-5.5107,-5.4097,-5.1958,-5.089,-4.934,-4.7546,-4.4701,-4.4688,-1.9712,-1.9142,-1.9967,-1.9787,-1.9092,-1.9086,-1.9086,-1.9086,-1.9086,-1.9086,-1.8954,-1.9141,-1.9385,-2.0029,-2.0497,-2.0773,-2.1077,-2.1856,-2.3624,-2.5901,-2.741,-3.3455,-3.9516,-4.102,-4.102,-4.102,-4.1033,-4.1331,-4.1903,-4.2474,-4.2941,-4.337,-4.4045,-4.4383,-4.4279,-4.4357,-4.4435,-4.4448,-4.4448,-4.4448,-4.4435,-4.4155,-4.2795,-3.9257,-3.5444,-3.1612,-2.8597,-3.0515,-3.38,-3.7354,-4.198,-4.4448,-4.4448,-4.4448,-4.4448,-4.4448,-4.4448,-4.4448,-4.4448,-4.4448,-4.4448,-4.4448,-4.4448,-4.4448,-4.4448,-4.4448,-4.4448,-4.4448,-4.4448,-4.4448,-4.4448,-4.4448,-4.4448,-4.4448,-4.4448,-4.4448,-4.4448,-4.4448,-4.4448,-4.4448,-4.4448,-4.4448,-4.4448,-4.4448,-4.4448,-4.4448,-4.4448,-4.4448,-4.4448,-4.4448,-4.4448,-4.4448,-4.4448,-4.4448,-4.4448,-4.4448,-4.4448,-4.4448,-4.4461,-4.4474,-4.4837,-4.5383,-4.6071,-4.6668,-5.0541,-5.1077,-5.2069,-5.3568,-5.1104,-4.8597,-4.7795,-4.7282,-4.522,-4.522,-4.5472,-2.1799,-1.9616,-2.229,-2.1655,-1.9322,-1.9086,-1.9086,-1.9086,-1.9086,-1.9086,-1.9152,-1.896,-1.9231,-1.9748,-2.057,-2.087,-2.1308,-2.3632,-2.5646,-2.7918,-3.2441,-3.6731,-4.0528,-4.102,-4.102,-4.102,-4.102,-4.1318,-4.1812,-4.2422,-4.276,-4.2915,-4.3837,-4.4188,-4.3889,-4.4201,-4.4448,-4.4448,-4.4448,-4.4448,-4.4448,-4.4448,-4.2795,-3.9257,-3.5444,-3.1612,-2.8597,-2.8881,-3.079,-3.4355,-4.0614,-4.4168,-4.4448,-4.4448,-4.4448,-4.4448,-4.4448,-4.4448,-4.4448,-4.4448,-4.4448,-4.4448,-4.4448,-4.4448,-4.4448,-4.4448,-4.4448,-4.4448,-4.4448,-4.4448,-4.4448,-4.4448,-4.4448,-4.4448,-4.4448,-4.4448,-4.4448,-4.4448,-4.4448,-4.4448,-4.4448,-4.4448,-4.4448,-4.4448,-4.4448,-4.4448,-4.4448,-4.4448,-4.4448,-4.4448,-4.4448,-4.4448,-4.4448,-4.4448,-4.4448,-4.4448,-4.4448,-4.4448,-4.4448,-4.4461,-4.4629,-4.5123,-4.572,-4.6334,-4.7778,-4.6974,-4.7376,-4.928,-4.8867,-4.8391,-4.7296,-4.5233,-4.5233,-4.6253,-4.6768,-2.4837,-2.6591,-2.4622,-2.3046,-2.1882,-1.9787,-1.9086,-1.9086,-1.9086,-1.9086,-1.9145,-1.9156,-1.9198,-1.9742,-2.0523,-2.0817,-2.1328,-2.4377,-2.8172,-3.2441,-3.7239,-3.9516,-4.0774,-4.102,-4.102,-4.102,-4.102,-4.1149,-4.1409,-4.224,-4.2539,-4.2526,-4.3708,-4.4123,-4.3682,-4.4136,-4.4448,-4.4448,-4.4448,-4.4448,-4.4448,-4.4448,-4.2795,-3.9257,-3.5444,-3.1622,-2.8597,-3.0249,-3.3244,-3.6802,-3.9526,-4.2248,-4.4435,-4.4448,-4.4448,-4.4448,-4.4448,-4.4448,-4.4448,-4.4448,-4.4448,-4.4448,-4.4448,-4.4448,-4.4448,-4.4448,-4.4448,-4.4448,-4.4448,-4.4448,-4.4448,-4.4448,-4.4448,-4.4448,-4.4448,-4.4448,-4.4448,-4.4448,-4.4448,-4.4448,-4.4448,-4.4448,-4.4448,-4.4448,-4.4448,-4.4448,-4.4448,-4.4448,-4.4448,-4.4448,-4.4448,-4.4448,-4.4448,-4.4448,-4.4448,-4.4448,-4.4448,-4.4448,-4.4448,-4.4448,-4.4474,-4.4928,-4.5305,-4.5942,-4.7315,-4.6801,-4.629,-4.7398,-4.8825,-4.9994,-5.0384,-4.8845,-4.8058,-4.8569,-4.8831,-2.855,-3.1033,-2.7867,-2.5596,-2.3514,-2.142,-1.9787,-1.9092,-1.9086,-1.9086,-1.9125,-1.9058,-1.9312,-1.9605,-2.0396,-2.1434,-2.2703,-2.6984,-3.1307,-3.569,-3.9256,-4.102,-4.102,-4.102,-4.102,-4.102,-4.102,-4.1033,-4.1214,-4.1994,-4.2188,-4.2007,-4.3149,-4.3643,-4.3344,-4.3876,-4.4292,-4.4409,-4.4448,-4.4448,-4.4448,-4.4448,-4.3355,-4.0614,-3.7073,-3.4073,-3.1877,-3.38,-3.5716,-3.7084,-3.9526,-4.198,-4.3902,-4.4448,-4.4448,-4.4448,-4.4448,-4.4448,-4.4448,-4.4448,-4.4448,-4.4448,-4.4448,-4.4448,-4.4448,-4.4448,-4.4448,-4.4448,-4.4448,-4.4448,-4.4448,-4.4448,-4.4448,-4.4448,-4.4448,-4.4448,-4.4448,-4.4448,-4.4448,-4.4448,-4.4448,-4.4448,-4.4448,-4.4448,-4.4448,-4.4448,-4.4448,-4.4448,-4.4448,-4.4448,-4.4448,-4.4448,-4.4448,-4.4448,-4.4448,-4.4448,-4.4448,-4.4448,-4.4448,-4.4448,-4.45,-4.4759,-4.5058,-4.59,-4.7511,-4.8027,-4.6984,-4.7707,-4.9409,-5.0748,-5.2461,-5.2688,-5.1653,-5.1653,-5.1928,-3.2241,-3.1957,-3.248,-2.9051,-2.444,-2.3514,-2.1882,-1.9322,-1.9086,-1.9086,-1.9092,-1.9106,-1.931,-1.9574,-2.0348,-2.2598,-2.6279,-3.1577,-3.5036,-3.6649,-3.9491,-4.102,-4.102,-4.102,-4.102,-4.102,-4.102,-4.102,-4.1059,-4.1643,-4.1682,-4.1383,-4.2318,-4.2889,-4.2747,-4.3305,-4.385,-4.4201,-4.4331,-4.437,-4.4435,-4.4435,-4.4168,-4.3889,-4.0895,-3.8987,-3.8706,-3.8987,-3.7625,-3.5716,-4.0346,-4.4168,-4.4383,-4.4583,-4.4383,-4.4305,-4.437,-4.4383,-4.4357,-4.4344,-4.4344,-4.4266,-4.4383,-4.4318,-4.424,-4.4266,-4.4305,-4.4331,-4.4357,-4.4422,-4.4422,-4.4448,-4.4448,-4.4448,-4.4448,-4.4448,-4.4448,-4.4448,-4.4448,-4.4448,-4.4448,-4.4448,-4.4448,-4.4448,-4.4448,-4.4448,-4.4448,-4.4448,-4.4448,-4.4448,-4.4448,-4.4448,-4.4448,-4.4448,-4.4448,-4.4448,-4.4448,-4.4448,-4.4448,-4.4448,-4.45,-4.4539,-4.4837,-4.4993,-4.6849,-4.6849,-4.5801,-4.9052,-5.0546,-5.3282,-5.4537,-5.5768,-5.5768,-5.5752,-5.5768,-3.2057,-3.5042,-3.3894,-3.0671,-2.6758,-2.4673,-2.189,-1.9086,-1.9086,-1.9086,-1.9086,-1.9086,-1.9257,-1.9514,-2.0038,-2.3772,-3.0329,-3.3525,-3.6554,-3.899,-4.0361,-4.102,-4.102,-4.102,-4.102,-4.102,-4.102,-4.102,-4.1098,-4.1617,-4.1578,-4.1137,-4.2162,-4.2565,-4.2318,-4.2734,-4.3071,-4.3318,-4.3669,-4.4152,-4.4507,-4.4518,-4.4448,-4.4435,-4.3342,-4.2808,-4.2795,-4.2795,-4.198,-4.1163,-4.0626,-4.1833,-4.4178,-4.44,-4.4162,-4.3305,-4.3292,-4.3292,-4.3318,-4.3656,-4.3695,-4.3357,-4.3604,-4.3669,-4.3318,-4.3279,-4.3787,-4.4336,-4.4152,-4.4045,-4.4318,-4.4422,-4.4448,-4.4448,-4.4448,-4.4448,-4.4448,-4.4435,-4.4422,-4.4435,-4.4448,-4.4448,-4.4448,-4.4448,-4.4448,-4.4448,-4.4448,-4.4448,-4.4448,-4.4448,-4.4448,-4.4448,-4.4448,-4.4448,-4.4448,-4.4448,-4.4448,-4.4448,-4.4448,-4.4448,-4.4461,-4.4461,-4.4565,-4.4668,-4.4733,-4.472,-4.6483,-4.9994,-5.3251,-5.6515,-5.8053,-5.9078,-5.933,-5.9849,-5.9581,-3.4011,-3.7418,-3.5544,-3.2994,-2.9762,-2.6758,-2.3514,-2.0722,-1.9558,-1.9086,-1.9086,-1.9086,-1.9191,-1.9609,-2.1146,-2.6776,-3.4793,-3.6215,-3.8021,-4.0012,-4.0786,-4.0929,-4.0786,-4.0942,-4.102,-4.102,-4.102,-4.102,-4.1085,-4.1396,-4.1383,-4.1227,-4.1786,-4.2071,-4.1994,-4.2253,-4.2271,-4.217,-4.2787,-4.3669,-4.4493,-4.4231,-4.4123,-4.4136,-4.4123,-4.4227,-4.4435,-4.4227,-4.3581,-4.2229,-4.1224,-4.0405,-4.0268,-4.2426,-4.3594,-4.3003,-4.2734,-4.2734,-4.2773,-4.3084,-4.311,-4.2812,-4.3084,-4.2839,-4.2503,-4.2465,-4.3146,-4.3538,-4.3708,-4.3578,-4.3824,-4.3824,-4.3902,-4.4045,-4.3954,-4.3928,-4.4279,-4.4253,-4.4227,-4.4396,-4.4448,-4.4448,-4.4448,-4.4448,-4.4448,-4.4448,-4.4448,-4.4448,-4.4448,-4.4448,-4.4448,-4.4448,-4.4448,-4.4448,-4.4448,-4.4448,-4.4448,-4.4448,-4.4448,-4.4448,-4.4448,-4.4448,-4.4448,-4.4565,-4.4539,-4.4539,-4.5352,-4.8859,-5.3462,-5.7006,-6.1616,-6.215,-6.2131,-6.2398,-6.2646,-3.765,-3.7657,-3.7644,-3.5771,-3.2754,-2.9762,-2.6758,-2.328,-2.0722,-1.9086,-1.9092,-1.9086,-1.9329,-2.005,-2.3682,-3.047,-3.8251,-3.8898,-3.9328,-4.0137,-4.0695,-4.0708,-4.0241,-4.0747,-4.1007,-4.0929,-4.0981,-4.1007,-4.0955,-4.1033,-4.102,-4.1033,-4.1098,-4.1344,-4.1747,-4.1838,-4.1554,-4.134,-4.1786,-4.2928,-4.3995,-4.3747,-4.3474,-4.3539,-4.3539,-4.3772,-4.4188,-4.3824,-4.1944,-3.8475,-4.0703,-3.9489,-3.401,-3.8867,-4.2374,-4.2604,-4.2617,-4.2617,-4.2591,-4.2656,-4.2643,-4.2617,-4.263,-4.2361,-4.1365,-4.1926,-4.2565,-4.2708,-4.311,-4.3188,-4.2851,-4.2889,-4.3084,-4.3448,-4.3084,-4.3318,-4.4188,-4.3785,-4.3837,-4.4214,-4.4331,-4.4344,-4.4435,-4.4448,-4.4448,-4.4448,-4.4448,-4.4448,-4.4448,-4.4448,-4.4448,-4.4448,-4.4448,-4.4448,-4.4448,-4.4448,-4.4448,-4.4448,-4.4448,-4.4448,-4.4448,-4.4448,-4.4448,-4.4448,-4.4448,-4.4701,-4.5472,-4.8292,-5.343,-5.7766,-6.238,-6.4449,-6.3672,-6.4695,-6.4449,-3.765,-3.767,-3.7644,-3.5783,-3.2982,-3.2057,-2.8599,-2.3973,-2.2812,-2.1185,-1.9086,-1.9086,-2.1472,-2.5521,-2.7017,-3.1297,-3.7513,-3.8592,-3.902,-3.9578,-4.0163,-4.0344,-4.0267,-4.0773,-4.1083,-4.1077,-4.1083,-4.1083,-4.1038,-4.1069,-4.102,-4.102,-4.102,-4.1111,-4.1253,-4.1266,-4.1083,-4.0989,-4.1638,-4.2467,-4.3171,-4.265,-4.2565,-4.2928,-4.298,-4.3032,-4.3201,-4.3045,-4.2439,-4.1381,-3.967,-3.8574,-3.8367,-3.8172,-3.9092,-4.1054,-4.15,-4.15,-4.15,-4.189,-4.1955,-4.1591,-4.1916,-4.1929,-4.1303,-4.1225,-4.1945,-4.2602,-4.2533,-4.2331,-4.2188,-4.25,-4.2773,-4.2928,-4.2851,-4.2825,-4.3162,-4.3097,-4.3188,-4.3708,-4.3811,-4.3954,-4.4318,-4.4396,-4.4383,-4.4396,-4.4422,-4.4448,-4.4448,-4.4448,-4.4448,-4.4448,-4.4448,-4.4448,-4.4448,-4.4448,-4.4448,-4.4448,-4.4448,-4.4448,-4.4448,-4.4448,-4.4448,-4.4448,-4.4448,-4.4954,-4.7019,-5.063,-5.5241,-5.9061,-6.238,-6.4714,-6.4959,-6.4959,-6.4959,-3.7786,-3.7644,-3.7644,-3.6702,-3.4839,-3.345,-3.0222,-2.5605,-2.4215,-2.1882,-1.9558,-2.1882,-2.5407,-2.9654,-3.0034,-3.3105,-3.7948,-3.8308,-3.8669,-3.902,-3.9578,-3.9838,-3.9903,-4.0409,-4.0795,-4.1056,-4.0795,-4.0933,-4.0844,-4.0691,-4.0812,-4.1007,-4.102,-4.102,-4.102,-4.102,-4.102,-4.1046,-4.137,-4.1814,-4.2089,-4.1814,-4.1812,-4.2318,-4.2396,-4.2487,-4.2682,-4.2513,-4.2396,-4.2383,-4.0097,-3.9548,-4.0989,-3.9217,-3.9008,-4.0786,-4.0695,-4.0682,-4.0695,-4.1214,-4.1409,-4.1072,-4.1344,-4.1409,-4.1059,-4.102,-4.1318,-4.18,-4.1696,-4.1539,-4.1565,-4.1825,-4.2136,-4.2331,-4.2162,-4.224,-4.2643,-4.2539,-4.2617,-4.3136,-4.3227,-4.337,-4.3656,-4.3734,-4.3837,-4.4058,-4.4318,-4.4435,-4.4448,-4.4448,-4.4448,-4.4448,-4.4448,-4.4448,-4.4448,-4.4448,-4.4448,-4.4448,-4.4448,-4.4448,-4.4448,-4.4448,-4.4448,-4.4448,-4.4448,-4.5737,-4.9078,-5.243,-5.5768,-5.933,-6.2398,-6.4959,-6.4959,-6.4959,-6.4959,-3.7644,-3.7644,-3.7644,-3.7644,-3.7405,-3.454,-3.1751,-2.853,-2.5775,-2.299,-2.1565,-2.5962,-2.9378,-3.1924,-3.2652,-3.4851,-3.8475,-3.8436,-3.8436,-3.8565,-3.902,-3.9254,-3.9293,-3.9851,-4.0351,-4.0805,-4.0351,-4.0394,-4.0762,-4.0407,-4.0396,-4.0903,-4.0903,-4.0864,-4.0942,-4.0942,-4.0968,-4.102,-4.0981,-4.0981,-4.102,-4.102,-4.1279,-4.1812,-4.1825,-4.2058,-4.2474,-4.178,-4.1471,-4.1695,-4.0669,-4.0361,-4.0864,-4.0864,-4.0926,-4.0977,-4.039,-4.0111,-4.015,-4.0591,-4.0851,-4.0877,-4.0838,-4.0838,-4.0825,-4.0838,-4.0913,-4.1148,-4.0874,-4.0812,-4.0877,-4.0864,-4.1098,-4.1565,-4.1201,-4.1331,-4.2188,-4.2084,-4.1994,-4.2578,-4.2656,-4.2695,-4.2838,-4.2876,-4.3019,-4.3448,-4.3928,-4.4292,-4.4409,-4.4448,-4.4448,-4.4448,-4.4448,-4.4448,-4.4448,-4.4448,-4.4448,-4.4448,-4.4448,-4.4448,-4.4448,-4.4448,-4.4448,-4.4701,-4.4701,-4.6768,-4.9863,-5.2931,-5.6532,-6.035,-6.2912,-6.4959,-6.4959,-6.4959,-6.4959,-3.7644,-3.7644,-3.7644,-3.7644,-3.7605,-3.6481,-3.4013,-3.1266,-3.0569,-3.1019,-3.1413,-2.8378,-3.0566,-3.5637,-3.3401,-3.4504,-3.8102,-3.8033,-3.8072,-3.8475,-3.8617,-3.8682,-3.8734,-3.9254,-3.9554,-3.9734,-3.9593,-3.9474,-3.9633,-3.9474,-3.9812,-4.0279,-3.9929,-3.9942,-4.0357,-4.0383,-4.0604,-4.0981,-4.0335,-4.0322,-4.1007,-4.102,-4.1085,-4.1214,-4.1227,-4.1279,-4.1135,-3.859,-3.8063,-4.0283,-3.7273,-3.6718,-3.9457,-3.9985,-4.0461,-4.0882,-4.0066,-3.9513,-3.9539,-3.9643,-3.9708,-3.9708,-3.9708,-3.9721,-3.9708,-3.9721,-3.9933,-4.0645,-4.0184,-3.9734,-3.9773,-3.9747,-3.9955,-4.0461,-4.0059,-4.0241,-4.1149,-4.0916,-4.0942,-4.1877,-4.2084,-4.224,-4.2617,-4.2734,-4.276,-4.2941,-4.3409,-4.3954,-4.4344,-4.4448,-4.4448,-4.4448,-4.4448,-4.4448,-4.4448,-4.4448,-4.4448,-4.4448,-4.4448,-4.4448,-4.4448,-4.4448,-4.4448,-4.4701,-4.6504,-4.934,-5.2962,-5.6277,-5.9581,-6.2646,-6.4184,-6.4959,-6.4959,-6.4959,-6.4959,-3.7753,-3.7727,-3.7725,-3.7372,-3.6851,-3.654,-3.4597,-3.1875,-3.2993,-3.3538,-3.3502,-3.1487,-3.3041,-3.6631,-3.4903,-3.5523,-3.7682,-3.7397,-3.7566,-3.8072,-3.8111,-3.8241,-3.8501,-3.8812,-3.9032,-3.9041,-3.8825,-3.8812,-3.8604,-3.8838,-3.9098,-3.9384,-3.9371,-3.9487,-3.9773,-3.9786,-4.0072,-4.0348,-4.0024,-4.0236,-4.107,-4.107,-4.1056,-4.1056,-4.131,-4.095,-3.9999,-3.8199,-3.7571,-3.8112,-3.6108,-3.5419,-3.6782,-3.8394,-3.9422,-3.9364,-3.8588,-3.8163,-3.8163,-3.8163,-3.8384,-3.8903,-3.9189,-3.8929,-3.7877,-3.8007,-3.8791,-4.0097,-3.9343,-3.9033,-3.9306,-3.9332,-3.9448,-3.976,-3.9526,-3.9591,-4.0098,-3.9955,-4.015,-4.0942,-4.1111,-4.1331,-4.189,-4.1968,-4.2032,-4.2331,-4.2578,-4.3123,-4.3902,-4.4032,-4.4045,-4.4071,-4.4279,-4.4409,-4.4448,-4.4448,-4.4448,-4.4448,-4.4448,-4.4448,-4.4448,-4.4448,-4.4448,-4.4701,-4.7282,-5.063,-5.4249,-5.7547,-6.085,-6.3919,-6.4959,-6.4959,-6.4959,-6.4959,-6.4959,-3.7667,-3.7614,-3.7392,-3.6923,-3.5955,-3.5955,-3.4343,-3.2,-3.3896,-3.3645,-3.15,-3.4121,-3.5495,-3.5826,-3.6294,-3.6393,-3.6657,-3.667,-3.6968,-3.7527,-3.7527,-3.7825,-3.8358,-3.8371,-3.8384,-3.8614,-3.8371,-3.815,-3.7851,-3.8176,-3.841,-3.854,-3.889,-3.9085,-3.9098,-3.9163,-3.9448,-4.0116,-4.0093,-4.0341,-4.0992,-4.0937,-4.0826,-4.0689,-4.1063,-4.0388,-3.8838,-3.8159,-3.7168,-3.6032,-3.5701,-3.4821,-3.3133,-3.6396,-3.8278,-3.7423,-3.7151,-3.6876,-3.6889,-3.6889,-3.7307,-3.8046,-3.8578,-3.7994,-3.602,-3.6332,-3.7138,-3.8622,-3.8318,-3.8345,-3.8773,-3.8773,-3.876,-3.8903,-3.8955,-3.9046,-3.9215,-3.9215,-3.9448,-4.0046,-4.0072,-4.0305,-4.0851,-4.0955,-4.1162,-4.1643,-4.1968,-4.2266,-4.3058,-4.3344,-4.337,-4.35,-4.3889,-4.4201,-4.4227,-4.4305,-4.4318,-4.4422,-4.4448,-4.4448,-4.4448,-4.4448,-4.4448,-4.4448,-4.8072,-5.1409,-5.4233,-5.78,-6.1616,-6.4184,-6.4959,-6.4959,-6.4959,-6.4655,-6.4523,-3.7312,-3.6813,-3.6465,-3.6197,-3.5955,-3.5955,-3.5456,-3.4319,-3.4385,0.0,0.0,-3.4217,-3.4774,-3.5479,-3.5492,-3.5779,-3.6085,-3.6098,-3.6397,-3.6929,-3.6942,-3.7241,-3.7786,-3.7799,-3.7799,-3.7812,-3.7799,-3.7981,-3.8561,-3.7968,-3.8033,-3.8423,-3.8111,-3.7942,-3.7981,-3.841,-3.9404,-4.0912,-4.0422,-4.0355,-4.0716,-3.9945,-3.9417,-3.9381,-3.827,-3.8359,-4.0207,-3.4354,-3.2621,-3.5882,-3.3164,-3.024,-2.8122,-3.4177,-3.7416,-3.6518,-3.7582,-3.7943,-3.7326,-3.7326,-3.7016,-3.6384,-3.6488,-3.5895,-3.4505,-3.5469,-3.6137,-3.6471,-3.6563,-3.6436,-3.654,-3.654,-3.6722,-3.7189,-3.7228,-3.7631,-3.8475,-3.8643,-3.8799,-3.9358,-3.9448,-3.9695,-4.0241,-4.0344,-4.0552,-4.1098,-4.1565,-4.2007,-4.2149,-4.2266,-4.2396,-4.2812,-4.3058,-4.3253,-4.3591,-4.3734,-4.3915,-4.4279,-4.4383,-4.4448,-4.4448,-4.4448,-4.4448,-4.4344,-4.9863,-5.3415,-5.4985,-5.9494,-6.3937,-6.4714,-6.4959,-6.4959,-6.4845,-6.3915,-6.3061,-3.574,-3.5262,-3.5176,-3.5047,0.0,-3.5047,-3.4878,-3.4398,-3.2813,-3.2071,-3.2071,-3.3548,-3.4358,-3.4852,-3.4852,-3.4956,-3.5501,-3.5514,-3.5813,-3.6345,-3.6358,-3.6501,-3.6774,-3.6787,-3.6942,-3.7202,-3.7215,-3.7514,-3.8261,-3.7786,-3.8239,-3.8957,-3.8664,-3.8833,-3.9007,-3.9538,-4.0839,-4.3071,-4.0519,-3.9565,-3.9946,-3.9438,-3.9115,-3.9243,-3.8663,0.0,0.0,0.0,0.0,0.0,0.0,0.0,0.0,-3.0069,0.0,-3.6606,-3.416,-3.2286,-3.2043,-3.2255,-3.2711,-3.36,-3.3931,-3.3389,-3.1945,-3.3624,-3.5287,-3.5918,-3.557,-3.5631,-3.5904,-3.5955,-3.6059,-3.6319,-3.6358,-3.6553,-3.7085,-3.7202,-3.754,-3.8293,-3.8475,-3.8812,-3.9643,-3.9994,-4.0318,-4.0591,-4.1098,-4.1552,-4.1799,-4.1656,-4.1669,-4.2214,-4.2526,-4.2838,-4.3097,-4.3149,-4.3266,-4.3487,-4.3578,-4.3578,-4.3591,-4.3578,-4.3578,-4.4087,-4.9154,-5.3703,-5.4204,-5.9219,-6.3725,-6.3725,-6.3725,-6.3725,-6.3687,-6.3099,-6.2529,-3.4212,-3.4173,-3.4152,-3.419,-3.4164,-3.406,-3.4021,-3.3817,-3.161,-3.0808,-3.1015,-3.3125,-3.419,-3.419,-3.419,-3.4436,-3.4904,-3.4904,-3.5215,-3.5787,-3.5774,-3.5839,-3.5943,-3.5943,-3.6163,-3.6592,-3.6631,-3.689,-3.7556,-3.7332,-3.7753,-3.8853,-3.8853,-3.9327,-4.0291,0.0,0.0,0.0,-4.0661,-3.8681,-3.8735,-3.8942,-3.9038,-3.8817,-3.9007,0.0,-3.3589,-3.2516,-2.995,-2.5874,-2.2177,0.0,0.0,0.0,0.0,0.0,0.0,0.0,0.0,0.0,0.0,0.0,-3.0735,-3.0472,-2.9235,-3.1954,-3.4261,-3.5505,-3.5143,-3.4982,-3.5124,-3.541,-3.5605,-3.5618,-3.5722,-3.5787,-3.5787,-3.5904,-3.628,-3.7215,-3.7423,-3.7877,-3.8838,-3.9513,-3.989,-4.0033,-4.0526,-4.1033,-4.1487,-4.1137,-4.1111,-4.163,-4.2058,-4.2409,-4.2552,-4.2591,-4.2617,-4.2734,-4.2734,-4.276,-4.2799,-4.2786,-4.276,-4.3029,-4.82,-5.2708,-5.2708,-5.8088,-6.2624,-6.2548,-6.2567,-6.234,-6.1713,-6.1675,-6.1808,-3.428,-3.428,-3.4216,-3.419,-3.4138,-3.3657,-3.365,-3.3475,-3.3548,-3.3754,-3.3754,-3.3972,-3.419,-3.419,-3.419,-3.4228,-3.4293,-3.4293,-3.4618,-3.5176,-3.5189,-3.5462,-3.5943,-3.5688,-3.5486,-3.5563,-3.6288,-3.657,-3.6649,-3.6393,-3.6163,-3.6367,-3.6367,-3.7839,-4.0971,-4.4781,-4.5629,-4.3606,-4.0766,-3.886,-3.7989,-3.7989,-3.7712,-3.7636,-3.6131,-3.643,-3.7878,-3.2092,-2.8871,-2.936,-2.2571,-1.8284,-1.7612,-1.8555,-2.2665,0.0,-3.1035,0.0,0.0,0.0,0.0,0.0,0.0,0.0,0.0,-3.0585,-3.3058,-3.4403,-3.4397,-3.3709,-3.2307,-3.3527,-3.4397,-3.441,-3.4865,-3.5189,-3.5202,-3.5644,-3.6007,-3.615,-3.6592,-3.7124,-3.7799,-3.8358,-3.8916,-3.9384,-3.989,-4.0215,-4.037,-4.0331,-4.0487,-4.1059,-4.1214,-4.1487,-4.189,-4.2007,-4.2149,-4.2591,-4.2604,-4.2734,-4.2617,-4.263,-4.2669,-4.3154,-4.8039,-5.2317,-5.266,-5.8017,-6.2217,-6.234,-6.2264,-6.1409,-5.9169,-5.8904,-5.915,-3.419,-3.4164,-3.4284,-3.3754,-3.319,-3.2631,-3.2566,-3.2865,-3.3125,-3.3229,-3.3229,-3.3242,-3.3229,-3.3229,-3.3454,-3.3624,-3.3696,-3.3709,-3.4034,-3.4566,-3.4579,-3.4722,-3.4956,-3.4733,-3.4914,-3.5462,-3.5714,-3.6123,-3.6439,-3.6197,-3.636,-3.7004,-3.8432,-3.9567,-4.0573,-4.4055,-4.5309,-4.441,-4.2763,-4.0419,-3.7856,-3.7644,-3.7634,-3.7579,-3.6685,-3.5388,-3.2999,-3.1213,-2.8246,-2.3939,-2.299,-2.2162,-2.1227,-1.9224,-2.1796,0.0,0.0,0.0,0.0,0.0,0.0,0.0,0.0,0.0,0.0,0.0,-3.0399,-3.0351,-3.2481,-3.2501,-2.9554,-3.1086,-3.2164,-3.1852,-3.1489,-3.2021,-3.3917,-3.3546,-3.3587,-3.5306,-3.5696,-3.6189,-3.7059,-3.767,-3.8228,-3.8786,-3.8812,-3.9006,-3.9728,-3.9803,-4.0142,-4.1403,-4.1038,-4.076,-4.1331,-4.1422,-4.1409,-4.1344,-4.1318,-4.1214,-4.0903,-4.229,-4.2763,-4.1585,-4.6336,-5.0879,-5.11,-5.4924,-5.8513,-5.9642,-6.0062,-5.9207,-5.7803,-5.7765,-5.803,-3.3989,-3.4113,-3.36,-3.2685,-3.1424,-3.1008,-3.1216,-3.1865,-3.2008,-3.206,-3.2073,-3.2073,-3.1635,-3.1021,-3.1577,-3.1932,-3.2333,-3.2657,-3.318,-3.3761,-3.3917,-3.3969,-3.3982,-3.4125,-3.4436,-3.5074,-3.5085,-3.5322,-3.5966,-3.5335,-3.5398,-3.6137,-3.8892,-4.0084,-3.9679,-4.2978,-4.4669,-4.4556,-4.4068,-4.1721,-3.7634,-3.7579,-3.7644,-3.7644,-3.7514,-3.5164,-3.0226,-3.1102,-2.8145,-2.0777,-2.3933,-2.4772,-2.2459,-2.2767,0.0,0.0,0.0,0.0,0.0,0.0,0.0,0.0,0.0,-2.1126,-1.7421,0.0,-2.5622,0.0,-2.9692,-3.0995,-2.8268,-2.9424,0.0,0.0,-2.8385,-2.8658,-3.1216,-3.079,-3.1164,-3.3623,-3.4773,-3.5716,-3.6267,-3.689,-3.7397,-3.7812,-3.7514,-3.7779,-3.8967,-3.9073,-3.9853,-4.1464,-4.1402,-4.1097,-4.1496,-4.136,-4.0717,-4.0059,-3.9994,-3.9838,-3.941,-4.1625,-4.3008,-4.1198,-4.5649,-4.9605,-5.0375,-5.2671,-5.5524,-5.694,-5.6854,-5.6341,-5.6569,-5.674,-5.6929,-3.327,-3.4041,-3.1958,-3.011,-2.8554,-2.8515,-2.9112,-3.0164,-3.0671,-3.0904,-3.0904,-3.0904,-2.9417,-2.6775,-2.7563,0.0,-2.945,-3.0674,-3.1605,-3.2631,-3.3164,-3.341,-3.3436,-3.393,-3.4203,-3.4228,-3.4316,-3.437,-3.4421,-3.3376,-3.2203,-3.1307,-3.4786,-3.7256,-3.8893,-4.2979,-4.447,-4.3087,-4.345,-4.1438,-3.7046,-3.7371,-3.7644,-3.7644,-3.7137,-3.6605,-3.5852,-3.2888,-2.952,-2.6208,-2.597,-2.3118,-1.7695,0.0,0.0,0.0,0.0,0.0,0.0,0.0,0.0,0.0,0.0,0.0,0.0,0.0,0.0,-2.2187,-2.6256,0.0,-2.9658,-2.9424,0.0,0.0,0.0,-2.5983,-2.6256,-2.7685,-2.9353,-3.0969,0.0,0.0,-3.515,-3.5722,-3.6098,-3.615,-3.6098,-3.6462,-3.7725,-3.881,-3.9973,-4.1062,-4.1969,-4.2712,-4.2383,-4.1583,-4.0575,-3.9908,-3.9397,-3.9332,-3.9437,-4.172,-4.3414,-4.3299,-4.8229,-5.231,-5.2345,-5.4691,-5.6639,-5.4671,-5.3607,-5.3228,-5.4044,-5.4708,-5.5392,-3.0514,-2.8937,-2.7301,-2.6463,-2.6087,-2.5775,-2.6476,-2.7905,-2.8476,-2.8126,-2.734,-2.8677,-2.7084,-2.342,-2.5225,0.0,0.0,0.0,-2.8785,-3.0437,-3.138,-3.2207,-3.28,-3.3047,-3.3151,-3.3138,-3.3808,-3.3585,-3.2017,-3.2437,-3.0022,-2.5672,0.0,-3.3117,-3.3114,-4.0431,-4.311,-4.0896,-4.2128,-4.1004,-3.7474,-3.7516,-3.7608,-3.7137,-3.6903,-3.5561,-3.332,-3.3002,-2.9923,-2.3517,-2.4166,-2.2494,0.0,0.0,0.0,0.0,0.0,0.0,0.0,0.0,0.0,0.0,0.0,-1.4634,-1.2505,0.0,0.0,0.0,-2.0103,-2.1972,-2.3213,-2.523,0.0,0.0,0.0,0.0,0.0,0.0,0.0,-2.7286,-3.184,-3.4358,-3.3127,-3.38,-3.4501,-3.4839,-3.5189,-3.5792,-3.7098,0.0,-3.8735,-3.9933,-4.1034,-4.1741,-4.1761,-4.0744,-4.0414,-4.1254,-4.0396,-3.9679,-4.0489,-4.2456,-4.3746,-4.4226,-4.7304,-5.0412,-5.0643,-5.2647,-5.4101,-5.3209,-5.2734,-5.262,-5.2924,-5.3266,-5.3569,-2.6202,0.0,0.0,0.0,0.0,-2.2633,-2.3347,-2.4827,-2.4911,-2.4317,-2.3194,-2.4433,0.0,0.0,0.0,0.0,0.0,0.0,-2.6158,-2.8033,-2.9807,-3.1036,-3.169,-3.1644,-3.1787,-3.2108,-3.2497,-3.2163,-3.1103,-2.9862,-2.6525,-2.1372,0.0,0.0,0.0,0.0,-4.0953,-3.9224,-4.1056,-4.0584,-3.7024,-3.7539,-3.7361,-3.654,-3.6384,-3.494,-3.2027,-3.2722,-2.9438,-2.1783,-2.1913,0.0,0.0,0.0,0.0,0.0,0.0,0.0,0.0,0.0,0.0,0.0,0.0,0.0,0.0,0.0,0.0,0.0,0.0,0.0,-1.8784,-2.1841,-2.3009,0.0,0.0,0.0,0.0,0.0,0.0,0.0,0.0,0.0,-3.0071,-3.1333,-3.2748,0.0,0.0,-3.4904,-3.6277,-3.6878,-3.7715,-3.8735,-3.9781,0.0,-4.0474,-3.9644,-3.9764,-4.1108,-4.0031,-3.9007,-3.9079,-4.1894,-4.3927,-4.3298,-4.6959,-4.9675,-4.9037,-4.9144,-4.9283,-4.9264,-4.9264,-4.9377,-4.9943,-5.1041,-5.1937,0.0,0.0,0.0,0.0,-1.9124,0.0,0.0,0.0,-1.9694,-1.9201,0.0,-1.7352,0.0,0.0,0.0,0.0,-1.8309,-2.1558,0.0,0.0,-2.8399,-2.9835,-2.9553,-2.9441,-2.9957,-3.1129,-3.0022,-3.0416,-3.1655,-2.4961,0.0,0.0,0.0,0.0,0.0,0.0,-3.7798,-3.8172,-4.0754,-3.9916,-3.5808,-3.6865,-3.7122,-3.5955,-3.5449,-3.4617,-3.3933,-3.1829,-2.8396,-2.3086,-1.9541,0.0,0.0,0.0,0.0,0.0,0.0,0.0,0.0,0.0,0.0,0.0,0.0,0.0,0.0,0.0,0.0,0.0,0.0,0.0,0.0,-2.0425,0.0,0.0,0.0,0.0,0.0,0.0,0.0,0.0,0.0,-2.3936,-2.5684,-2.832,-3.0852,-3.3047,0.0,0.0,0.0,0.0,-3.719,-3.7592,-3.8728,-3.9394,-3.8879,-3.8997,-3.8716,-3.74,0.0,0.0,-3.4111,-3.9452,-4.3446,-4.2245,-4.7494,-5.1306,-4.7795,-4.427,-4.198,-4.1761,-4.1817,-4.2407,-4.3947,-4.6899,-4.9868,0.0,0.0,0.0,0.0,0.0,0.0,0.0,0.0,0.0,-1.7036,-1.5832,-1.2721,0.0,0.0,0.0,0.0,0.0,0.0,0.0,0.0,-2.5031,-2.6416,-2.6045,-2.9009,-2.8236,-2.4775,-2.8779,-2.8016,0.0,0.0,0.0,0.0,0.0,0.0,0.0,0.0,-3.7493,-3.9313,-4.1169,-4.0103,-3.5965,-3.6282,-3.6324,-3.5917,-3.5384,-3.3761,-3.0956,-2.8648,-2.6173,0.0,0.0,0.0,0.0,0.0,0.0,0.0,0.0,0.0,0.0,0.0,0.0,0.0,0.0,0.0,0.0,0.0,0.0,0.0,0.0,0.0,0.0,0.0,-1.918,0.0,0.0,0.0,0.0,0.0,0.0,0.0,0.0,0.0,-2.2768,-2.6334,-2.9528,-3.1424,-3.2618,-3.3618,-3.4384,0.0,0.0,0.0,0.0,0.0,0.0,0.0,-3.6255,-3.7825,-3.5102,-3.2745,-3.2512,-3.6894,-4.0833,-4.2037,0.0,0.0,-3.9106,-3.6575,-3.5689,-3.5833,-3.6122,-3.6627,-3.7486,-3.9794,-4.1832,0.0,0.0,0.0,0.0,0.0,0.0,0.0,0.0,0.0,-1.4473,-1.325,0.0,0.0,0.0,0.0,0.0,0.0,0.0,0.0,0.0,0.0,0.0,-2.2497,-2.4837,0.0,0.0,0.0,0.0,0.0,0.0,0.0,0.0,0.0,0.0,0.0,0.0,-3.6445,-3.9833,-4.0892,-3.931,-3.5451,-3.5269,-3.5427,-3.5345,-3.4982,-3.3086,-2.9489,0.0,0.0,0.0,0.0,0.0,0.0,0.0,0.0,0.0,0.0,0.0,0.0,0.0,0.0,0.0,0.0,0.0,0.0,0.0,0.0,0.0,0.0,0.0,0.0,0.0,-1.7828,0.0,0.0,0.0,0.0,0.0,0.0,0.0,0.0,0.0,0.0,-2.4074,-2.7126,-2.9593,-3.1229,-3.2605,-3.3748,-3.4658,-3.5128,0.0,0.0,0.0,0.0,0.0,0.0,0.0,0.0,0.0,0.0,0.0,0.0,0.0,0.0,-3.9407,-3.2821,-3.0497,-2.9587,-2.9592,0.0,0.0,0.0,0.0,0.0,0.0,0.0,0.0,0.0,0.0,0.0,0.0,0.0,0.0,0.0,-1.125,0.0,0.0,-1.0313,0.0,0.0,0.0,0.0,0.0,0.0,0.0,0.0,0.0,0.0,0.0,0.0,0.0,0.0,0.0,0.0,0.0,0.0,0.0,0.0,0.0,0.0,-3.4438,-3.9705,-3.957,-3.7747,-3.4368,-3.419,-3.4203,-3.4228,-3.419,-3.2826,-2.9917,0.0,0.0,0.0,0.0,0.0,0.0,0.0,0.0,0.0,0.0,0.0,0.0,0.0,0.0,0.0,0.0,0.0,0.0,0.0,0.0,0.0,0.0,0.0,0.0,0.0,0.0,-1.7257,-1.8672,-1.8642,0.0,0.0,0.0,0.0,0.0,0.0,0.0,0.0,0.0,-2.7632,-2.919,-3.0774,-3.2995,-3.3774,-3.4112,-3.4151,-3.4138,-3.4159,-3.3663,-3.4731,-3.4538,0.0,0.0,0.0,0.0,0.0,0.0,0.0,0.0,0.0,0.0,0.0,0.0,0.0,0.0,0.0,0.0,0.0,0.0,0.0,0.0,0.0,0.0,0.0,0.0,0.0,0.0,0.0,0.0,0.0,0.0,0.0,0.0,0.0,0.0,0.0,0.0,0.0,0.0,0.0,0.0,0.0,0.0,0.0,0.0,0.0,0.0,0.0,0.0,0.0,0.0,0.0,0.0,0.0,0.0,-3.1367,-3.4794,-3.4731,-3.4407,-3.4164,-3.419,-3.419,-3.419,-3.419,-3.2255,0.0,0.0,0.0,0.0,0.0,0.0,0.0,0.0,0.0,0.0,0.0,0.0,0.0,0.0,0.0,0.0,0.0,0.0,0.0,0.0,0.0,0.0,0.0,0.0,0.0,0.0,0.0,0.0,-1.9361,-1.9038,-1.7426,0.0,0.0,0.0,0.0,0.0,0.0,0.0,0.0,0.0,0.0,-3.0606,-3.2463,-3.2865,-3.331,-3.4517,-3.364,-3.3456,-3.5267,-3.3807,-3.2536,-3.1859,0.0,0.0,0.0,0.0,0.0,0.0,0.0,0.0,0.0,0.0,0.0,0.0,0.0,0.0,0.0,0.0,0.0,0.0,0.0,0.0,0.0,0.0,0.0,0.0,0.0,0.0,0.0,0.0,0.0,0.0,0.0,0.0,0.0,0.0,0.0,0.0,0.0,0.0,0.0,0.0,0.0,0.0,0.0,0.0,0.0,0.0,0.0,0.0,0.0,0.0,0.0,0.0,0.0,-2.8028,-2.9254,-3.249,-3.4089,-3.4125,-3.419,-3.419,-3.419,-3.3344,-3.0707,0.0,0.0,0.0,0.0,0.0,0.0,0.0,0.0,0.0,0.0,0.0,0.0,0.0,0.0,0.0,0.0,0.0,0.0,0.0,0.0,0.0,0.0,0.0,0.0,0.0,0.0,0.0,0.0,-1.7409,-1.7507,-1.7048,0.0,0.0,0.0,0.0,0.0,0.0,0.0,0.0,0.0,0.0,-2.9242,-3.093,-3.1541,0.0,0.0,-3.2575,-3.2583,-3.4524,-3.3116,-3.1312,-3.0306,-2.7773,0.0,0.0,0.0,0.0,0.0,0.0,0.0,0.0,0.0,0.0,0.0,0.0,0.0,0.0,0.0,0.0,0.0,0.0,0.0,0.0,0.0,0.0,0.0,0.0,0.0,0.0,0.0,0.0,0.0,0.0,0.0,0.0,0.0,0.0,0.0,0.0,0.0,0.0,0.0,0.0,0.0,0.0,0.0,0.0,0.0,0.0,0.0,0.0,0.0,0.0,0.0,0.0,-2.4853,-2.4249,-3.2172,-3.558,-3.429,-3.4164,-3.419,-3.4177,-3.2166,-2.874,0.0,0.0,0.0,0.0,0.0,0.0,0.0,0.0,0.0,0.0,0.0,0.0,0.0,0.0,0.0,0.0,0.0,0.0,0.0,0.0,0.0,0.0,0.0,0.0,0.0,0.0,0.0,0.0,0.0,0.0,0.0,0.0,0.0,0.0,0.0,0.0,0.0,0.0,0.0,0.0,0.0,-2.71,-2.8853,-2.9956,-3.0985,0.0,-3.1155,-3.0985,-3.1935,-3.2273,-3.0959,-2.7242,0.0,0.0,0.0,0.0,0.0,0.0,0.0,0.0,0.0,0.0,0.0,0.0,0.0,0.0,0.0,0.0,0.0,0.0,0.0,0.0,0.0,0.0,0.0,0.0,0.0,0.0,0.0,0.0,0.0,0.0,0.0,0.0,0.0,0.0,0.0,0.0,0.0,0.0,0.0,0.0,0.0,0.0,0.0,0.0,0.0,0.0,0.0,0.0,0.0,0.0,0.0,0.0,0.0,0.0,-2.407,-3.0044,-3.3402,-3.4196,-3.4198,-3.419,-3.4164,-3.1581,0.0,0.0,0.0,0.0,0.0,0.0,0.0,0.0,0.0,0.0,0.0,0.0,0.0,0.0,0.0,0.0,0.0,0.0,0.0,0.0,0.0,0.0,0.0,0.0,0.0,0.0,0.0,-1.1414,0.0,0.0,0.0,0.0,0.0,0.0,0.0,0.0,0.0,0.0,0.0,0.0,0.0,0.0,-2.6658,-2.8788,-2.8957,-2.9409,0.0,0.0,-2.9409,-3.0668,-3.0375,-2.9274,0.0,0.0,0.0,0.0,0.0,0.0,0.0,0.0,0.0,0.0,0.0,0.0,0.0,0.0,0.0,0.0,0.0,0.0,0.0,0.0,0.0,0.0,0.0,0.0,0.0,0.0,0.0,0.0,0.0,0.0,0.0,0.0,0.0,0.0,0.0,0.0,0.0,0.0,0.0,0.0,0.0,0.0,0.0,0.0,0.0,0.0,0.0,0.0,0.0,0.0,0.0,0.0,0.0,0.0,-2.1758,-2.3918,-2.7856,-3.13,-3.4144,-3.4315,-3.4159,-3.4164,-3.043,-2.6297,0.0,0.0,0.0,0.0,0.0,0.0,0.0,0.0,0.0,0.0,0.0,0.0,0.0,0.0,0.0,0.0,0.0,0.0,0.0,0.0,0.0,0.0,0.0,0.0,0.0,0.0,0.0,0.0,0.0,0.0,0.0,0.0,0.0,0.0,0.0,0.0,0.0,0.0,0.0,0.0,0.0,0.0,-2.7424,-2.7333,0.0,0.0,0.0,-2.7648,-2.8866,0.0,0.0,0.0,0.0,0.0,0.0,0.0,0.0,0.0,0.0,0.0,0.0,0.0,0.0,0.0,0.0,0.0,0.0,0.0,0.0,0.0,0.0,0.0,0.0,0.0,0.0,0.0,0.0,0.0,0.0,0.0,0.0,0.0,0.0,0.0,0.0,0.0,0.0,0.0,0.0,0.0,0.0,0.0,0.0,0.0,0.0,0.0,0.0,0.0,0.0,0.0,0.0,0.0,0.0,0.0,0.0,0.0,-2.3103,-2.611,-2.9841,-3.372,-3.417,-3.4034,-3.3625,-2.8913,-2.492,0.0,0.0,0.0,0.0,0.0,0.0,0.0,0.0,0.0,0.0,0.0,0.0,0.0,0.0,0.0,0.0,0.0,0.0,0.0,0.0,0.0,0.0,0.0,0.0,0.0,0.0,0.0,0.0,0.0,0.0,0.0,0.0,0.0,0.0,0.0,0.0,0.0,0.0,0.0,0.0,0.0,-2.5373,-2.5645,-2.5554,-2.559,0.0,0.0,-2.5642,-2.6725,-2.6715,0.0,0.0,0.0,0.0,0.0,0.0,0.0,0.0,0.0,0.0,0.0,0.0,0.0,0.0,0.0,0.0,0.0,0.0,0.0,0.0,0.0,0.0,0.0,0.0,0.0,0.0,0.0,0.0,0.0,0.0,0.0,0.0,0.0,0.0,0.0,0.0,0.0,0.0,0.0,0.0,0.0,0.0,0.0,0.0,0.0,0.0,0.0,0.0,0.0,0.0,0.0,0.0,0.0,0.0,0.0,0.0,-1.8849,-2.6069,-3.1034,-3.2788,-3.3323,-3.2583,-3.0413,-2.7135,-2.3117,0.0,0.0,0.0,0.0,0.0,0.0,0.0,0.0,0.0,0.0,0.0,0.0,0.0,0.0,0.0,0.0,0.0,0.0,0.0,0.0,0.0,0.0,0.0,0.0,0.0,0.0,0.0,0.0,0.0,0.0,0.0,0.0,0.0,0.0,0.0,0.0,0.0,0.0,0.0,0.0,0.0,-2.3581,-2.5399,-2.4879,0.0,0.0,0.0,0.0,-2.4414,-2.3147,0.0,0.0,0.0,0.0,0.0,0.0,0.0,0.0,0.0,0.0,0.0,0.0,0.0,0.0,0.0,0.0,0.0,0.0,0.0,0.0,0.0,0.0,0.0,0.0,0.0,0.0,0.0,0.0,0.0,0.0,0.0,0.0,0.0,0.0,0.0,0.0,0.0,0.0,0.0,0.0,0.0,0.0,0.0,0.0,0.0,0.0,0.0,0.0,0.0,0.0,0.0,0.0,0.0,0.0,0.0,0.0,-2.1372,-2.5286,-2.9122,-3.2405,-3.3006,-3.2487,-3.0863,-2.6703,-2.2792,0.0,0.0,0.0,0.0,0.0,0.0,0.0,0.0,0.0,0.0,0.0,0.0,0.0,0.0,0.0,0.0,0.0,0.0,0.0,0.0,0.0,0.0,0.0,0.0,0.0,0.0,0.0,0.0,0.0,0.0,0.0,0.0,0.0,0.0,0.0,0.0,0.0,0.0,0.0,0.0,-2.1633,-2.2347,-2.3802,0.0,0.0,0.0,0.0,0.0,0.0,-2.1659,-2.0724,0.0,0.0,0.0,0.0,0.0,0.0,0.0,0.0,0.0,0.0,0.0,0.0,0.0,0.0,0.0,0.0,0.0,0.0,0.0,0.0,0.0,0.0,0.0,0.0,0.0,0.0,0.0,0.0,0.0,0.0,0.0,0.0,0.0,0.0,0.0,0.0,0.0,0.0,0.0,0.0,0.0,0.0,0.0,0.0,0.0,0.0,0.0,0.0,0.0,0.0,0.0,0.0,0.0,0.0,0.0,-2.4542,-2.4583,-2.7147,-3.231,-3.2604,-3.2326,-3.1079,-2.6439,-2.2766,-2.0033,0.0,0.0,0.0,0.0,0.0,0.0,0.0,0.0,0.0,0.0,0.0,0.0,0.0,0.0,0.0,0.0,0.0,0.0,0.0,0.0,0.0,0.0,0.0,0.0,0.0,0.0,0.0,0.0,0.0,0.0,0.0,0.0,0.0,0.0,0.0,0.0,0.0,0.0,0.0,-2.0477,-2.1179,0.0,0.0,0.0,0.0,0.0,0.0,0.0,0.0,-2.0313,0.0,0.0,0.0,0.0,0.0,0.0,0.0,0.0,0.0,0.0,0.0,0.0,0.0,0.0,0.0,0.0,0.0,0.0,0.0,0.0,0.0,0.0,0.0,0.0,0.0,0.0,0.0,0.0,0.0,0.0,0.0,0.0,0.0,0.0,0.0,0.0,0.0,0.0,0.0,0.0,0.0,0.0,0.0,0.0,0.0,0.0,0.0,0.0,0.0,0.0,0.0,0.0,0.0,0.0,0.0,0.0,-2.4535,-2.8697,-3.2185,-3.199,-2.9728,-2.5503,-2.4384,-2.1464,-1.6891,0.0,0.0,0.0,0.0,0.0,0.0,0.0,0.0,0.0,0.0,0.0,0.0,0.0,0.0,0.0,0.0,0.0,0.0,0.0,0.0,0.0,0.0,0.0,0.0,0.0,0.0,0.0,0.0,0.0,0.0,0.0,0.0,0.0,0.0,0.0,0.0,0.0,0.0,-1.6751,-1.8353,0.0,0.0,0.0,0.0,0.0,0.0,0.0,0.0,-1.8698,0.0,0.0,0.0,0.0,0.0,0.0,0.0,0.0,0.0,0.0,0.0,0.0,0.0,0.0,0.0,0.0,0.0,0.0,0.0,0.0,0.0,0.0,0.0,0.0,0.0,0.0,0.0,0.0,0.0,0.0,0.0,0.0,0.0,0.0,0.0,0.0,0.0,0.0,0.0,0.0,0.0,0.0,0.0,0.0,0.0,0.0,0.0,0.0,0.0,0.0,0.0,0.0,0.0,0.0,0.0,0.0,0.0,0.0,-2.834,-3.1456,-3.1221,-2.9317,-2.5602,-2.2382,-1.87,0.0,0.0,0.0,0.0,0.0,0.0,0.0,0.0,0.0,0.0,0.0,0.0,0.0,0.0,0.0,0.0,0.0,0.0,0.0,0.0,0.0,0.0,0.0,0.0,0.0,0.0,0.0,0.0,0.0,0.0,0.0,0.0,0.0,0.0,0.0,0.0,0.0,0.0,0.0,0.0,0.0,0.0,0.0,0.0,0.0,0.0,0.0,0.0,0.0,0.0,0.0,0.0,0.0,0.0,0.0,0.0,0.0,0.0,0.0,0.0,0.0,0.0,0.0,0.0,0.0,0.0,0.0,0.0,0.0,0.0,0.0,0.0,0.0,0.0,0.0,0.0,0.0,0.0,0.0,0.0,0.0,0.0,0.0,0.0,0.0,0.0,0.0,0.0,0.0,0.0,0.0,0.0,0.0,0.0,0.0,0.0,0.0,0.0,0.0,0.0,0.0,0.0,0.0,0.0,0.0,0.0,0.0,0.0,-2.7372,-3.0232,-2.9982,-2.8508,-2.5894,-2.1136,-1.6816,0.0,0.0,0.0,0.0,0.0,0.0,0.0,0.0,0.0,0.0,0.0,0.0,0.0,0.0,0.0,0.0,0.0,0.0,0.0,0.0,0.0,0.0,0.0,0.0,0.0,0.0,0.0,0.0,0.0,0.0,0.0,0.0,0.0,0.0,0.0,0.0,0.0,0.0,0.0,0.0,0.0,0.0,0.0,0.0,0.0,0.0,0.0,0.0,-1.8348,0.0,0.0,0.0,0.0,0.0,0.0,0.0,0.0,0.0,0.0,0.0,0.0,0.0,0.0,0.0,0.0,0.0,0.0,0.0,0.0,0.0,0.0,0.0,0.0,0.0,0.0,0.0,0.0,0.0,0.0,0.0,0.0,0.0,0.0,0.0,0.0,0.0,0.0,0.0,0.0,0.0,0.0,0.0,0.0,0.0,0.0,0.0,0.0,0.0,0.0,0.0,0.0,0.0,0.0,0.0,0.0,0.0,0.0,0.0,-2.6317,-2.8664,-2.7385,-2.5541,-2.3224,-2.1173,-1.7273,0.0,0.0,0.0,0.0,0.0,0.0,0.0,0.0,0.0,0.0,0.0,0.0,0.0,0.0,0.0,0.0,0.0,0.0,0.0,0.0,0.0,0.0,0.0,0.0,0.0,0.0,0.0,0.0,0.0,0.0,0.0,0.0,0.0,0.0,0.0,0.0,0.0,0.0,0.0,0.0,0.0,0.0,0.0,0.0,0.0,0.0,0.0,0.0,0.0,0.0,0.0,0.0,0.0,0.0,0.0,0.0,0.0,0.0,0.0,0.0,0.0,0.0,0.0,0.0,0.0,0.0,0.0,0.0,0.0,0.0,0.0,0.0,0.0,0.0,0.0,0.0,0.0,0.0,0.0,0.0,0.0,0.0,0.0,0.0,0.0,0.0,0.0,0.0,0.0,0.0,0.0,0.0,0.0,0.0,0.0,0.0,0.0,0.0,0.0,0.0,0.0,0.0,0.0,0.0,0.0,0.0,0.0,0.0,-2.5476,-2.8897,-2.7801,-2.5486,-2.1744,-1.8703,-1.5361,0.0,0.0,0.0,0.0,0.0,0.0,0.0,0.0,0.0,0.0,0.0,0.0,0.0,0.0,0.0,0.0,0.0,0.0,0.0,0.0,0.0,0.0,0.0,0.0,0.0,0.0,0.0,0.0,0.0,0.0,0.0,0.0,0.0,0.0,0.0,0.0,0.0,0.0,0.0,0.0,0.0,0.0,0.0,0.0,0.0,0.0,0.0,0.0,0.0,0.0,0.0,0.0,0.0,0.0,0.0,0.0,0.0,0.0,0.0,0.0,0.0,0.0,0.0,0.0,0.0,0.0,0.0,0.0,0.0,0.0,0.0,0.0,0.0,0.0,0.0,0.0,0.0,0.0,0.0,0.0,0.0,0.0,0.0,0.0,0.0,0.0,0.0,0.0,0.0,0.0,0.0,0.0,0.0,0.0,0.0,0.0,0.0,0.0,0.0,0.0,0.0,0.0,0.0,0.0,0.0,0.0,0.0,0.0,0.0,-2.824,-2.7787,-2.4969,-2.0347,-1.7177,-1.399,0.0,0.0,0.0,0.0,0.0,0.0,0.0,0.0,0.0,0.0,0.0,0.0,0.0,0.0,0.0,0.0,0.0,0.0,0.0,0.0,0.0,0.0,0.0,0.0,0.0,0.0,0.0,0.0,0.0,0.0,0.0,0.0,0.0,0.0,0.0,0.0,0.0,0.0,0.0,0.0,0.0,0.0,0.0,0.0,0.0,0.0,0.0,0.0,0.0,0.0,0.0,0.0,0.0,0.0,0.0,0.0,0.0,0.0,0.0,0.0,0.0,0.0,0.0,0.0,0.0,0.0,0.0,0.0,0.0,0.0,0.0,0.0,0.0,0.0,0.0,0.0,0.0,0.0,0.0,0.0,0.0,0.0,0.0,0.0,0.0,0.0,0.0,0.0,0.0,0.0,0.0,0.0,0.0,0.0,0.0,0.0,0.0,0.0,0.0,0.0,0.0,0.0,0.0,0.0,0.0,0.0,0.0,0.0,0.0,-2.6384,-2.5514,-2.2994,-1.8745,-1.7324,-1.4395,0.0,0.0,0.0,0.0,0.0,0.0,0.0,0.0,0.0,0.0,0.0,0.0,0.0,0.0,0.0,0.0,0.0,0.0,0.0,0.0,0.0,0.0,0.0,0.0,0.0,0.0,0.0,0.0,0.0,0.0,0.0,0.0,0.0,0.0,0.0,0.0,0.0,0.0,0.0,0.0,0.0,0.0,0.0,0.0,0.0,0.0,0.0,0.0,0.0,0.0,0.0,0.0,0.0,0.0,0.0,0.0,0.0,0.0,0.0,0.0,0.0,0.0,0.0,0.0,0.0,0.0,0.0,0.0,0.0,0.0,0.0,0.0,0.0,0.0,0.0,0.0,0.0,0.0,0.0,0.0,0.0,0.0,0.0,0.0,0.0,0.0,0.0,0.0,0.0,0.0,0.0,0.0,0.0,0.0,0.0,0.0,0.0,0.0,0.0,0.0,0.0,0.0,0.0,0.0,0.0,0.0,0.0,0.0,0.0,-2.4503,-2.2364,-1.974,-1.7113,-1.5356,-1.308,-1.0085,0.0,0.0,0.0,0.0,0.0,0.0,0.0,0.0,0.0,0.0,0.0,0.0,0.0,0.0,0.0,0.0,0.0,0.0,0.0,0.0,0.0,0.0,0.0,0.0,0.0,0.0,0.0,0.0,0.0,0.0,0.0,0.0,0.0,0.0,0.0,0.0,0.0,0.0,0.0,0.0,0.0,0.0,0.0,0.0,0.0,0.0,0.0,0.0,0.0,0.0,0.0,0.0,0.0,0.0,0.0,0.0,0.0,0.0,0.0,0.0,0.0,0.0,0.0,0.0,0.0,0.0,0.0,0.0,0.0,0.0,0.0,0.0,0.0,0.0,0.0,0.0,0.0,0.0,0.0,0.0,0.0,0.0,0.0,0.0,0.0,0.0,0.0,0.0,0.0,0.0,0.0,0.0,0.0,0.0,0.0,0.0,0.0,0.0,0.0,0.0,0.0,0.0,0.0,0.0,0.0,0.0,0.0,0.0,-2.2232,-2.0567,-1.8447,-1.593,-1.4519,-1.2401,0.0,0.0,0.0,0.0,0.0,0.0,0.0,0.0,0.0,0.0,0.0,0.0,0.0,0.0,0.0,0.0,0.0,0.0,0.0,0.0,0.0,0.0,0.0,0.0,0.0,0.0,0.0,0.0,0.0,0.0,0.0,0.0,0.0,0.0,0.0,0.0,0.0,0.0,0.0,0.0,0.0,0.0,0.0,0.0,0.0,0.0,0.0,0.0,0.0,0.0,0.0,0.0,0.0,0.0,0.0,0.0,0.0,0.0,0.0,0.0,0.0,0.0,0.0,0.0,0.0,0.0,0.0,0.0,0.0,0.0,0.0,0.0,0.0,0.0,0.0,0.0,0.0,0.0,0.0,0.0,0.0,0.0,0.0,0.0,0.0,0.0,0.0,0.0,0.0,0.0,0.0,0.0,0.0,0.0,0.0,0.0,0.0,0.0,0.0,0.0,0.0,0.0,0.0,0.0,0.0,0.0,0.0,0.0,-1.7741,-1.8885,-2.0435,-1.9205,-1.555,-1.511,-1.2784,0.0,0.0,0.0,0.0,0.0,0.0,0.0,0.0,0.0,0.0,0.0,0.0,0.0,0.0,0.0,0.0,0.0,0.0,0.0,0.0,0.0,0.0,0.0,0.0,0.0,0.0,0.0,0.0,0.0,0.0,0.0,0.0,0.0,0.0,0.0,0.0,0.0,0.0,0.0,0.0,0.0,0.0,0.0,0.0,0.0,0.0,0.0,0.0,0.0,0.0,0.0,0.0,0.0,0.0,0.0,0.0,0.0,0.0,0.0,0.0,0.0,0.0,0.0,0.0,0.0,0.0,0.0,0.0,0.0,0.0,0.0,0.0,0.0,0.0,0.0,0.0,0.0,0.0,0.0,0.0,0.0,0.0,0.0,0.0,0.0,0.0,0.0,0.0,0.0,0.0,0.0,0.0,0.0,0.0,0.0,0.0,0.0,0.0,0.0,0.0,0.0,0.0,0.0,0.0,0.0,0.0,0.0,0.0,0.0,-1.6491,0.0,-1.6937,0.0,-1.4186,-1.2021,0.0,0.0,0.0,0.0,0.0,0.0,0.0,0.0,0.0,0.0,0.0,0.0,0.0,0.0,0.0,0.0,0.0,0.0,0.0,0.0,0.0,0.0,0.0,0.0,0.0,0.0,0.0,0.0,0.0,0.0,0.0,0.0,0.0,0.0,0.0,0.0,0.0,0.0,0.0,0.0,0.0,0.0,0.0,0.0,0.0,0.0,0.0,0.0,0.0,0.0,0.0,0.0,0.0,0.0,0.0,0.0,0.0,0.0,0.0,0.0,0.0,0.0,0.0,0.0,0.0,0.0,0.0,0.0,0.0,0.0,0.0,0.0,0.0,0.0,0.0,0.0,0.0,0.0,0.0,0.0,0.0,0.0,0.0,0.0,0.0,0.0,0.0,0.0,0.0,0.0,0.0,0.0,0.0,0.0,0.0,0.0,0.0,0.0,0.0,0.0,0.0,0.0,0.0,0.0,0.0,0.0,0.0,0.0,0.0,-1.6608,-1.6244,-1.5865,-1.5511,-1.3963,-1.2036,0.0,0.0,0.0,0.0,0.0,0.0,0.0,0.0,0.0,0.0,0.0,0.0,0.0,0.0,0.0,0.0,0.0,0.0,0.0,0.0,0.0,0.0,0.0,0.0,0.0,0.0,0.0,0.0,0.0,0.0,0.0,0.0,0.0,0.0,0.0,0.0,0.0,0.0,0.0,0.0,0.0,0.0,0.0,0.0,0.0,0.0,0.0,0.0,0.0,0.0,0.0,0.0,0.0,0.0,0.0,0.0,0.0,0.0,0.0,0.0,0.0,0.0,0.0,0.0,0.0,0.0,0.0,0.0,0.0,0.0,0.0,0.0,0.0,0.0,0.0,0.0,0.0,0.0,0.0,0.0,0.0,0.0,0.0,0.0,0.0,0.0,0.0,0.0,0.0,0.0,0.0,0.0,0.0,0.0,0.0,0.0,0.0,0.0,0.0,0.0,0.0,0.0,0.0,0.0,0.0,0.0,0.0,0.0,0.0,-1.8543,-1.7818,-1.6456,-1.4768,-1.4342,-1.2591,0.0,0.0,0.0,0.0,0.0,0.0,0.0,0.0,0.0,0.0,0.0,0.0,0.0,0.0,0.0,0.0,0.0,0.0,0.0,0.0,0.0,0.0,0.0,0.0,0.0,0.0,0.0,0.0,0.0,0.0,0.0,0.0,0.0,0.0,0.0,0.0,0.0,0.0,0.0,0.0,0.0,0.0,0.0,0.0,0.0,0.0,0.0,0.0,0.0,0.0,0.0,0.0,0.0,0.0,0.0,0.0,0.0,0.0,0.0,0.0,0.0,0.0,0.0,0.0,0.0,0.0,0.0,0.0,0.0,0.0,0.0,0.0,0.0,0.0,0.0,0.0,0.0,0.0,0.0,0.0,0.0,0.0,0.0,0.0,0.0,0.0,0.0,0.0,0.0,0.0,0.0,0.0,0.0,0.0,0.0,0.0,0.0,0.0,0.0,0.0,0.0,0.0,0.0,0.0,0.0,0.0,0.0,0.0,0.0,0.0,-1.9355,-1.8994,-1.5359,-1.3418,-1.1493,-0.9442,0.0,0.0,0.0,0.0,0.0,0.0,0.0,0.0,0.0,0.0,0.0,0.0,0.0,0.0,0.0,0.0,0.0,0.0,0.0,0.0,0.0,0.0,0.0,0.0,0.0,0.0,0.0,0.0,0.0,0.0,0.0,0.0,0.0,0.0,0.0,0.0,0.0,0.0,0.0,0.0,0.0,0.0,0.0,0.0,0.0,0.0,0.0,0.0,0.0,0.0,0.0,0.0,0.0,0.0,0.0,0.0,0.0,0.0,0.0,0.0,0.0,0.0,0.0,0.0,0.0,0.0,0.0,0.0,0.0,0.0,0.0,0.0,0.0,0.0,0.0,0.0,0.0,0.0,0.0,0.0,0.0,0.0,0.0,0.0,0.0,0.0,0.0,0.0,0.0,0.0,0.0,0.0,0.0,0.0,0.0,0.0,0.0,0.0,0.0,0.0,0.0,0.0,0.0,0.0,0.0,0.0,0.0,0.0,0.0,0.0,-1.8803,-1.6175,-1.3732,-1.1532,0.0,0.0,0.0,0.0,0.0,0.0,0.0,0.0,0.0,0.0,0.0,0.0,0.0,0.0,0.0,0.0,0.0,0.0,0.0,0.0,0.0,0.0,0.0,0.0,0.0,0.0,0.0,0.0,0.0,0.0,0.0,0.0,0.0,0.0,0.0,0.0,0.0,0.0,0.0,0.0,0.0,0.0,0.0,0.0,0.0,0.0,0.0,0.0,0.0,0.0,0.0,0.0,0.0,0.0,0.0,0.0,0.0,0.0,0.0,0.0,0.0,0.0,0.0,0.0,0.0,0.0,0.0,0.0,0.0,0.0,0.0,0.0,0.0,0.0,0.0,0.0,0.0,0.0,0.0,0.0,0.0,0.0,0.0,0.0,0.0,0.0,0.0,0.0,0.0,0.0,0.0,0.0,0.0,0.0,0.0,0.0,0.0,0.0,0.0,0.0,0.0,0.0,0.0,0.0,0.0,0.0,0.0,0.0,0.0,0.0,0.0,-1.7063,-1.6896,-1.4928,0.0,-0.9768,0.0,0.0,0.0,0.0,0.0,0.0,0.0,0.0,0.0,0.0,0.0,0.0,0.0,0.0,0.0,0.0,0.0,0.0,0.0,0.0,0.0,0.0,0.0,0.0,0.0,0.0,0.0,0.0,0.0,0.0,0.0,0.0,0.0,0.0,0.0,0.0,0.0,0.0,0.0,0.0,0.0,0.0,0.0,0.0,0.0,0.0,0.0,0.0,0.0,0.0,0.0,0.0,0.0,0.0,0.0,0.0,0.0,0.0,0.0,0.0,0.0,0.0,0.0,0.0,0.0,0.0,0.0,0.0,0.0,0.0,0.0,0.0,0.0,0.0,0.0,0.0,0.0,0.0,0.0,0.0,0.0,0.0,0.0,0.0,0.0,0.0,0.0,0.0,0.0,0.0,0.0,0.0,0.0,0.0,0.0,0.0,0.0,0.0,0.0,0.0,0.0,0.0,0.0,0.0,0.0,0.0,0.0,0.0,0.0,0.0,0.0,0.0,-1.5815,-1.425,-1.0877,0.0,0.0,0.0,0.0,0.0,0.0,0.0,0.0,0.0,0.0,0.0,0.0,0.0,0.0,0.0,0.0,0.0,0.0,0.0,0.0,0.0,0.0,0.0,0.0,0.0,0.0,0.0,0.0,0.0,0.0,0.0,0.0,0.0,0.0,0.0,0.0,0.0,0.0,0.0,0.0,0.0,0.0,0.0,0.0,0.0,0.0,0.0,0.0,0.0,0.0,0.0,0.0,0.0,0.0,0.0,0.0,0.0,0.0,0.0,0.0,0.0,0.0,0.0,0.0,0.0,0.0,0.0,0.0,0.0,0.0,0.0,0.0,0.0,0.0,0.0,0.0,0.0,0.0,0.0,0.0,0.0,0.0,0.0,0.0,0.0,0.0,0.0,0.0,0.0,0.0,0.0,0.0,0.0,0.0,0.0,0.0,0.0,0.0,0.0,0.0,0.0,0.0,0.0,0.0,0.0,0.0,0.0,0.0,0.0,0.0,-1.6761,-1.6175,-1.5578,-1.4074,-1.1834,0.0,0.0,0.0,0.0,0.0,0.0,0.0,0.0,0.0,0.0,0.0,0.0,0.0,0.0,0.0,0.0,0.0,0.0,0.0,0.0,0.0,0.0,0.0,0.0,0.0,0.0,0.0,0.0,0.0,0.0,0.0,0.0,0.0,0.0,0.0,0.0,0.0,0.0,0.0,0.0,0.0,0.0,0.0,0.0,0.0,0.0,0.0,0.0,0.0,0.0,0.0,0.0,0.0,0.0,0.0,0.0,0.0,0.0,0.0,0.0,0.0,0.0,0.0,0.0,0.0,0.0,0.0,0.0,0.0,0.0,0.0,0.0,0.0,0.0,0.0,0.0,0.0,0.0,0.0,0.0,0.0,0.0,0.0,0.0,0.0,0.0,0.0,0.0,0.0,0.0,0.0,0.0,0.0,0.0,0.0,0.0,0.0,0.0,0.0,0.0,0.0,0.0,0.0,0.0,0.0,0.0,0.0,0.0,0.0,0.0,0.0,0.0,0.0,0.0,-1.2651,0.0,0.0,0.0,0.0,0.0,0.0,0.0,0.0,0.0,0.0,0.0,0.0,0.0,0.0,0.0,0.0,0.0,0.0,0.0,0.0,0.0,0.0,0.0,0.0,0.0,0.0,0.0,0.0,0.0,0.0,0.0,0.0,0.0,0.0,0.0,0.0,0.0,0.0,0.0,0.0,0.0,0.0,0.0,0.0,0.0,0.0,0.0,0.0,0.0,0.0,0.0,0.0,0.0,0.0,0.0,0.0,0.0,0.0,0.0,0.0,0.0,0.0,0.0,0.0,0.0,0.0,0.0,0.0,0.0,0.0,0.0,0.0,0.0,0.0,0.0,0.0,0.0,0.0,0.0,0.0,0.0,0.0,0.0,0.0,0.0,0.0,0.0,0.0,0.0,0.0,0.0,0.0,0.0,0.0,0.0,0.0,0.0,0.0,0.0,0.0,0.0,0.0,0.0,0.0,0.0,0.0,0.0,0.0,0.0,0.0,0.0,0.0,0.0,0.0,0.0,0.0,0.0,0.0,0.0,0.0,0.0,0.0,0.0,0.0,0.0,0.0,0.0,0.0,0.0,0.0,0.0,0.0,0.0,0.0,0.0,0.0,0.0,0.0,0.0,0.0,0.0,0.0,0.0,0.0,0.0,0.0,0.0,0.0,0.0,0.0,0.0,0.0,0.0,0.0,0.0,0.0,0.0,0.0,0.0,0.0,0.0,0.0,0.0,0.0,0.0,0.0,0.0,0.0,0.0,0.0,0.0,0.0,0.0,0.0,0.0,0.0,0.0,0.0,0.0,0.0,0.0,0.0,0.0,0.0,0.0,0.0,0.0,0.0,0.0,0.0,0.0,0.0,0.0,0.0,0.0,0.0,0.0,0.0,0.0,0.0,0.0,0.0,0.0,0.0,0.0,0.0,0.0,0.0,0.0,0.0,0.0,0.0,0.0,0.0,0.0,0.0,0.0,0.0,0.0,0.0,0.0,0.0,0.0,0.0,0.0,0.0,0.0,0.0,0.0,0.0,0.0,0.0,0.0,0.0,0.0,0.0,0.0,0.0,0.0,0.0,0.0,0.0,0.0,0.0,0.0,0.0,0.0,0.0,0.0,0.0,0.0,0.0,0.0,0.0,0.0,0.0,0.0,0.0,0.0,0.0,0.0,0.0,0.0,0.0,0.0,0.0,0.0,0.0,0.0,0.0,0.0,0.0,0.0,0.0,0.0,0.0,0.0,0.0,0.0,0.0,0.0,0.0,0.0,0.0,0.0,0.0,0.0,0.0,0.0,0.0,0.0,0.0,0.0,0.0,0.0,0.0,0.0,0.0,0.0,0.0,0.0,0.0,0.0,0.0,0.0,0.0,0.0,0.0,0.0,0.0,0.0,0.0,0.0,0.0,0.0,0.0,0.0,0.0,0.0,0.0,0.0,0.0,0.0,0.0,0.0,0.0,0.0,0.0,0.0,0.0,0.0,0.0,0.0,0.0,0.0,0.0,0.0,0.0,0.0,0.0,0.0,0.0,0.0,0.0,0.0,0.0,0.0,0.0,0.0,0.0,0.0,0.0,0.0,0.0,0.0,0.0,0.0,0.0,0.0,0.0,0.0,0.0,0.0,0.0,0.0,0.0,0.0,0.0,0.0,0.0,0.0,0.0,0.0,0.0,0.0,0.0,0.0,0.0,0.0,0.0,0.0,0.0,0.0,0.0,0.0,0.0,0.0,0.0,0.0,0.0,0.0,0.0,0.0,0.0,0.0,0.0,0.0,0.0,0.0,0.0,0.0,0.0,0.0,0.0,0.0,0.0,0.0,0.0,0.0,0.0,0.0,0.0,0.0,0.0,0.0,0.0,0.0,0.0,0.0,0.0,0.0,0.0,0.0,0.0,0.0,0.0,0.0,0.0,0.0,0.0,0.0,0.0,0.0,0.0,0.0,0.0,0.0,0.0,0.0,0.0,0.0,0.0,0.0,0.0,0.0,0.0,0.0,0.0,0.0,0.0,0.0,0.0,0.0,0.0,0.0,0.0,0.0,0.0,0.0,0.0,0.0,0.0,0.0,0.0,0.0,0.0,0.0,0.0,0.0,0.0,0.0,0.0,0.0,0.0,0.0,0.0,0.0,0.0,0.0,0.0,0.0,0.0,0.0,0.0,0.0,0.0,0.0,0.0,0.0,0.0,0.0,0.0,0.0,0.0,0.0,0.0,0.0,0.0,0.0,0.0,0.0,0.0,0.0,0.0,0.0,0.0,0.0,0.0,0.0,0.0,0.0,0.0,0.0,0.0,0.0,0.0,0.0,0.0,0.0,0.0,0.0,0.0,0.0,0.0,0.0,0.0,0.0,0.0,0.0,0.0,0.0,0.0,0.0,0.0,0.0,0.0,0.0,0.0,0.0,0.0,0.0,0.0,0.0,0.0,0.0,0.0,0.0,0.0,0.0,0.0,0.0,0.0,0.0,0.0,0.0,0.0,0.0,0.0,0.0,0.0,0.0,0.0,0.0,0.0,0.0,0.0,0.0,0.0,0.0,0.0,0.0,0.0,0.0,0.0,0.0,0.0,0.0,0.0,0.0,0.0,0.0,0.0,0.0,0.0,0.0,0.0,0.0,0.0,0.0,0.0,0.0,0.0,0.0,0.0,0.0,0.0,0.0,0.0,0.0,0.0,0.0,0.0,0.0,0.0,0.0,0.0,0.0,0.0,0.0,0.0,0.0,0.0,0.0,0.0,0.0,0.0,0.0,0.0,0.0,0.0,0.0,0.0,0.0,0.0,0.0,0.0,0.0,0.0,0.0,0.0,0.0,0.0,0.0,0.0,0.0,0.0,0.0,0.0,0.0,0.0,0.0,0.0,0.0,0.0,0.0,0.0,0.0,0.0,0.0,0.0,0.0,0.0,0.0,0.0,0.0,0.0,0.0,0.0,0.0,0.0,0.0,0.0,0.0,0.0,0.0,0.0,0.0,0.0,0.0,0.0,0.0,0.0,0.0,0.0,0.0,0.0,0.0,0.0,0.0,0.0,0.0,0.0,0.0,0.0,0.0,0.0,0.0,0.0,0.0,0.0,0.0,0.0,0.0,0.0,0.0,0.0,0.0,0.0,0.0,0.0,0.0,0.0,0.0,0.0,0.0,0.0,0.0,0.0,0.0,0.0,0.0,0.0,0.0,0.0,0.0,0.0,0.0,0.0,0.0,0.0,0.0,0.0,0.0,0.0,0.0,0.0,0.0,0.0,0.0,0.0,0.0,0.0,0.0,0.0,0.0,0.0,0.0,0.0,0.0,0.0,0.0,0.0,0.0,0.0,0.0,0.0,0.0,0.0,0.0,0.0,0.0,0.0,0.0,0.0,0.0,0.0,0.0,0.0,0.0,0.0,0.0,0.0,0.0,0.0,0.0,0.0,0.0,0.0,0.0,0.0,0.0,0.0,0.0,0.0,0.0,0.0,0.0,0.0,0.0,0.0,0.0,0.0,0.0,0.0,0.0,0.0,0.0,0.0,0.0,0.0,0.0,0.0,0.0,0.0,0.0,0.0,0.0,0.0,0.0,0.0,0.0,0.0,0.0,0.0,0.0,0.0,0.0,0.0,0.0,0.0,0.0,0.0,0.0,0.0,0.0,0.0,0.0,0.0,0.0,0.0,0.0,0.0,0.0,0.0,0.0,0.0,0.0,0.0,0.0,0.0,0.0,0.0,0.0,0.0,0.0,0.0,0.0,0.0,0.0,0.0,0.0,0.0,0.0,0.0,0.0,0.0,0.0,0.0,0.0,0.0,0.0,0.0,0.0,0.0,0.0,0.0,0.0,0.0,0.0,0.0,0.0,0.0,0.0,0.0,0.0,0.0,0.0,0.0,0.0,0.0,0.0,0.0,0.0,0.0,0.0,0.0,0.0,0.0,0.0,0.0,0.0,0.0,0.0,0.0,0.0,0.0,0.0,0.0,0.0,0.0,0.0,0.0,0.0,0.0,0.0,0.0,0.0,0.0,0.0,0.0,0.0,0.0,0.0,0.0,0.0,0.0,0.0,0.0,0.0,0.0,0.0,0.0,0.0,0.0,0.0,0.0,0.0,0.0,0.0,0.0,0.0,0.0,0.0,0.0,0.0,0.0,0.0,0.0,0.0,0.0,0.0,0.0,0.0,0.0,0.0,0.0,0.0,0.0,0.0,0.0,0.0,0.0,0.0,0.0,0.0,0.0,0.0,0.0,0.0,0.0,0.0,0.0,0.0,0.0,0.0,0.0,0.0,0.0,0.0,0.0,0.0,0.0,0.0,0.0,0.0,0.0,0.0,0.0,0.0,0.0,0.0,0.0,0.0,0.0,0.0,0.0,0.0,0.0,0.0,0.0,0.0,0.0,0.0,0.0,0.0,0.0,0.0,0.0]}]]]